Wetterdaten: Samstag, 22.12.2018
Datum Zeit Temp. A. Pool Temp. Temp. 5cm Feuchte A. Luftdruck Regen Wind Richtung Richtung Sonnenschein ET UV Solar Taupunkt Windchill Windben Empfang
22.12.2018 00:00 10,8 C 3,9 C 8,9 C 78 % 1012,5 hPa 0,0 l/m 22,4 km/h (4 Bft) W-SW 246 0 min 0,000 mm 0,0 UV-I 0 W/m 7,1 C 3,6 C 33,8 km/h (5 Bft) 94,29 %
22.12.2018 00:02 10,8 C 3,9 C 8,9 C 78 % 1012,4 hPa 0,0 l/m 26,0 km/h (4 Bft) W-SW 258 0 min 0,000 mm 0,0 UV-I 0 W/m 7,1 C 2,7 C 37,0 km/h (5 Bft) 89,74 %
22.12.2018 00:04 10,8 C 3,9 C 8,9 C 78 % 1012,4 hPa 0,0 l/m 21,2 km/h (4 Bft) W-SW 239 0 min 0,000 mm 0,0 UV-I 0 W/m 7,1 C 4,0 C 32,2 km/h (5 Bft) 96,00 %
22.12.2018 00:06 10,8 C 3,9 C 8,9 C 78 % 1012,5 hPa 0,0 l/m 26,1 km/h (4 Bft) W-SW 257 0 min 0,000 mm 0,0 UV-I 0 W/m 7,1 C 2,6 C 37,0 km/h (5 Bft) 95,74 %
22.12.2018 00:08 10,8 C 3,9 C 8,9 C 78 % 1012,4 hPa 0,0 l/m 20,6 km/h (4 Bft) W 274 0 min 0,000 mm 0,0 UV-I 0 W/m 7,1 C 4,1 C 37,0 km/h (5 Bft) 93,62 %
22.12.2018 00:10 10,8 C 3,9 C 8,9 C 78 % 1012,5 hPa 0,0 l/m 23,3 km/h (4 Bft) W 266 0 min 0,000 mm 0,0 UV-I 0 W/m 7,1 C 3,4 C 40,2 km/h (6 Bft) 96,00 %
22.12.2018 00:12 10,8 C 3,9 C 8,9 C 78 % 1012,5 hPa 0,0 l/m 27,7 km/h (4 Bft) W-SW 243 0 min 0,000 mm 0,0 UV-I 0 W/m 7,1 C 2,3 C 41,8 km/h (6 Bft) 95,74 %
22.12.2018 00:14 10,8 C 3,9 C 8,9 C 78 % 1012,4 hPa 0,0 l/m 25,4 km/h (4 Bft) W 263 0 min 0,000 mm 0,0 UV-I 0 W/m 7,1 C 2,8 C 35,4 km/h (5 Bft) 95,74 %
22.12.2018 00:16 10,8 C 3,9 C 8,9 C 78 % 1012,5 hPa 0,0 l/m 21,8 km/h (4 Bft) W 275 0 min 0,000 mm 0,0 UV-I 0 W/m 7,1 C 3,8 C 32,2 km/h (5 Bft) 93,62 %
22.12.2018 00:18 10,8 C 3,9 C 8,9 C 78 % 1012,5 hPa 0,0 l/m 22,7 km/h (4 Bft) W 267 0 min 0,000 mm 0,0 UV-I 0 W/m 7,1 C 3,5 C 37,0 km/h (5 Bft) 95,74 %
22.12.2018 00:20 10,7 C 3,9 C 8,9 C 78 % 1012,5 hPa 0,0 l/m 23,3 km/h (4 Bft) W 267 0 min 0,000 mm 0,0 UV-I 0 W/m 7,0 C 3,2 C 33,8 km/h (5 Bft) 93,62 %
22.12.2018 00:22 10,7 C 3,9 C 8,9 C 79 % 1012,5 hPa 0,0 l/m 22,6 km/h (4 Bft) W-SW 252 0 min 0,000 mm 0,0 UV-I 0 W/m 7,2 C 3,4 C 37,0 km/h (5 Bft) 94,44 %
22.12.2018 00:24 10,7 C 3,9 C 8,9 C 79 % 1012,6 hPa 0,0 l/m 21,0 km/h (4 Bft) W 267 0 min 0,000 mm 0,0 UV-I 0 W/m 7,2 C 3,9 C 29,0 km/h (5 Bft) 93,62 %
22.12.2018 00:26 10,7 C 3,9 C 8,9 C 79 % 1012,6 hPa 0,0 l/m 22,6 km/h (4 Bft) W 270 0 min 0,000 mm 0,0 UV-I 0 W/m 7,2 C 3,4 C 30,6 km/h (5 Bft) 91,49 %
22.12.2018 00:28 10,7 C 3,9 C 8,9 C 79 % 1012,5 hPa 0,0 l/m 26,9 km/h (4 Bft) W 265 0 min 0,000 mm 0,0 UV-I 0 W/m 7,2 C 2,3 C 37,0 km/h (5 Bft) 93,62 %
22.12.2018 00:30 10,7 C 3,9 C 8,9 C 78 % 1012,6 hPa 0,0 l/m 18,0 km/h (3 Bft) W-SW 257 0 min 0,000 mm 0,0 UV-I 0 W/m 7,0 C 4,9 C 29,0 km/h (5 Bft) 93,62 %
22.12.2018 00:32 10,8 C 3,9 C 8,9 C 78 % 1012,5 hPa 0,0 l/m 24,0 km/h (4 Bft) W 259 0 min 0,000 mm 0,0 UV-I 0 W/m 7,1 C 3,2 C 33,8 km/h (5 Bft) 95,74 %
22.12.2018 00:34 10,8 C 3,9 C 8,9 C 78 % 1012,4 hPa 0,0 l/m 24,0 km/h (4 Bft) W 279 0 min 0,000 mm 0,0 UV-I 0 W/m 7,1 C 3,2 C 33,8 km/h (5 Bft) 89,36 %
22.12.2018 00:36 10,8 C 3,9 C 9,4 C 78 % 1012,4 hPa 0,0 l/m 17,8 km/h (3 Bft) W 261 0 min 0,000 mm 0,0 UV-I 0 W/m 7,1 C 5,0 C 25,7 km/h (4 Bft) 95,74 %
22.12.2018 00:38 10,8 C 3,9 C 9,4 C 78 % 1012,4 hPa 0,0 l/m 18,4 km/h (3 Bft) W 263 0 min 0,000 mm 0,0 UV-I 0 W/m 7,1 C 4,8 C 29,0 km/h (5 Bft) 93,62 %
22.12.2018 00:40 10,8 C 3,9 C 8,9 C 78 % 1012,4 hPa 0,0 l/m 15,5 km/h (3 Bft) W 275 0 min 0,000 mm 0,0 UV-I 0 W/m 7,1 C 5,9 C 22,5 km/h (4 Bft) 95,74 %
22.12.2018 00:42 10,8 C 3,9 C 8,9 C 78 % 1012,4 hPa 0,0 l/m 19,3 km/h (3 Bft) W-SW 237 0 min 0,000 mm 0,0 UV-I 0 W/m 7,1 C 4,5 C 29,0 km/h (5 Bft) 93,62 %
22.12.2018 00:44 10,8 C 3,9 C 9,4 C 78 % 1012,3 hPa 0,0 l/m 17,1 km/h (3 Bft) W 269 0 min 0,000 mm 0,0 UV-I 0 W/m 7,1 C 5,3 C 25,7 km/h (4 Bft) 96,00 %
22.12.2018 00:46 10,8 C 3,9 C 9,4 C 78 % 1012,3 hPa 0,0 l/m 20,0 km/h (4 Bft) W 273 0 min 0,000 mm 0,0 UV-I 0 W/m 7,1 C 4,3 C 32,2 km/h (5 Bft) 95,74 %
22.12.2018 00:48 10,8 C 3,9 C 9,4 C 79 % 1012,3 hPa 0,0 l/m 16,1 km/h (3 Bft) W 280 0 min 0,000 mm 0,0 UV-I 0 W/m 7,3 C 5,7 C 20,9 km/h (4 Bft) 96,00 %
22.12.2018 00:50 10,8 C 3,9 C 9,4 C 79 % 1012,3 hPa 0,0 l/m 15,2 km/h (3 Bft) W-SW 243 0 min 0,000 mm 0,0 UV-I 0 W/m 7,3 C 6,0 C 24,1 km/h (4 Bft) 97,87 %
22.12.2018 00:52 10,8 C 3,9 C 9,4 C 79 % 1012,3 hPa 0,0 l/m 17,7 km/h (3 Bft) W-SW 244 0 min 0,000 mm 0,0 UV-I 0 W/m 7,3 C 5,1 C 27,4 km/h (4 Bft) 93,62 %
22.12.2018 00:54 10,8 C 3,9 C 9,4 C 79 % 1012,3 hPa 0,0 l/m 18,8 km/h (3 Bft) W-SW 238 0 min 0,000 mm 0,0 UV-I 0 W/m 7,3 C 4,7 C 29,0 km/h (5 Bft) 97,87 %
22.12.2018 00:56 10,8 C 3,9 C 9,4 C 79 % 1012,3 hPa 0,0 l/m 16,8 km/h (3 Bft) W-SW 252 0 min 0,000 mm 0,0 UV-I 0 W/m 7,3 C 5,4 C 27,4 km/h (4 Bft) 97,44 %
22.12.2018 00:58 10,8 C 3,9 C 9,4 C 79 % 1012,3 hPa 0,0 l/m 17,6 km/h (3 Bft) W-SW 250 0 min 0,000 mm 0,0 UV-I 0 W/m 7,3 C 5,1 C 29,0 km/h (5 Bft) 97,87 %
22.12.2018 01:00 10,8 C 3,9 C 9,4 C 79 % 1012,3 hPa 0,0 l/m 19,9 km/h (4 Bft) W-SW 238 0 min 0,051 mm 0,0 UV-I 0 W/m 7,3 C 4,4 C 24,1 km/h (4 Bft) 95,74 %
22.12.2018 01:02 10,8 C 3,9 C 9,4 C 79 % 1012,3 hPa 0,0 l/m 19,5 km/h (3 Bft) W 271 0 min 0,000 mm 0,0 UV-I 0 W/m 7,3 C 4,5 C 25,7 km/h (4 Bft) 96,00 %
22.12.2018 01:04 10,8 C 3,9 C 9,4 C 79 % 1012,3 hPa 0,0 l/m 16,9 km/h (3 Bft) W-SW 241 0 min 0,000 mm 0,0 UV-I 0 W/m 7,3 C 5,4 C 24,1 km/h (4 Bft) 98,00 %
22.12.2018 01:06 10,8 C 3,9 C 9,4 C 79 % 1012,1 hPa 0,0 l/m 16,0 km/h (3 Bft) SW 227 0 min 0,000 mm 0,0 UV-I 0 W/m 7,3 C 5,7 C 24,1 km/h (4 Bft) 97,87 %
22.12.2018 01:08 10,8 C 3,9 C 9,4 C 79 % 1012,2 hPa 0,0 l/m 18,3 km/h (3 Bft) W 275 0 min 0,000 mm 0,0 UV-I 0 W/m 7,3 C 4,9 C 27,4 km/h (4 Bft) 100,00 %
22.12.2018 01:10 10,8 C 3,9 C 9,4 C 79 % 1012,1 hPa 0,0 l/m 20,7 km/h (4 Bft) W 267 0 min 0,000 mm 0,0 UV-I 0 W/m 7,3 C 4,1 C 29,0 km/h (5 Bft) 100,00 %
22.12.2018 01:12 10,8 C 3,9 C 9,4 C 79 % 1012,1 hPa 0,0 l/m 16,7 km/h (3 Bft) SW 233 0 min 0,000 mm 0,0 UV-I 0 W/m 7,3 C 5,4 C 27,4 km/h (4 Bft) 98,00 %
22.12.2018 01:14 10,8 C 3,9 C 9,4 C 79 % 1012,1 hPa 0,0 l/m 17,0 km/h (3 Bft) SW 225 0 min 0,000 mm 0,0 UV-I 0 W/m 7,3 C 5,3 C 24,1 km/h (4 Bft) 100,00 %
22.12.2018 01:16 10,8 C 3,9 C 9,4 C 79 % 1012,1 hPa 0,0 l/m 18,0 km/h (3 Bft) W 271 0 min 0,000 mm 0,0 UV-I 0 W/m 7,3 C 5,0 C 27,4 km/h (4 Bft) 100,00 %
22.12.2018 01:18 10,8 C 3,9 C 9,4 C 79 % 1012,1 hPa 0,0 l/m 22,5 km/h (4 Bft) W-SW 242 0 min 0,000 mm 0,0 UV-I 0 W/m 7,3 C 3,6 C 38,6 km/h (5 Bft) 100,00 %
22.12.2018 01:20 10,8 C 3,9 C 9,4 C 79 % 1012,1 hPa 0,0 l/m 23,5 km/h (4 Bft) SW 217 0 min 0,000 mm 0,0 UV-I 0 W/m 7,3 C 3,3 C 41,8 km/h (6 Bft) 100,00 %
22.12.2018 01:22 10,9 C 3,9 C 9,4 C 78 % 1012,1 hPa 0,0 l/m 24,5 km/h (4 Bft) W-SW 249 0 min 0,000 mm 0,0 UV-I 0 W/m 7,2 C 3,2 C 41,8 km/h (6 Bft) 100,00 %
22.12.2018 01:24 10,9 C 3,9 C 9,4 C 78 % 1012,0 hPa 0,0 l/m 24,7 km/h (4 Bft) W-SW 254 0 min 0,000 mm 0,0 UV-I 0 W/m 7,2 C 3,1 C 37,0 km/h (5 Bft) 100,00 %
22.12.2018 01:26 11,0 C 3,9 C 9,4 C 78 % 1012,1 hPa 0,0 l/m 20,3 km/h (4 Bft) W-SW 244 0 min 0,000 mm 0,0 UV-I 0 W/m 7,3 C 4,5 C 32,2 km/h (5 Bft) 95,12 %
22.12.2018 01:28 10,9 C 3,9 C 9,4 C 78 % 1012,2 hPa 0,0 l/m 20,0 km/h (4 Bft) W 265 0 min 0,000 mm 0,0 UV-I 0 W/m 7,2 C 4,4 C 32,2 km/h (5 Bft) 100,00 %
22.12.2018 01:30 11,0 C 3,9 C 9,4 C 78 % 1012,1 hPa 0,0 l/m 23,7 km/h (4 Bft) SW 236 0 min 0,000 mm 0,0 UV-I 0 W/m 7,3 C 3,5 C 37,0 km/h (5 Bft) 100,00 %
22.12.2018 01:32 11,1 C 3,9 C 9,4 C 78 % 1012,2 hPa 0,0 l/m 22,1 km/h (4 Bft) W 274 0 min 0,000 mm 0,0 UV-I 0 W/m 7,4 C 4,1 C 32,2 km/h (5 Bft) 100,00 %
22.12.2018 01:34 11,1 C 3,9 C 9,4 C 78 % 1012,1 hPa 0,0 l/m 25,2 km/h (4 Bft) W-SW 254 0 min 0,000 mm 0,0 UV-I 0 W/m 7,4 C 3,3 C 35,4 km/h (5 Bft) 100,00 %
22.12.2018 01:36 11,1 C 3,9 C 9,4 C 77 % 1012,1 hPa 0,0 l/m 21,9 km/h (4 Bft) W 263 0 min 0,000 mm 0,0 UV-I 0 W/m 7,2 C 4,1 C 41,8 km/h (6 Bft) 100,00 %
22.12.2018 01:38 11,1 C 3,9 C 9,4 C 77 % 1012,0 hPa 0,0 l/m 21,8 km/h (4 Bft) W 272 0 min 0,000 mm 0,0 UV-I 0 W/m 7,2 C 4,2 C 33,8 km/h (5 Bft) 97,87 %
22.12.2018 01:40 11,1 C 3,9 C 9,4 C 77 % 1012,1 hPa 0,0 l/m 21,9 km/h (4 Bft) W 275 0 min 0,000 mm 0,0 UV-I 0 W/m 7,2 C 4,1 C 30,6 km/h (5 Bft) 98,00 %
22.12.2018 01:42 11,2 C 3,9 C 9,4 C 77 % 1012,1 hPa 0,0 l/m 19,9 km/h (4 Bft) W 267 0 min 0,000 mm 0,0 UV-I 0 W/m 7,3 C 4,9 C 25,7 km/h (4 Bft) 93,75 %
22.12.2018 01:44 11,2 C 3,9 C 10,0 C 77 % 1012,1 hPa 0,0 l/m 23,2 km/h (4 Bft) W 269 0 min 0,000 mm 0,0 UV-I 0 W/m 7,3 C 3,9 C 32,2 km/h (5 Bft) 97,87 %
22.12.2018 01:46 11,2 C 3,9 C 10,0 C 77 % 1012,0 hPa 0,0 l/m 21,5 km/h (4 Bft) W-SW 245 0 min 0,000 mm 0,0 UV-I 0 W/m 7,3 C 4,4 C 32,2 km/h (5 Bft) 95,74 %
22.12.2018 01:48 11,2 C 3,9 C 10,0 C 77 % 1012,0 hPa 0,0 l/m 19,5 km/h (3 Bft) SW 236 0 min 0,000 mm 0,0 UV-I 0 W/m 7,3 C 5,0 C 29,0 km/h (5 Bft) 97,87 %
22.12.2018 01:50 11,2 C 3,9 C 9,4 C 77 % 1012,1 hPa 0,0 l/m 20,5 km/h (4 Bft) W 260 0 min 0,000 mm 0,0 UV-I 0 W/m 7,3 C 4,7 C 29,0 km/h (5 Bft) 97,87 %
22.12.2018 01:52 11,2 C 3,9 C 9,4 C 77 % 1012,1 hPa 0,0 l/m 21,9 km/h (4 Bft) W-NW 290 0 min 0,000 mm 0,0 UV-I 0 W/m 7,3 C 4,3 C 35,4 km/h (5 Bft) 97,14 %
22.12.2018 01:54 11,1 C 3,9 C 9,4 C 77 % 1012,1 hPa 0,0 l/m 21,4 km/h (4 Bft) W-SW 246 0 min 0,000 mm 0,0 UV-I 0 W/m 7,2 C 4,3 C 30,6 km/h (5 Bft) 96,00 %
22.12.2018 01:56 11,1 C 3,9 C 9,4 C 77 % 1012,2 hPa 0,0 l/m 19,9 km/h (4 Bft) W-SW 248 0 min 0,000 mm 0,0 UV-I 0 W/m 7,2 C 4,7 C 38,6 km/h (5 Bft) 91,49 %
22.12.2018 01:58 11,1 C 3,9 C 9,4 C 77 % 1012,2 hPa 0,0 l/m 20,1 km/h (4 Bft) SW 229 0 min 0,000 mm 0,0 UV-I 0 W/m 7,2 C 4,7 C 32,2 km/h (5 Bft) 95,74 %
22.12.2018 02:00 11,0 C 3,9 C 9,4 C 77 % 1012,3 hPa 0,0 l/m 21,9 km/h (4 Bft) W 262 0 min 0,051 mm 0,0 UV-I 0 W/m 7,1 C 4,0 C 33,8 km/h (5 Bft) 95,74 %
22.12.2018 02:02 11,0 C 3,9 C 9,4 C 77 % 1012,3 hPa 0,0 l/m 20,1 km/h (4 Bft) W-SW 244 0 min 0,000 mm 0,0 UV-I 0 W/m 7,1 C 4,5 C 30,6 km/h (5 Bft) 95,74 %
22.12.2018 02:04 10,9 C 3,9 C 9,4 C 77 % 1012,3 hPa 0,0 l/m 21,2 km/h (4 Bft) W 265 0 min 0,000 mm 0,0 UV-I 0 W/m 7,0 C 4,1 C 33,8 km/h (5 Bft) 93,62 %
22.12.2018 02:06 10,9 C 3,9 C 9,4 C 77 % 1012,4 hPa 0,0 l/m 22,0 km/h (4 Bft) W 272 0 min 0,000 mm 0,0 UV-I 0 W/m 7,0 C 3,9 C 32,2 km/h (5 Bft) 91,49 %
22.12.2018 02:08 11,0 C 3,9 C 9,4 C 77 % 1012,4 hPa 0,0 l/m 24,4 km/h (4 Bft) SW 231 0 min 0,000 mm 0,0 UV-I 0 W/m 7,1 C 3,3 C 37,0 km/h (5 Bft) 95,74 %
22.12.2018 02:10 11,0 C 3,9 C 9,4 C 77 % 1012,5 hPa 0,0 l/m 19,4 km/h (3 Bft) SW 227 0 min 0,000 mm 0,0 UV-I 0 W/m 7,1 C 4,8 C 32,2 km/h (5 Bft) 95,74 %
22.12.2018 02:12 10,9 C 3,9 C 9,4 C 77 % 1012,3 hPa 0,0 l/m 20,7 km/h (4 Bft) W-SW 256 0 min 0,000 mm 0,0 UV-I 0 W/m 7,0 C 4,2 C 30,6 km/h (5 Bft) 97,92 %
22.12.2018 02:14 10,9 C 3,9 C 9,4 C 78 % 1012,4 hPa 0,0 l/m 24,2 km/h (4 Bft) S-SW 194 0 min 0,000 mm 0,0 UV-I 0 W/m 7,2 C 3,3 C 41,8 km/h (6 Bft) 97,87 %
22.12.2018 02:16 10,9 C 3,9 C 9,4 C 78 % 1012,5 hPa 0,0 l/m 18,4 km/h (3 Bft) SW 235 0 min 0,000 mm 0,0 UV-I 0 W/m 7,2 C 5,0 C 30,6 km/h (5 Bft) 98,00 %
22.12.2018 02:18 10,9 C 3,9 C 9,4 C 78 % 1012,4 hPa 0,0 l/m 19,4 km/h (3 Bft) SW 231 0 min 0,000 mm 0,0 UV-I 0 W/m 7,2 C 4,6 C 25,7 km/h (4 Bft) 97,87 %
22.12.2018 02:20 10,9 C 3,9 C 9,4 C 78 % 1012,4 hPa 0,0 l/m 22,3 km/h (4 Bft) SW 235 0 min 0,000 mm 0,0 UV-I 0 W/m 7,2 C 3,8 C 30,6 km/h (5 Bft) 95,74 %
22.12.2018 02:22 10,9 C 3,9 C 9,4 C 78 % 1012,4 hPa 0,0 l/m 22,7 km/h (4 Bft) W 260 0 min 0,000 mm 0,0 UV-I 0 W/m 7,2 C 3,7 C 32,2 km/h (5 Bft) 95,74 %
22.12.2018 02:24 10,9 C 3,9 C 9,4 C 77 % 1012,4 hPa 0,0 l/m 23,5 km/h (4 Bft) SW 229 0 min 0,000 mm 0,0 UV-I 0 W/m 7,0 C 3,4 C 30,6 km/h (5 Bft) 97,37 %
22.12.2018 02:26 10,8 C 3,9 C 9,4 C 77 % 1012,3 hPa 0,0 l/m 22,2 km/h (4 Bft) W 267 0 min 0,000 mm 0,0 UV-I 0 W/m 6,9 C 3,7 C 33,8 km/h (5 Bft) 97,87 %
22.12.2018 02:28 10,8 C 3,9 C 9,4 C 77 % 1012,5 hPa 0,0 l/m 21,0 km/h (4 Bft) SW 227 0 min 0,000 mm 0,0 UV-I 0 W/m 6,9 C 4,0 C 29,0 km/h (5 Bft) 97,92 %
22.12.2018 02:30 10,7 C 3,9 C 9,4 C 78 % 1012,5 hPa 0,0 l/m 26,5 km/h (4 Bft) W-SW 248 0 min 0,000 mm 0,0 UV-I 0 W/m 7,0 C 2,4 C 35,4 km/h (5 Bft) 97,87 %
22.12.2018 02:32 10,7 C 3,9 C 9,4 C 78 % 1012,5 hPa 0,0 l/m 22,8 km/h (4 Bft) W 266 0 min 0,000 mm 0,0 UV-I 0 W/m 7,0 C 3,4 C 41,8 km/h (6 Bft) 95,74 %
22.12.2018 02:34 10,7 C 3,9 C 9,4 C 79 % 1012,5 hPa 0,0 l/m 18,1 km/h (3 Bft) W-SW 244 0 min 0,000 mm 0,0 UV-I 0 W/m 7,2 C 4,8 C 32,2 km/h (5 Bft) 98,00 %
22.12.2018 02:36 10,6 C 3,9 C 9,4 C 79 % 1012,4 hPa 0,0 l/m 23,6 km/h (4 Bft) W-SW 242 0 min 0,000 mm 0,0 UV-I 0 W/m 7,1 C 3,0 C 37,0 km/h (5 Bft) 97,92 %
22.12.2018 02:38 10,6 C 3,9 C 9,4 C 79 % 1012,3 hPa 0,0 l/m 25,8 km/h (4 Bft) W-SW 237 0 min 0,000 mm 0,0 UV-I 0 W/m 7,1 C 2,4 C 35,4 km/h (5 Bft) 98,00 %
22.12.2018 02:40 10,6 C 3,9 C 9,4 C 79 % 1012,4 hPa 0,0 l/m 24,0 km/h (4 Bft) W 262 0 min 0,000 mm 0,0 UV-I 0 W/m 7,1 C 2,9 C 37,0 km/h (5 Bft) 100,00 %
22.12.2018 02:42 10,6 C 3,9 C 9,4 C 80 % 1012,4 hPa 0,0 l/m 22,8 km/h (4 Bft) SW 233 0 min 0,000 mm 0,0 UV-I 0 W/m 7,3 C 3,2 C 33,8 km/h (5 Bft) 100,00 %
22.12.2018 02:44 10,5 C 3,9 C 9,4 C 80 % 1012,4 hPa 0,0 l/m 20,8 km/h (4 Bft) W-SW 255 0 min 0,000 mm 0,0 UV-I 0 W/m 7,2 C 3,7 C 33,8 km/h (5 Bft) 100,00 %
22.12.2018 02:46 10,4 C 3,9 C 8,9 C 80 % 1012,4 hPa 0,0 l/m 21,4 km/h (4 Bft) SW 236 0 min 0,000 mm 0,0 UV-I 0 W/m 7,1 C 3,4 C 35,4 km/h (5 Bft) 100,00 %
22.12.2018 02:48 10,4 C 3,9 C 8,9 C 80 % 1012,3 hPa 0,0 l/m 22,0 km/h (4 Bft) W 264 0 min 0,000 mm 0,0 UV-I 0 W/m 7,1 C 3,2 C 33,8 km/h (5 Bft) 97,92 %
22.12.2018 02:50 10,3 C 3,9 C 8,9 C 80 % 1012,3 hPa 0,0 l/m 19,0 km/h (3 Bft) SW 236 0 min 0,000 mm 0,0 UV-I 0 W/m 7,0 C 4,0 C 32,2 km/h (5 Bft) 100,00 %
22.12.2018 02:52 10,2 C 3,9 C 8,9 C 81 % 1012,3 hPa 0,0 l/m 23,6 km/h (4 Bft) W-SW 240 0 min 0,000 mm 0,0 UV-I 0 W/m 7,1 C 2,5 C 33,8 km/h (5 Bft) 100,00 %
22.12.2018 02:54 10,2 C 3,9 C 8,9 C 81 % 1012,3 hPa 0,0 l/m 18,4 km/h (3 Bft) SW 235 0 min 0,000 mm 0,0 UV-I 0 W/m 7,1 C 4,1 C 27,4 km/h (4 Bft) 100,00 %
22.12.2018 02:56 10,2 C 3,9 C 8,9 C 81 % 1012,3 hPa 0,0 l/m 17,0 km/h (3 Bft) W 263 0 min 0,000 mm 0,0 UV-I 0 W/m 7,1 C 4,6 C 24,1 km/h (4 Bft) 97,87 %
22.12.2018 02:58 10,1 C 3,9 C 8,9 C 82 % 1012,3 hPa 0,0 l/m 22,3 km/h (4 Bft) W 260 0 min 0,000 mm 0,0 UV-I 0 W/m 7,2 C 2,7 C 30,6 km/h (5 Bft) 100,00 %
22.12.2018 03:00 10,1 C 3,9 C 8,9 C 82 % 1012,3 hPa 0,0 l/m 20,3 km/h (4 Bft) W-SW 253 0 min 0,050 mm 0,0 UV-I 0 W/m 7,2 C 3,3 C 27,4 km/h (4 Bft) 100,00 %
22.12.2018 03:02 10,1 C 3,9 C 8,9 C 82 % 1012,3 hPa 0,0 l/m 20,9 km/h (4 Bft) W 271 0 min 0,000 mm 0,0 UV-I 0 W/m 7,2 C 3,1 C 30,6 km/h (5 Bft) 100,00 %
22.12.2018 03:04 10,0 C 3,9 C 8,9 C 83 % 1012,4 hPa 0,0 l/m 21,4 km/h (4 Bft) SW 226 0 min 0,000 mm 0,0 UV-I 0 W/m 7,2 C 2,8 C 32,2 km/h (5 Bft) 97,87 %
22.12.2018 03:06 10,0 C 3,9 C 8,9 C 83 % 1012,4 hPa 0,0 l/m 19,9 km/h (4 Bft) W-SW 252 0 min 0,000 mm 0,0 UV-I 0 W/m 7,2 C 3,3 C 29,0 km/h (5 Bft) 100,00 %
22.12.2018 03:08 10,0 C 3,9 C 8,9 C 84 % 1012,4 hPa 0,0 l/m 22,4 km/h (4 Bft) SW 215 0 min 0,000 mm 0,0 UV-I 0 W/m 7,4 C 2,5 C 32,2 km/h (5 Bft) 97,87 %
22.12.2018 03:10 10,1 C 3,9 C 9,4 C 84 % 1012,4 hPa 0,0 l/m 23,5 km/h (4 Bft) SW 233 0 min 0,000 mm 0,0 UV-I 0 W/m 7,5 C 2,4 C 32,2 km/h (5 Bft) 96,00 %
22.12.2018 03:12 10,1 C 3,9 C 9,4 C 84 % 1012,4 hPa 0,0 l/m 23,4 km/h (4 Bft) W-SW 239 0 min 0,000 mm 0,0 UV-I 0 W/m 7,5 C 2,4 C 35,4 km/h (5 Bft) 97,87 %
22.12.2018 03:14 10,2 C 3,9 C 9,4 C 84 % 1012,4 hPa 0,0 l/m 23,4 km/h (4 Bft) W-SW 251 0 min 0,000 mm 0,0 UV-I 0 W/m 7,6 C 2,5 C 35,4 km/h (5 Bft) 97,92 %
22.12.2018 03:16 10,2 C 3,9 C 9,4 C 84 % 1012,5 hPa 0,0 l/m 22,8 km/h (4 Bft) SW 227 0 min 0,000 mm 0,0 UV-I 0 W/m 7,6 C 2,7 C 32,2 km/h (5 Bft) 97,37 %
22.12.2018 03:18 10,2 C 3,9 C 9,4 C 83 % 1012,5 hPa 0,0 l/m 21,2 km/h (4 Bft) SW 236 0 min 0,000 mm 0,0 UV-I 0 W/m 7,4 C 3,2 C 35,4 km/h (5 Bft) 96,00 %
22.12.2018 03:20 10,2 C 3,9 C 9,4 C 83 % 1012,4 hPa 0,0 l/m 23,8 km/h (4 Bft) W-SW 244 0 min 0,000 mm 0,0 UV-I 0 W/m 7,4 C 2,4 C 38,6 km/h (5 Bft) 97,87 %
22.12.2018 03:22 10,2 C 3,9 C 9,4 C 83 % 1012,4 hPa 0,0 l/m 21,6 km/h (4 Bft) SW 236 0 min 0,000 mm 0,0 UV-I 0 W/m 7,4 C 3,0 C 32,2 km/h (5 Bft) 98,00 %
22.12.2018 03:24 10,2 C 3,9 C 9,4 C 83 % 1012,5 hPa 0,0 l/m 21,1 km/h (4 Bft) W-SW 242 0 min 0,000 mm 0,0 UV-I 0 W/m 7,4 C 3,2 C 35,4 km/h (5 Bft) 97,87 %
22.12.2018 03:26 10,2 C 3,9 C 9,4 C 83 % 1012,6 hPa 0,0 l/m 19,0 km/h (3 Bft) W 277 0 min 0,000 mm 0,0 UV-I 0 W/m 7,4 C 3,9 C 25,7 km/h (4 Bft) 97,87 %
22.12.2018 03:28 10,2 C 3,9 C 9,4 C 84 % 1012,5 hPa 0,0 l/m 20,6 km/h (4 Bft) W-NW 292 0 min 0,000 mm 0,0 UV-I 0 W/m 7,6 C 3,4 C 32,2 km/h (5 Bft) 97,87 %
22.12.2018 03:30 10,2 C 3,9 C 9,4 C 84 % 1012,4 hPa 0,0 l/m 18,0 km/h (3 Bft) SW 235 0 min 0,000 mm 0,0 UV-I 0 W/m 7,6 C 4,2 C 25,7 km/h (4 Bft) 97,44 %
22.12.2018 03:32 10,3 C 3,9 C 9,4 C 84 % 1012,4 hPa 0,0 l/m 20,3 km/h (4 Bft) W 270 0 min 0,000 mm 0,0 UV-I 0 W/m 7,7 C 3,6 C 35,4 km/h (5 Bft) 97,87 %
22.12.2018 03:34 10,3 C 3,9 C 10,0 C 84 % 1012,4 hPa 0,0 l/m 23,6 km/h (4 Bft) W 265 0 min 0,000 mm 0,0 UV-I 0 W/m 7,7 C 2,6 C 37,0 km/h (5 Bft) 97,87 %
22.12.2018 03:36 10,3 C 3,9 C 10,0 C 84 % 1012,5 hPa 0,0 l/m 24,5 km/h (4 Bft) W-SW 240 0 min 0,000 mm 0,0 UV-I 0 W/m 7,7 C 2,4 C 32,2 km/h (5 Bft) 100,00 %
22.12.2018 03:38 10,3 C 3,9 C 10,0 C 84 % 1012,5 hPa 0,0 l/m 20,9 km/h (4 Bft) W 263 0 min 0,000 mm 0,0 UV-I 0 W/m 7,7 C 3,4 C 32,2 km/h (5 Bft) 98,00 %
22.12.2018 03:40 10,3 C 3,9 C 10,0 C 84 % 1012,5 hPa 0,0 l/m 20,8 km/h (4 Bft) W 261 0 min 0,000 mm 0,0 UV-I 0 W/m 7,7 C 3,4 C 43,5 km/h (6 Bft) 97,87 %
22.12.2018 03:42 10,3 C 3,9 C 10,0 C 84 % 1012,5 hPa 0,0 l/m 26,8 km/h (4 Bft) W 259 0 min 0,000 mm 0,0 UV-I 0 W/m 7,7 C 1,8 C 37,0 km/h (5 Bft) 98,00 %
22.12.2018 03:44 10,3 C 3,9 C 10,0 C 84 % 1012,6 hPa 0,0 l/m 25,4 km/h (4 Bft) W 279 0 min 0,000 mm 0,0 UV-I 0 W/m 7,7 C 2,1 C 37,0 km/h (5 Bft) 97,87 %
22.12.2018 03:46 10,3 C 3,9 C 10,0 C 85 % 1012,5 hPa 0,0 l/m 24,3 km/h (4 Bft) W 271 0 min 0,000 mm 0,0 UV-I 0 W/m 7,9 C 2,4 C 40,2 km/h (6 Bft) 97,37 %
22.12.2018 03:48 10,3 C 3,9 C 10,0 C 85 % 1012,6 hPa 0,0 l/m 21,8 km/h (4 Bft) W 262 0 min 0,000 mm 0,0 UV-I 0 W/m 7,9 C 3,1 C 38,6 km/h (5 Bft) 100,00 %
22.12.2018 03:50 10,3 C 3,9 C 9,4 C 85 % 1012,5 hPa 0,0 l/m 21,0 km/h (4 Bft) W-SW 252 0 min 0,000 mm 0,0 UV-I 0 W/m 7,9 C 3,4 C 30,6 km/h (5 Bft) 100,00 %
22.12.2018 03:52 10,3 C 3,9 C 9,4 C 85 % 1012,6 hPa 0,0 l/m 21,6 km/h (4 Bft) SW 236 0 min 0,000 mm 0,0 UV-I 0 W/m 7,9 C 3,2 C 35,4 km/h (5 Bft) 100,00 %
22.12.2018 03:55 10,3 C 3,9 C 9,4 C 85 % 1012,5 hPa 0,0 l/m 24,4 km/h (4 Bft) SW 235 0 min 0,000 mm 0,0 UV-I 0 W/m 7,9 C 2,4 C 37,0 km/h (5 Bft) 98,65 %
22.12.2018 03:56 10,3 C 3,9 C 10,0 C 86 % 1012,5 hPa 0,0 l/m 25,7 km/h (4 Bft) SW 230 0 min 0,000 mm 0,0 UV-I 0 W/m 8,1 C 2,1 C 33,8 km/h (5 Bft) 90,91 %
22.12.2018 03:58 10,3 C 3,9 C 9,4 C 86 % 1012,6 hPa 0,0 l/m 24,6 km/h (4 Bft) W-SW 240 0 min 0,000 mm 0,0 UV-I 0 W/m 8,1 C 2,3 C 38,6 km/h (5 Bft) 100,00 %
22.12.2018 04:00 10,3 C 3,9 C 10,0 C 86 % 1012,6 hPa 0,0 l/m 25,3 km/h (4 Bft) W-SW 258 0 min 0,051 mm 0,0 UV-I 0 W/m 8,1 C 2,2 C 37,0 km/h (5 Bft) 98,00 %
22.12.2018 04:02 10,3 C 3,9 C 10,0 C 86 % 1012,5 hPa 0,0 l/m 24,2 km/h (4 Bft) SW 227 0 min 0,000 mm 0,0 UV-I 0 W/m 8,1 C 2,4 C 33,8 km/h (5 Bft) 100,00 %
22.12.2018 04:04 10,4 C 3,9 C 10,0 C 86 % 1012,6 hPa 0,0 l/m 22,3 km/h (4 Bft) W 281 0 min 0,000 mm 0,0 UV-I 0 W/m 8,2 C 3,1 C 33,8 km/h (5 Bft) 93,62 %
22.12.2018 04:06 10,3 C 3,9 C 10,0 C 86 % 1012,6 hPa 0,0 l/m 22,6 km/h (4 Bft) SW 232 0 min 0,000 mm 0,0 UV-I 0 W/m 8,1 C 2,9 C 35,4 km/h (5 Bft) 95,74 %
22.12.2018 04:08 10,3 C 3,9 C 10,0 C 86 % 1012,6 hPa 0,0 l/m 24,8 km/h (4 Bft) W 264 0 min 0,000 mm 0,0 UV-I 0 W/m 8,1 C 2,3 C 41,8 km/h (6 Bft) 97,92 %
22.12.2018 04:11 10,3 C 3,9 C 10,0 C 86 % 1012,6 hPa 0,0 l/m 20,9 km/h (4 Bft) W-SW 244 0 min 0,000 mm 0,0 UV-I 0 W/m 8,1 C 3,4 C 30,6 km/h (5 Bft) 97,26 %
22.12.2018 04:12 10,3 C 3,9 C 10,0 C 86 % 1012,6 hPa 0,0 l/m 24,4 km/h (4 Bft) SW 230 0 min 0,000 mm 0,0 UV-I 0 W/m 8,1 C 2,4 C 32,2 km/h (5 Bft) 91,67 %
22.12.2018 04:14 10,3 C 3,9 C 10,0 C 86 % 1012,6 hPa 0,0 l/m 15,8 km/h (3 Bft) SW 221 0 min 0,000 mm 0,0 UV-I 0 W/m 8,1 C 5,2 C 22,5 km/h (4 Bft) 95,74 %
22.12.2018 04:16 10,3 C 3,9 C 10,0 C 86 % 1012,6 hPa 0,0 l/m 19,5 km/h (3 Bft) W 267 0 min 0,000 mm 0,0 UV-I 0 W/m 8,1 C 3,8 C 30,6 km/h (5 Bft) 95,74 %
22.12.2018 04:18 10,3 C 3,9 C 10,0 C 86 % 1012,6 hPa 0,0 l/m 18,0 km/h (3 Bft) W-SW 250 0 min 0,000 mm 0,0 UV-I 0 W/m 8,1 C 4,3 C 30,6 km/h (5 Bft) 93,62 %
22.12.2018 04:20 10,3 C 3,9 C 10,0 C 86 % 1012,5 hPa 0,0 l/m 23,1 km/h (4 Bft) SW 232 0 min 0,000 mm 0,0 UV-I 0 W/m 8,1 C 2,7 C 33,8 km/h (5 Bft) 95,74 %
22.12.2018 04:22 10,3 C 3,9 C 10,0 C 86 % 1012,5 hPa 0,0 l/m 21,2 km/h (4 Bft) W-SW 244 0 min 0,000 mm 0,0 UV-I 0 W/m 8,1 C 3,3 C 32,2 km/h (5 Bft) 92,00 %
22.12.2018 04:24 10,4 C 3,9 C 10,0 C 86 % 1012,4 hPa 0,0 l/m 20,9 km/h (4 Bft) W-SW 250 0 min 0,000 mm 0,0 UV-I 0 W/m 8,2 C 3,5 C 37,0 km/h (5 Bft) 95,74 %
22.12.2018 04:26 10,4 C 3,9 C 10,0 C 86 % 1012,4 hPa 0,0 l/m 20,7 km/h (4 Bft) W-SW 258 0 min 0,000 mm 0,0 UV-I 0 W/m 8,2 C 3,6 C 30,6 km/h (5 Bft) 93,62 %
22.12.2018 04:28 10,4 C 3,9 C 10,0 C 86 % 1012,4 hPa 0,0 l/m 21,0 km/h (4 Bft) W-SW 240 0 min 0,000 mm 0,0 UV-I 0 W/m 8,2 C 3,5 C 37,0 km/h (5 Bft) 93,62 %
22.12.2018 04:30 10,5 C 3,9 C 10,0 C 86 % 1012,4 hPa 0,0 l/m 21,2 km/h (4 Bft) W-SW 246 0 min 0,000 mm 0,0 UV-I 0 W/m 8,3 C 3,6 C 30,6 km/h (5 Bft) 91,49 %
22.12.2018 04:32 10,4 C 3,9 C 10,0 C 86 % 1012,4 hPa 0,0 l/m 20,6 km/h (4 Bft) SW 231 0 min 0,000 mm 0,0 UV-I 0 W/m 8,2 C 3,6 C 32,2 km/h (5 Bft) 92,00 %
22.12.2018 04:34 10,4 C 3,9 C 10,0 C 86 % 1012,4 hPa 0,0 l/m 23,0 km/h (4 Bft) W-SW 255 0 min 0,000 mm 0,0 UV-I 0 W/m 8,2 C 2,9 C 32,2 km/h (5 Bft) 93,62 %
22.12.2018 04:36 10,4 C 3,9 C 10,0 C 86 % 1012,4 hPa 0,0 l/m 28,0 km/h (4 Bft) W-SW 248 0 min 0,000 mm 0,0 UV-I 0 W/m 8,2 C 1,7 C 35,4 km/h (5 Bft) 96,00 %
22.12.2018 04:38 10,5 C 3,9 C 10,0 C 87 % 1012,4 hPa 0,0 l/m 25,3 km/h (4 Bft) W-SW 241 0 min 0,000 mm 0,0 UV-I 0 W/m 8,4 C 2,4 C 43,5 km/h (6 Bft) 91,49 %
22.12.2018 04:40 10,6 C 3,9 C 10,0 C 87 % 1012,5 hPa 0,0 l/m 30,4 km/h (5 Bft) SW 234 0 min 0,000 mm 0,0 UV-I 0 W/m 8,5 C 1,4 C 41,8 km/h (6 Bft) 94,44 %
22.12.2018 04:42 10,6 C 3,9 C 10,0 C 87 % 1012,4 hPa 0,0 l/m 23,0 km/h (4 Bft) W-SW 243 0 min 0,000 mm 0,0 UV-I 0 W/m 8,5 C 3,2 C 32,2 km/h (5 Bft) 95,74 %
22.12.2018 04:44 10,5 C 3,9 C 10,0 C 87 % 1012,4 hPa 0,0 l/m 22,7 km/h (4 Bft) W-SW 244 0 min 0,000 mm 0,0 UV-I 0 W/m 8,4 C 3,1 C 32,2 km/h (5 Bft) 96,00 %
22.12.2018 04:46 10,5 C 3,9 C 10,0 C 87 % 1012,4 hPa 0,0 l/m 23,2 km/h (4 Bft) W-SW 254 0 min 0,000 mm 0,0 UV-I 0 W/m 8,4 C 3,0 C 32,2 km/h (5 Bft) 93,62 %
22.12.2018 04:48 10,5 C 3,9 C 10,0 C 87 % 1012,4 hPa 0,0 l/m 23,1 km/h (4 Bft) W-SW 252 0 min 0,000 mm 0,0 UV-I 0 W/m 8,4 C 3,0 C 37,0 km/h (5 Bft) 96,00 %
22.12.2018 04:50 10,5 C 3,9 C 10,0 C 87 % 1012,3 hPa 0,0 l/m 24,5 km/h (4 Bft) W-SW 242 0 min 0,000 mm 0,0 UV-I 0 W/m 8,4 C 2,6 C 33,8 km/h (5 Bft) 94,00 %
22.12.2018 04:52 10,4 C 3,9 C 10,0 C 87 % 1012,3 hPa 0,0 l/m 26,8 km/h (4 Bft) W 267 0 min 0,000 mm 0,0 UV-I 0 W/m 8,3 C 1,9 C 40,2 km/h (6 Bft) 89,47 %
22.12.2018 04:54 10,4 C 3,9 C 10,0 C 87 % 1012,3 hPa 0,0 l/m 23,1 km/h (4 Bft) W-SW 252 0 min 0,000 mm 0,0 UV-I 0 W/m 8,3 C 2,9 C 32,2 km/h (5 Bft) 98,00 %
22.12.2018 04:56 10,4 C 3,9 C 10,0 C 87 % 1012,2 hPa 0,0 l/m 22,4 km/h (4 Bft) S-SW 212 0 min 0,000 mm 0,0 UV-I 0 W/m 8,3 C 3,1 C 32,2 km/h (5 Bft) 94,00 %
22.12.2018 04:58 10,4 C 3,9 C 10,0 C 87 % 1012,2 hPa 0,0 l/m 25,3 km/h (4 Bft) W-SW 240 0 min 0,000 mm 0,0 UV-I 0 W/m 8,3 C 2,3 C 38,6 km/h (5 Bft) 96,00 %
22.12.2018 05:00 10,5 C 3,9 C 10,0 C 87 % 1012,2 hPa 0,0 l/m 21,3 km/h (4 Bft) SW 236 0 min 0,026 mm 0,0 UV-I 0 W/m 8,4 C 3,5 C 37,0 km/h (5 Bft) 97,87 %
22.12.2018 05:02 10,4 C 3,9 C 10,0 C 87 % 1012,2 hPa 0,0 l/m 22,1 km/h (4 Bft) W-NW 282 0 min 0,000 mm 0,0 UV-I 0 W/m 8,3 C 3,2 C 30,6 km/h (5 Bft) 95,74 %
22.12.2018 05:04 10,4 C 3,9 C 10,0 C 87 % 1012,2 hPa 0,0 l/m 20,9 km/h (4 Bft) W-SW 245 0 min 0,000 mm 0,0 UV-I 0 W/m 8,3 C 3,5 C 27,4 km/h (4 Bft) 97,14 %
22.12.2018 05:06 10,4 C 3,9 C 10,0 C 87 % 1012,2 hPa 0,0 l/m 20,4 km/h (4 Bft) W-SW 257 0 min 0,000 mm 0,0 UV-I 0 W/m 8,3 C 3,7 C 29,0 km/h (5 Bft) 98,00 %
22.12.2018 05:08 10,4 C 3,9 C 10,0 C 87 % 1012,1 hPa 0,0 l/m 20,1 km/h (4 Bft) SW 235 0 min 0,000 mm 0,0 UV-I 0 W/m 8,3 C 3,8 C 29,0 km/h (5 Bft) 96,23 %
22.12.2018 05:10 10,4 C 3,9 C 10,0 C 87 % 1012,3 hPa 0,0 l/m 21,9 km/h (4 Bft) SW 234 0 min 0,000 mm 0,0 UV-I 0 W/m 8,3 C 3,2 C 32,2 km/h (5 Bft) 95,74 %
22.12.2018 05:12 10,4 C 3,9 C 10,0 C 87 % 1012,2 hPa 0,0 l/m 22,7 km/h (4 Bft) W-SW 251 0 min 0,000 mm 0,0 UV-I 0 W/m 8,3 C 3,0 C 32,2 km/h (5 Bft) 97,14 %
22.12.2018 05:14 10,5 C 3,9 C 10,0 C 87 % 1012,2 hPa 0,0 l/m 19,9 km/h (4 Bft) W-SW 238 0 min 0,000 mm 0,0 UV-I 0 W/m 8,4 C 4,0 C 27,4 km/h (4 Bft) 96,00 %
22.12.2018 05:16 10,4 C 3,9 C 10,0 C 87 % 1012,1 hPa 0,0 l/m 24,6 km/h (4 Bft) W-SW 244 0 min 0,000 mm 0,0 UV-I 0 W/m 8,3 C 2,5 C 38,6 km/h (5 Bft) 95,74 %
22.12.2018 05:18 10,5 C 3,9 C 10,0 C 87 % 1012,2 hPa 0,0 l/m 24,7 km/h (4 Bft) W-SW 253 0 min 0,000 mm 0,0 UV-I 0 W/m 8,4 C 2,6 C 37,0 km/h (5 Bft) 97,92 %
22.12.2018 05:20 10,5 C 3,9 C 10,0 C 87 % 1012,2 hPa 0,0 l/m 24,0 km/h (4 Bft) W-SW 242 0 min 0,000 mm 0,0 UV-I 0 W/m 8,4 C 2,8 C 33,8 km/h (5 Bft) 97,87 %
22.12.2018 05:22 10,6 C 3,9 C 10,0 C 87 % 1012,1 hPa 0,0 l/m 26,5 km/h (4 Bft) W 259 0 min 0,000 mm 0,0 UV-I 0 W/m 8,5 C 2,3 C 40,2 km/h (6 Bft) 97,87 %
22.12.2018 05:24 10,6 C 3,9 C 10,0 C 87 % 1012,2 hPa 0,0 l/m 26,7 km/h (4 Bft) W-SW 243 0 min 0,000 mm 0,0 UV-I 0 W/m 8,5 C 2,2 C 40,2 km/h (6 Bft) 100,00 %
22.12.2018 05:26 10,6 C 3,9 C 10,0 C 87 % 1012,3 hPa 0,0 l/m 24,0 km/h (4 Bft) W-SW 243 0 min 0,000 mm 0,0 UV-I 0 W/m 8,5 C 2,9 C 33,8 km/h (5 Bft) 97,87 %
22.12.2018 05:28 10,5 C 3,9 C 9,4 C 87 % 1012,3 hPa 0,0 l/m 25,9 km/h (4 Bft) W-SW 254 0 min 0,000 mm 0,0 UV-I 0 W/m 8,4 C 2,3 C 43,5 km/h (6 Bft) 100,00 %
22.12.2018 05:30 10,5 C 3,9 C 9,4 C 87 % 1012,3 hPa 0,0 l/m 26,2 km/h (4 Bft) SW 222 0 min 0,000 mm 0,0 UV-I 0 W/m 8,4 C 2,2 C 35,4 km/h (5 Bft) 100,00 %
22.12.2018 05:32 10,5 C 3,9 C 9,4 C 87 % 1012,2 hPa 0,0 l/m 25,0 km/h (4 Bft) W 261 0 min 0,000 mm 0,0 UV-I 0 W/m 8,4 C 2,5 C 33,8 km/h (5 Bft) 100,00 %
22.12.2018 05:34 10,4 C 3,9 C 9,4 C 88 % 1012,2 hPa 0,0 l/m 23,7 km/h (4 Bft) W-SW 246 0 min 0,000 mm 0,0 UV-I 0 W/m 8,5 C 2,7 C 32,2 km/h (5 Bft) 98,00 %
22.12.2018 05:36 10,4 C 3,9 C 9,4 C 88 % 1012,1 hPa 0,0 l/m 24,7 km/h (4 Bft) W-SW 243 0 min 0,000 mm 0,0 UV-I 0 W/m 8,5 C 2,5 C 37,0 km/h (5 Bft) 97,87 %
22.12.2018 05:38 10,3 C 3,9 C 9,4 C 88 % 1012,2 hPa 0,0 l/m 26,0 km/h (4 Bft) W-NW 286 0 min 0,000 mm 0,0 UV-I 0 W/m 8,4 C 2,0 C 43,5 km/h (6 Bft) 94,29 %
22.12.2018 05:40 10,3 C 3,9 C 8,9 C 88 % 1012,2 hPa 0,2 l/m 22,4 km/h (4 Bft) W 263 0 min 0,000 mm 0,0 UV-I 0 W/m 8,4 C 2,9 C 30,6 km/h (5 Bft) 96,00 %
22.12.2018 05:42 10,2 C 3,9 C 8,9 C 89 % 1012,2 hPa 0,0 l/m 23,2 km/h (4 Bft) SW 233 0 min 0,000 mm 0,0 UV-I 0 W/m 8,5 C 2,6 C 37,0 km/h (5 Bft) 100,00 %
22.12.2018 05:44 10,1 C 3,9 C 8,9 C 89 % 1012,2 hPa 0,0 l/m 25,5 km/h (4 Bft) W-SW 258 0 min 0,000 mm 0,0 UV-I 0 W/m 8,4 C 1,8 C 38,6 km/h (5 Bft) 100,00 %
22.12.2018 05:46 10,1 C 3,9 C 8,9 C 89 % 1012,2 hPa 0,2 l/m 22,4 km/h (4 Bft) W-SW 256 0 min 0,000 mm 0,0 UV-I 0 W/m 8,4 C 2,7 C 37,0 km/h (5 Bft) 97,87 %
22.12.2018 05:48 9,9 C 3,9 C 8,9 C 89 % 1012,2 hPa 0,2 l/m 28,0 km/h (4 Bft) W-SW 241 0 min 0,000 mm 0,0 UV-I 0 W/m 8,2 C 1,0 C 43,5 km/h (6 Bft) 100,00 %
22.12.2018 05:50 9,8 C 3,9 C 8,9 C 89 % 1012,3 hPa 0,0 l/m 25,1 km/h (4 Bft) W 275 0 min 0,000 mm 0,0 UV-I 0 W/m 8,1 C 1,5 C 33,8 km/h (5 Bft) 95,74 %
22.12.2018 05:52 9,8 C 3,9 C 8,3 C 90 % 1012,4 hPa 0,2 l/m 28,5 km/h (4 Bft) W 279 0 min 0,000 mm 0,0 UV-I 0 W/m 8,2 C 0,7 C 40,2 km/h (6 Bft) 100,00 %
22.12.2018 05:54 9,7 C 3,9 C 8,3 C 90 % 1012,4 hPa 0,2 l/m 29,9 km/h (5 Bft) W 269 0 min 0,000 mm 0,0 UV-I 0 W/m 8,1 C 0,3 C 46,7 km/h (6 Bft) 95,74 %
22.12.2018 05:56 9,7 C 3,9 C 8,3 C 90 % 1011,9 hPa 0,0 l/m 33,1 km/h (5 Bft) W-SW 257 0 min 0,000 mm 0,0 UV-I 0 W/m 8,1 C -0,4 C 69,2 km/h (8 Bft) 96,23 %
22.12.2018 05:58 9,8 C 3,9 C 8,3 C 89 % 1011,9 hPa 0,2 l/m 36,0 km/h (5 Bft) W-SW 246 0 min 0,000 mm 0,0 UV-I 0 W/m 8,1 C -0,8 C 54,7 km/h (7 Bft) 97,87 %
22.12.2018 06:00 9,8 C 3,9 C 8,3 C 88 % 1011,9 hPa 0,2 l/m 31,8 km/h (5 Bft) W 265 0 min 0,000 mm 0,0 UV-I 0 W/m 7,9 C 0,0 C 53,1 km/h (7 Bft) 97,87 %
22.12.2018 06:02 9,9 C 3,9 C 8,3 C 88 % 1011,9 hPa 0,0 l/m 35,0 km/h (5 Bft) W-SW 255 0 min 0,025 mm 0,0 UV-I 0 W/m 8,0 C -0,5 C 59,5 km/h (7 Bft) 94,87 %
22.12.2018 06:04 9,9 C 3,9 C 8,3 C 88 % 1011,8 hPa 0,2 l/m 35,8 km/h (5 Bft) W-SW 238 0 min 0,000 mm 0,0 UV-I 0 W/m 8,0 C -0,6 C 59,5 km/h (7 Bft) 94,34 %
22.12.2018 06:06 10,1 C 3,9 C 8,9 C 88 % 1011,8 hPa 0,2 l/m 31,1 km/h (5 Bft) W-SW 238 0 min 0,000 mm 0,0 UV-I 0 W/m 8,2 C 0,6 C 57,9 km/h (7 Bft) 94,00 %
22.12.2018 06:08 10,1 C 3,9 C 8,9 C 88 % 1011,9 hPa 0,0 l/m 32,1 km/h (5 Bft) W 269 0 min 0,000 mm 0,0 UV-I 0 W/m 8,2 C 0,4 C 49,9 km/h (6 Bft) 95,74 %
22.12.2018 06:10 10,1 C 3,9 C 8,9 C 88 % 1011,9 hPa 0,2 l/m 36,4 km/h (5 Bft) W 266 0 min 0,000 mm 0,0 UV-I 0 W/m 8,2 C -0,4 C 53,1 km/h (7 Bft) 91,43 %
22.12.2018 06:12 10,1 C 3,9 C 8,9 C 89 % 1011,9 hPa 0,0 l/m 29,9 km/h (5 Bft) W 267 0 min 0,000 mm 0,0 UV-I 0 W/m 8,4 C 0,8 C 45,1 km/h (6 Bft) 96,00 %
22.12.2018 06:14 10,0 C 3,9 C 8,9 C 89 % 1011,8 hPa 0,2 l/m 28,0 km/h (4 Bft) W-SW 238 0 min 0,000 mm 0,0 UV-I 0 W/m 8,3 C 1,1 C 45,1 km/h (6 Bft) 95,74 %
22.12.2018 06:16 9,9 C 3,9 C 8,9 C 89 % 1011,8 hPa 0,0 l/m 19,4 km/h (3 Bft) W 260 0 min 0,000 mm 0,0 UV-I 0 W/m 8,2 C 3,4 C 29,0 km/h (5 Bft) 95,74 %
22.12.2018 06:18 9,9 C 3,9 C 8,9 C 90 % 1011,8 hPa 0,0 l/m 23,6 km/h (4 Bft) W-SW 250 0 min 0,000 mm 0,0 UV-I 0 W/m 8,3 C 2,1 C 33,8 km/h (5 Bft) 97,87 %
22.12.2018 06:20 9,8 C 3,9 C 8,9 C 90 % 1011,6 hPa 0,0 l/m 18,5 km/h (3 Bft) W 272 0 min 0,000 mm 0,0 UV-I 0 W/m 8,2 C 3,5 C 24,1 km/h (4 Bft) 96,00 %
22.12.2018 06:22 9,7 C 3,9 C 8,3 C 90 % 1011,7 hPa 0,0 l/m 16,8 km/h (3 Bft) SW 225 0 min 0,000 mm 0,0 UV-I 0 W/m 8,1 C 4,0 C 25,7 km/h (4 Bft) 94,00 %
22.12.2018 06:24 9,6 C 3,9 C 8,3 C 91 % 1011,7 hPa 0,2 l/m 14,7 km/h (3 Bft) SW 231 0 min 0,000 mm 0,0 UV-I 0 W/m 8,2 C 4,8 C 22,5 km/h (4 Bft) 97,87 %
22.12.2018 06:26 9,5 C 3,9 C 8,3 C 91 % 1011,6 hPa 0,2 l/m 13,9 km/h (3 Bft) W-SW 246 0 min 0,000 mm 0,0 UV-I 0 W/m 8,1 C 5,0 C 24,1 km/h (4 Bft) 97,37 %
22.12.2018 06:28 9,4 C 3,9 C 8,3 C 91 % 1011,6 hPa 0,0 l/m 15,3 km/h (3 Bft) W-SW 244 0 min 0,000 mm 0,0 UV-I 0 W/m 8,0 C 4,3 C 24,1 km/h (4 Bft) 97,87 %
22.12.2018 06:30 9,4 C 3,9 C 8,3 C 92 % 1011,8 hPa 0,0 l/m 14,3 km/h (3 Bft) W 273 0 min 0,000 mm 0,0 UV-I 0 W/m 8,2 C 4,7 C 19,3 km/h (3 Bft) 97,87 %
22.12.2018 06:32 9,3 C 3,9 C 8,3 C 92 % 1011,8 hPa 0,0 l/m 13,3 km/h (3 Bft) W-SW 254 0 min 0,000 mm 0,0 UV-I 0 W/m 8,1 C 5,1 C 16,1 km/h (3 Bft) 97,87 %
22.12.2018 06:34 9,3 C 3,9 C 8,3 C 92 % 1011,9 hPa 0,0 l/m 13,0 km/h (3 Bft) W 270 0 min 0,000 mm 0,0 UV-I 0 W/m 8,1 C 5,2 C 17,7 km/h (3 Bft) 97,87 %
22.12.2018 06:36 9,3 C 3,9 C 8,3 C 92 % 1011,8 hPa 0,0 l/m 11,4 km/h (2 Bft) W-SW 250 0 min 0,000 mm 0,0 UV-I 0 W/m 8,1 C 6,0 C 16,1 km/h (3 Bft) 95,83 %
22.12.2018 06:38 9,2 C 3,9 C 8,3 C 92 % 1011,9 hPa 0,0 l/m 13,2 km/h (3 Bft) W 273 0 min 0,000 mm 0,0 UV-I 0 W/m 8,0 C 5,0 C 17,7 km/h (3 Bft) 97,87 %
22.12.2018 06:40 9,2 C 3,9 C 8,3 C 93 % 1011,8 hPa 0,0 l/m 11,1 km/h (2 Bft) W-SW 257 0 min 0,000 mm 0,0 UV-I 0 W/m 8,1 C 6,1 C 17,7 km/h (3 Bft) 98,00 %
22.12.2018 06:42 9,2 C 3,9 C 8,3 C 93 % 1011,8 hPa 0,2 l/m 11,1 km/h (2 Bft) W 263 0 min 0,000 mm 0,0 UV-I 0 W/m 8,1 C 6,1 C 14,5 km/h (3 Bft) 100,00 %
22.12.2018 06:44 9,2 C 3,9 C 8,3 C 93 % 1011,7 hPa 0,0 l/m 10,3 km/h (2 Bft) SW 236 0 min 0,000 mm 0,0 UV-I 0 W/m 8,1 C 6,5 C 16,1 km/h (3 Bft) 100,00 %
22.12.2018 06:46 9,1 C 3,9 C 8,3 C 93 % 1011,7 hPa 0,2 l/m 10,1 km/h (2 Bft) SW 215 0 min 0,000 mm 0,0 UV-I 0 W/m 8,0 C 6,5 C 16,1 km/h (3 Bft) 100,00 %
22.12.2018 06:48 9,1 C 3,9 C 8,3 C 94 % 1011,6 hPa 0,0 l/m 10,2 km/h (2 Bft) SW 221 0 min 0,000 mm 0,0 UV-I 0 W/m 8,2 C 6,5 C 16,1 km/h (3 Bft) 100,00 %
22.12.2018 06:50 9,1 C 3,9 C 8,3 C 94 % 1011,7 hPa 0,0 l/m 10,6 km/h (2 Bft) SW 236 0 min 0,000 mm 0,0 UV-I 0 W/m 8,2 C 6,2 C 16,1 km/h (3 Bft) 100,00 %
22.12.2018 06:52 9,1 C 3,9 C 8,3 C 94 % 1011,6 hPa 0,0 l/m 11,7 km/h (2 Bft) W 266 0 min 0,000 mm 0,0 UV-I 0 W/m 8,2 C 5,6 C 17,7 km/h (3 Bft) 100,00 %
22.12.2018 06:54 9,1 C 3,9 C 8,3 C 94 % 1011,5 hPa 0,0 l/m 13,6 km/h (3 Bft) W-SW 243 0 min 0,000 mm 0,0 UV-I 0 W/m 8,2 C 4,7 C 24,1 km/h (4 Bft) 100,00 %
22.12.2018 06:56 9,2 C 3,9 C 8,3 C 94 % 1011,5 hPa 0,0 l/m 10,7 km/h (2 Bft) W-SW 240 0 min 0,000 mm 0,0 UV-I 0 W/m 8,3 C 6,3 C 19,3 km/h (3 Bft) 100,00 %
22.12.2018 06:58 9,2 C 3,9 C 8,3 C 94 % 1011,5 hPa 0,0 l/m 14,0 km/h (3 Bft) W 264 0 min 0,000 mm 0,0 UV-I 0 W/m 8,3 C 4,6 C 20,9 km/h (4 Bft) 98,00 %
22.12.2018 07:00 9,2 C 3,9 C 8,3 C 94 % 1011,5 hPa 0,0 l/m 15,5 km/h (3 Bft) SW 236 0 min 0,025 mm 0,0 UV-I 0 W/m 8,3 C 4,0 C 22,5 km/h (4 Bft) 100,00 %
22.12.2018 07:02 9,3 C 3,9 C 8,3 C 94 % 1011,4 hPa 0,0 l/m 14,8 km/h (3 Bft) W-SW 246 0 min 0,000 mm 0,0 UV-I 0 W/m 8,4 C 4,4 C 20,9 km/h (4 Bft) 100,00 %
22.12.2018 07:04 9,3 C 3,9 C 8,9 C 94 % 1011,4 hPa 0,2 l/m 14,0 km/h (3 Bft) SW 236 0 min 0,000 mm 0,0 UV-I 0 W/m 8,4 C 4,7 C 20,9 km/h (4 Bft) 100,00 %
22.12.2018 07:06 9,3 C 3,9 C 8,3 C 94 % 1011,4 hPa 0,0 l/m 13,8 km/h (3 Bft) SW 232 0 min 0,000 mm 0,0 UV-I 0 W/m 8,4 C 4,8 C 22,5 km/h (4 Bft) 100,00 %
22.12.2018 07:08 9,3 C 3,9 C 8,3 C 94 % 1011,4 hPa 0,0 l/m 14,5 km/h (3 Bft) SW 232 0 min 0,000 mm 0,0 UV-I 0 W/m 8,4 C 4,5 C 20,9 km/h (4 Bft) 100,00 %
22.12.2018 07:10 9,4 C 3,9 C 8,9 C 94 % 1011,4 hPa 0,0 l/m 15,4 km/h (3 Bft) W-SW 243 0 min 0,000 mm 0,0 UV-I 0 W/m 8,5 C 4,2 C 25,7 km/h (4 Bft) 100,00 %
22.12.2018 07:12 9,4 C 3,9 C 8,9 C 94 % 1011,3 hPa 0,0 l/m 14,6 km/h (3 Bft) W-SW 240 0 min 0,000 mm 0,0 UV-I 0 W/m 8,5 C 4,6 C 20,9 km/h (4 Bft) 100,00 %
22.12.2018 07:14 9,4 C 3,9 C 8,9 C 94 % 1011,3 hPa 0,0 l/m 13,5 km/h (3 Bft) S-SW 209 0 min 0,000 mm 0,0 UV-I 0 W/m 8,5 C 5,1 C 20,9 km/h (4 Bft) 97,87 %
22.12.2018 07:16 9,4 C 3,9 C 8,3 C 94 % 1011,3 hPa 0,0 l/m 14,4 km/h (3 Bft) W-SW 257 0 min 0,000 mm 0,0 UV-I 0 W/m 8,5 C 4,7 C 22,5 km/h (4 Bft) 100,00 %
22.12.2018 07:18 9,4 C 3,9 C 8,3 C 94 % 1011,2 hPa 0,0 l/m 12,4 km/h (3 Bft) SW 234 0 min 0,000 mm 0,0 UV-I 0 W/m 8,5 C 5,6 C 19,3 km/h (3 Bft) 95,74 %
22.12.2018 07:20 9,4 C 3,9 C 8,3 C 94 % 1011,2 hPa 0,0 l/m 14,9 km/h (3 Bft) SW 231 0 min 0,000 mm 0,0 UV-I 0 W/m 8,5 C 4,5 C 24,1 km/h (4 Bft) 95,74 %
22.12.2018 07:22 9,4 C 3,9 C 8,3 C 94 % 1011,2 hPa 0,0 l/m 13,4 km/h (3 Bft) S-SW 196 0 min 0,000 mm 0,0 UV-I 0 W/m 8,5 C 5,1 C 20,9 km/h (4 Bft) 95,74 %
22.12.2018 07:24 9,4 C 3,9 C 8,3 C 94 % 1011,2 hPa 0,0 l/m 17,0 km/h (3 Bft) W-SW 241 0 min 0,000 mm 0,0 UV-I 0 W/m 8,5 C 3,6 C 25,7 km/h (4 Bft) 98,00 %
22.12.2018 07:26 9,4 C 3,9 C 8,3 C 94 % 1011,2 hPa 0,0 l/m 14,1 km/h (3 Bft) SW 218 0 min 0,000 mm 0,0 UV-I 0 W/m 8,5 C 4,8 C 19,3 km/h (3 Bft) 98,00 %
22.12.2018 07:28 9,5 C 3,9 C 8,9 C 94 % 1011,2 hPa 0,0 l/m 16,0 km/h (3 Bft) SW 236 0 min 0,000 mm 0,0 UV-I 0 W/m 8,6 C 4,1 C 25,7 km/h (4 Bft) 93,62 %
22.12.2018 07:30 9,5 C 3,9 C 8,9 C 94 % 1011,2 hPa 0,0 l/m 19,1 km/h (3 Bft) W-SW 240 0 min 0,000 mm 0,0 UV-I 0 W/m 8,6 C 2,9 C 25,7 km/h (4 Bft) 95,74 %
22.12.2018 07:32 9,6 C 3,9 C 8,9 C 93 % 1011,2 hPa 0,0 l/m 16,9 km/h (3 Bft) S 174 0 min 0,000 mm 0,0 UV-I 0 W/m 8,5 C 3,9 C 25,7 km/h (4 Bft) 97,87 %
22.12.2018 07:34 9,6 C 3,9 C 8,3 C 93 % 1011,3 hPa 0,0 l/m 19,7 km/h (3 Bft) SW 221 0 min 0,000 mm 0,0 UV-I 0 W/m 8,5 C 2,9 C 32,2 km/h (5 Bft) 95,74 %
22.12.2018 07:36 9,6 C 3,9 C 8,3 C 93 % 1011,2 hPa 0,0 l/m 16,9 km/h (3 Bft) S-SW 203 0 min 0,000 mm 0,0 UV-I 0 W/m 8,5 C 3,9 C 27,4 km/h (4 Bft) 97,87 %
22.12.2018 07:38 9,6 C 3,9 C 8,9 C 93 % 1011,3 hPa 0,0 l/m 18,0 km/h (3 Bft) SW 221 0 min 0,000 mm 0,0 UV-I 0 W/m 8,5 C 3,5 C 24,1 km/h (4 Bft) 100,00 %
22.12.2018 07:40 9,7 C 3,9 C 8,9 C 92 % 1011,3 hPa 0,0 l/m 25,6 km/h (4 Bft) SW 236 0 min 0,000 mm 0,0 UV-I 0 W/m 8,5 C 1,3 C 37,0 km/h (5 Bft) 100,00 %
22.12.2018 07:42 9,8 C 3,9 C 8,9 C 92 % 1011,3 hPa 0,0 l/m 30,2 km/h (5 Bft) SW 234 0 min 0,000 mm 0,0 UV-I 0 W/m 8,6 C 0,3 C 49,9 km/h (6 Bft) 98,00 %
22.12.2018 07:44 9,8 C 3,9 C 8,9 C 91 % 1011,3 hPa 0,0 l/m 27,3 km/h (4 Bft) SW 233 0 min 0,000 mm 0,0 UV-I 0 W/m 8,4 C 1,0 C 43,5 km/h (6 Bft) 100,00 %
22.12.2018 07:46 9,9 C 3,9 C 8,9 C 91 % 1011,4 hPa 0,0 l/m 31,4 km/h (5 Bft) W 272 0 min 0,000 mm 0,0 UV-I 0 W/m 8,5 C 0,2 C 45,1 km/h (6 Bft) 100,00 %
22.12.2018 07:48 10,0 C 3,9 C 8,9 C 90 % 1011,5 hPa 0,0 l/m 24,9 km/h (4 Bft) W-SW 242 0 min 0,000 mm 0,0 UV-I 5 W/m 8,4 C 1,9 C 38,6 km/h (5 Bft) 100,00 %
22.12.2018 07:50 10,1 C 3,9 C 8,9 C 89 % 1011,5 hPa 0,0 l/m 28,9 km/h (5 Bft) SW 231 0 min 0,000 mm 0,0 UV-I 5 W/m 8,4 C 1,0 C 45,1 km/h (6 Bft) 100,00 %
22.12.2018 07:52 10,1 C 3,9 C 8,9 C 89 % 1011,5 hPa 0,0 l/m 32,7 km/h (5 Bft) W-SW 241 0 min 0,000 mm 0,0 UV-I 5 W/m 8,4 C 0,3 C 48,3 km/h (6 Bft) 100,00 %
22.12.2018 07:54 10,2 C 3,9 C 8,9 C 88 % 1011,6 hPa 0,0 l/m 27,7 km/h (4 Bft) W-SW 247 0 min 0,000 mm 0,0 UV-I 5 W/m 8,3 C 1,4 C 37,0 km/h (5 Bft) 97,92 %
22.12.2018 07:56 10,3 C 3,9 C 8,9 C 87 % 1011,8 hPa 0,0 l/m 29,0 km/h (5 Bft) W-SW 250 0 min 0,000 mm 0,0 UV-I 6 W/m 8,2 C 1,3 C 46,7 km/h (6 Bft) 100,00 %
22.12.2018 07:58 10,4 C 3,9 C 8,9 C 87 % 1011,8 hPa 0,0 l/m 27,8 km/h (4 Bft) W 267 0 min 0,000 mm 0,0 UV-I 7 W/m 8,3 C 1,7 C 43,5 km/h (6 Bft) 100,00 %
22.12.2018 08:00 10,5 C 3,9 C 8,9 C 86 % 1012,0 hPa 0,0 l/m 29,4 km/h (5 Bft) W 265 0 min 0,026 mm 0,0 UV-I 5 W/m 8,3 C 1,5 C 48,3 km/h (6 Bft) 100,00 %
22.12.2018 08:02 10,6 C 3,9 C 8,9 C 86 % 1012,2 hPa 0,0 l/m 28,0 km/h (4 Bft) W 263 0 min 0,000 mm 0,0 UV-I 6 W/m 8,4 C 1,9 C 43,5 km/h (6 Bft) 97,87 %
22.12.2018 08:04 10,6 C 3,9 C 8,9 C 86 % 1012,3 hPa 0,0 l/m 18,9 km/h (3 Bft) W 273 0 min 0,000 mm 0,0 UV-I 7 W/m 8,4 C 4,4 C 27,4 km/h (4 Bft) 100,00 %
22.12.2018 08:06 10,5 C 3,9 C 8,9 C 86 % 1012,3 hPa 0,0 l/m 19,1 km/h (3 Bft) W 265 0 min 0,000 mm 0,0 UV-I 7 W/m 8,3 C 4,2 C 32,2 km/h (5 Bft) 100,00 %
22.12.2018 08:08 10,4 C 3,9 C 8,9 C 86 % 1012,4 hPa 0,0 l/m 16,2 km/h (3 Bft) W-NW 288 0 min 0,000 mm 0,0 UV-I 5 W/m 8,2 C 5,1 C 25,7 km/h (4 Bft) 95,74 %
22.12.2018 08:10 10,3 C 3,9 C 8,9 C 86 % 1012,7 hPa 0,0 l/m 8,9 km/h (2 Bft) W-NW 291 0 min 0,000 mm 0,0 UV-I 5 W/m 8,1 C 8,6 C 14,5 km/h (3 Bft) 100,00 %
22.12.2018 08:12 10,3 C 3,9 C 8,9 C 87 % 1012,7 hPa 0,0 l/m 7,7 km/h (2 Bft) NW 315 0 min 0,000 mm 0,0 UV-I 5 W/m 8,2 C 9,4 C 16,1 km/h (3 Bft) 95,74 %
22.12.2018 08:14 10,1 C 3,9 C 8,9 C 87 % 1012,8 hPa 0,0 l/m 9,2 km/h (2 Bft) NW 313 0 min 0,000 mm 0,0 UV-I 5 W/m 8,0 C 8,2 C 19,3 km/h (3 Bft) 93,62 %
22.12.2018 08:16 9,9 C 3,9 C 8,3 C 88 % 1012,8 hPa 0,0 l/m 8,3 km/h (2 Bft) NW 307 0 min 0,000 mm 0,0 UV-I 5 W/m 8,0 C 8,5 C 16,1 km/h (3 Bft) 93,62 %
22.12.2018 08:18 9,7 C 3,9 C 8,3 C 89 % 1012,9 hPa 0,0 l/m 8,4 km/h (2 Bft) W 264 0 min 0,000 mm 0,0 UV-I 5 W/m 8,0 C 8,3 C 20,9 km/h (4 Bft) 95,74 %
22.12.2018 08:20 9,6 C 3,9 C 8,3 C 89 % 1012,9 hPa 0,0 l/m 9,5 km/h (2 Bft) NW 307 0 min 0,000 mm 0,0 UV-I 7 W/m 7,9 C 7,5 C 17,7 km/h (3 Bft) 92,00 %
22.12.2018 08:22 9,5 C 3,9 C 8,3 C 89 % 1012,8 hPa 0,0 l/m 12,7 km/h (3 Bft) W 278 0 min 0,000 mm 0,0 UV-I 7 W/m 7,8 C 5,6 C 24,1 km/h (4 Bft) 91,49 %
22.12.2018 08:24 9,4 C 3,9 C 8,3 C 89 % 1012,9 hPa 0,0 l/m 13,6 km/h (3 Bft) W-NW 290 0 min 0,000 mm 0,0 UV-I 10 W/m 7,7 C 5,0 C 24,1 km/h (4 Bft) 95,74 %
22.12.2018 08:26 9,4 C 3,9 C 8,3 C 90 % 1012,8 hPa 0,0 l/m 5,8 km/h (2 Bft) NW 324 0 min 0,000 mm 0,0 UV-I 18 W/m 7,8 C 9,4 C 16,1 km/h (3 Bft) 95,74 %
22.12.2018 08:28 9,3 C 3,9 C 8,3 C 90 % 1012,7 hPa 0,0 l/m 12,1 km/h (2 Bft) W-NW 283 0 min 0,000 mm 0,0 UV-I 26 W/m 7,7 C 5,7 C 17,7 km/h (3 Bft) 95,74 %
22.12.2018 08:30 9,3 C 3,9 C 8,3 C 90 % 1012,7 hPa 0,0 l/m 7,6 km/h (2 Bft) W-NW 303 0 min 0,000 mm 0,0 UV-I 30 W/m 7,7 C 8,4 C 14,5 km/h (3 Bft) 91,49 %
22.12.2018 08:32 9,3 C 3,9 C 8,3 C 90 % 1012,7 hPa 0,0 l/m 8,1 km/h (2 Bft) W 280 0 min 0,000 mm 0,0 UV-I 39 W/m 7,7 C 8,0 C 17,7 km/h (3 Bft) 93,62 %
22.12.2018 08:34 9,3 C 3,9 C 8,3 C 90 % 1012,6 hPa 0,0 l/m 8,5 km/h (2 Bft) W 267 2 min 0,000 mm 0,0 UV-I 50 W/m 7,7 C 7,8 C 17,7 km/h (3 Bft) 94,87 %
22.12.2018 08:36 9,3 C 3,9 C 8,3 C 90 % 1012,6 hPa 0,0 l/m 7,3 km/h (2 Bft) W 268 2 min 0,000 mm 0,0 UV-I 59 W/m 7,7 C 8,6 C 12,9 km/h (3 Bft) 93,62 %
22.12.2018 08:38 9,3 C 3,9 C 8,3 C 90 % 1012,7 hPa 0,0 l/m 8,9 km/h (2 Bft) W 272 2 min 0,000 mm 0,0 UV-I 70 W/m 7,7 C 7,5 C 12,9 km/h (3 Bft) 91,49 %
22.12.2018 08:40 9,3 C 3,9 C 8,9 C 90 % 1012,7 hPa 0,0 l/m 6,7 km/h (2 Bft) W 261 2 min 0,000 mm 0,0 UV-I 55 W/m 7,7 C 9,1 C 12,9 km/h (3 Bft) 89,36 %
22.12.2018 08:42 9,3 C 3,9 C 8,9 C 90 % 1012,6 hPa 0,0 l/m 8,3 km/h (2 Bft) W 263 0 min 0,000 mm 0,0 UV-I 41 W/m 7,7 C 7,9 C 11,3 km/h (2 Bft) 90,00 %
22.12.2018 08:44 9,3 C 3,9 C 8,3 C 90 % 1012,6 hPa 0,0 l/m 7,0 km/h (2 Bft) W-SW 240 0 min 0,000 mm 0,0 UV-I 31 W/m 7,7 C 8,9 C 11,3 km/h (2 Bft) 92,00 %
22.12.2018 08:46 9,3 C 3,9 C 8,9 C 90 % 1012,6 hPa 0,0 l/m 6,3 km/h (2 Bft) W-SW 242 0 min 0,000 mm 0,0 UV-I 31 W/m 7,7 C 9,3 C 11,3 km/h (2 Bft) 91,49 %
22.12.2018 08:48 9,3 C 3,9 C 8,9 C 90 % 1012,5 hPa 0,0 l/m 7,5 km/h (2 Bft) W-SW 240 0 min 0,000 mm 0,0 UV-I 49 W/m 7,7 C 8,5 C 11,3 km/h (2 Bft) 97,14 %
22.12.2018 08:50 9,3 C 3,9 C 8,9 C 90 % 1012,5 hPa 0,0 l/m 5,6 km/h (1 Bft) W-SW 254 0 min 0,000 mm 0,0 UV-I 54 W/m 7,7 C 9,3 C 9,7 km/h (2 Bft) 94,00 %
22.12.2018 08:52 9,3 C 3,9 C 8,9 C 91 % 1012,4 hPa 0,0 l/m 7,1 km/h (2 Bft) W-SW 254 0 min 0,000 mm 0,0 UV-I 57 W/m 7,9 C 8,8 C 12,9 km/h (3 Bft) 93,62 %
22.12.2018 08:54 9,3 C 3,9 C 8,9 C 91 % 1012,6 hPa 0,0 l/m 8,2 km/h (2 Bft) W-SW 242 0 min 0,000 mm 0,0 UV-I 57 W/m 7,9 C 8,0 C 14,5 km/h (3 Bft) 93,62 %
22.12.2018 08:56 9,4 C 3,9 C 8,9 C 91 % 1012,7 hPa 0,0 l/m 7,4 km/h (2 Bft) W 266 0 min 0,000 mm 0,0 UV-I 55 W/m 8,0 C 8,7 C 11,3 km/h (2 Bft) 89,36 %
22.12.2018 08:58 9,4 C 3,9 C 8,9 C 91 % 1012,6 hPa 0,0 l/m 6,7 km/h (2 Bft) W-SW 238 0 min 0,000 mm 0,0 UV-I 49 W/m 8,0 C 9,2 C 11,3 km/h (2 Bft) 93,62 %
22.12.2018 09:00 9,3 C 3,9 C 8,9 C 91 % 1012,7 hPa 0,0 l/m 6,9 km/h (2 Bft) W 261 0 min 0,025 mm 0,0 UV-I 52 W/m 7,9 C 8,9 C 11,3 km/h (2 Bft) 95,74 %
22.12.2018 09:02 9,3 C 3,9 C 8,9 C 91 % 1012,7 hPa 0,0 l/m 6,8 km/h (2 Bft) SW 222 0 min 0,000 mm 0,0 UV-I 50 W/m 7,9 C 9,0 C 11,3 km/h (2 Bft) 95,74 %
22.12.2018 09:04 9,3 C 3,9 C 8,9 C 92 % 1012,6 hPa 0,0 l/m 11,2 km/h (2 Bft) W 265 0 min 0,000 mm 0,0 UV-I 50 W/m 8,1 C 6,1 C 17,7 km/h (3 Bft) 96,00 %
22.12.2018 09:06 9,5 C 3,9 C 8,9 C 91 % 1012,6 hPa 0,0 l/m 11,9 km/h (2 Bft) W 271 0 min 0,000 mm 0,0 UV-I 46 W/m 8,1 C 6,0 C 17,7 km/h (3 Bft) 97,87 %
22.12.2018 09:08 9,7 C 3,9 C 8,9 C 90 % 1012,7 hPa 0,0 l/m 17,2 km/h (3 Bft) W-SW 252 0 min 0,000 mm 0,0 UV-I 45 W/m 8,1 C 3,9 C 27,4 km/h (4 Bft) 93,62 %
22.12.2018 09:10 9,9 C 3,9 C 8,9 C 89 % 1012,6 hPa 0,0 l/m 19,3 km/h (3 Bft) SW 232 0 min 0,000 mm 0,0 UV-I 44 W/m 8,2 C 3,4 C 29,0 km/h (5 Bft) 97,92 %
22.12.2018 09:12 10,2 C 3,9 C 8,9 C 88 % 1012,6 hPa 0,0 l/m 14,6 km/h (3 Bft) SW 234 0 min 0,000 mm 0,0 UV-I 40 W/m 8,3 C 5,5 C 32,2 km/h (5 Bft) 97,87 %
22.12.2018 09:14 10,3 C 3,9 C 8,9 C 86 % 1012,6 hPa 0,0 l/m 20,2 km/h (4 Bft) SW 222 0 min 0,000 mm 0,0 UV-I 46 W/m 8,1 C 3,6 C 29,0 km/h (5 Bft) 93,62 %
22.12.2018 09:16 10,4 C 3,9 C 9,4 C 86 % 1012,6 hPa 0,0 l/m 21,3 km/h (4 Bft) W 259 0 min 0,000 mm 0,0 UV-I 58 W/m 8,2 C 3,4 C 38,6 km/h (5 Bft) 95,74 %
22.12.2018 09:18 10,6 C 3,9 C 9,4 C 84 % 1012,6 hPa 0,0 l/m 22,2 km/h (4 Bft) W 269 0 min 0,000 mm 0,0 UV-I 69 W/m 8,0 C 3,4 C 30,6 km/h (5 Bft) 94,29 %
22.12.2018 09:20 10,8 C 3,9 C 9,4 C 83 % 1012,6 hPa 0,0 l/m 24,7 km/h (4 Bft) W-SW 257 0 min 0,000 mm 0,0 UV-I 75 W/m 8,0 C 3,0 C 37,0 km/h (5 Bft) 96,77 %
22.12.2018 09:22 10,9 C 3,9 C 9,4 C 82 % 1012,4 hPa 0,0 l/m 24,7 km/h (4 Bft) W 269 0 min 0,000 mm 0,0 UV-I 70 W/m 7,9 C 3,1 C 38,6 km/h (5 Bft) 97,87 %
22.12.2018 09:24 11,1 C 3,9 C 9,4 C 81 % 1012,4 hPa 0,0 l/m 24,7 km/h (4 Bft) W 277 0 min 0,000 mm 0,0 UV-I 53 W/m 8,0 C 3,4 C 38,6 km/h (5 Bft) 100,00 %
22.12.2018 09:26 11,2 C 3,9 C 9,4 C 80 % 1012,4 hPa 0,0 l/m 27,2 km/h (4 Bft) SW 229 0 min 0,000 mm 0,0 UV-I 46 W/m 7,9 C 2,9 C 45,1 km/h (6 Bft) 100,00 %
22.12.2018 09:28 11,3 C 3,9 C 9,4 C 79 % 1012,3 hPa 0,0 l/m 29,5 km/h (5 Bft) W-SW 257 0 min 0,000 mm 0,0 UV-I 43 W/m 7,8 C 2,6 C 49,9 km/h (6 Bft) 95,74 %
22.12.2018 09:30 11,4 C 3,9 C 9,4 C 78 % 1012,5 hPa 0,0 l/m 22,9 km/h (4 Bft) W 260 0 min 0,000 mm 0,0 UV-I 48 W/m 7,7 C 4,3 C 35,4 km/h (5 Bft) 100,00 %
22.12.2018 09:32 11,6 C 3,9 C 10,0 C 78 % 1012,5 hPa 0,0 l/m 20,4 km/h (4 Bft) W-NW 298 0 min 0,000 mm 0,0 UV-I 52 W/m 7,9 C 5,2 C 30,6 km/h (5 Bft) 97,87 %
22.12.2018 09:34 11,6 C 3,9 C 10,0 C 77 % 1012,5 hPa 0,0 l/m 28,4 km/h (4 Bft) W 261 0 min 0,000 mm 0,0 UV-I 46 W/m 7,7 C 3,2 C 43,5 km/h (6 Bft) 95,12 %
22.12.2018 09:36 11,7 C 3,9 C 10,0 C 77 % 1012,5 hPa 0,0 l/m 26,0 km/h (4 Bft) W-NW 286 0 min 0,000 mm 0,0 UV-I 43 W/m 7,8 C 3,9 C 38,6 km/h (5 Bft) 100,00 %
22.12.2018 09:38 11,7 C 3,9 C 10,0 C 77 % 1012,5 hPa 0,0 l/m 23,2 km/h (4 Bft) W 259 0 min 0,000 mm 0,0 UV-I 46 W/m 7,8 C 4,6 C 33,8 km/h (5 Bft) 100,00 %
22.12.2018 09:40 11,8 C 3,9 C 10,0 C 76 % 1012,5 hPa 0,0 l/m 22,1 km/h (4 Bft) W-SW 239 0 min 0,000 mm 0,0 UV-I 57 W/m 7,7 C 5,0 C 32,2 km/h (5 Bft) 93,62 %
22.12.2018 09:42 11,8 C 3,9 C 10,6 C 76 % 1012,6 hPa 0,0 l/m 23,3 km/h (4 Bft) W-SW 249 0 min 0,000 mm 0,0 UV-I 66 W/m 7,7 C 4,7 C 33,8 km/h (5 Bft) 100,00 %
22.12.2018 09:44 11,8 C 3,9 C 10,6 C 76 % 1012,5 hPa 0,0 l/m 22,1 km/h (4 Bft) W 261 0 min 0,000 mm 0,0 UV-I 61 W/m 7,7 C 5,0 C 32,2 km/h (5 Bft) 100,00 %
22.12.2018 09:46 11,8 C 3,9 C 10,0 C 76 % 1012,6 hPa 0,0 l/m 20,6 km/h (4 Bft) W 271 0 min 0,000 mm 0,0 UV-I 50 W/m 7,7 C 5,4 C 29,0 km/h (5 Bft) 100,00 %
22.12.2018 09:48 11,8 C 3,9 C 10,0 C 76 % 1012,7 hPa 0,0 l/m 23,5 km/h (4 Bft) W 260 0 min 0,000 mm 0,0 UV-I 47 W/m 7,7 C 4,6 C 40,2 km/h (6 Bft) 100,00 %
22.12.2018 09:50 11,8 C 3,9 C 10,6 C 76 % 1012,8 hPa 0,0 l/m 19,2 km/h (3 Bft) W-SW 243 0 min 0,000 mm 0,0 UV-I 61 W/m 7,7 C 5,9 C 25,7 km/h (4 Bft) 100,00 %
22.12.2018 09:52 11,8 C 3,9 C 10,6 C 76 % 1012,8 hPa 0,0 l/m 18,7 km/h (3 Bft) W 259 0 min 0,000 mm 0,0 UV-I 66 W/m 7,7 C 6,0 C 29,0 km/h (5 Bft) 100,00 %
22.12.2018 09:54 11,8 C 3,9 C 10,6 C 77 % 1012,9 hPa 0,0 l/m 15,0 km/h (3 Bft) W 268 0 min 0,000 mm 0,0 UV-I 50 W/m 7,9 C 7,3 C 22,5 km/h (4 Bft) 100,00 %
22.12.2018 09:56 11,7 C 3,9 C 10,6 C 77 % 1012,9 hPa 0,0 l/m 16,8 km/h (3 Bft) W 260 0 min 0,000 mm 0,0 UV-I 46 W/m 7,8 C 6,5 C 24,1 km/h (4 Bft) 100,00 %
22.12.2018 09:58 11,7 C 3,9 C 10,6 C 77 % 1013,0 hPa 0,0 l/m 17,0 km/h (3 Bft) W 277 0 min 0,000 mm 0,0 UV-I 46 W/m 7,8 C 6,5 C 25,7 km/h (4 Bft) 100,00 %
22.12.2018 10:00 11,7 C 3,9 C 10,6 C 77 % 1012,9 hPa 0,0 l/m 17,0 km/h (3 Bft) W 259 0 min 0,076 mm 0,0 UV-I 53 W/m 7,8 C 6,5 C 27,4 km/h (4 Bft) 100,00 %
22.12.2018 10:02 11,7 C 3,9 C 10,6 C 77 % 1013,0 hPa 0,0 l/m 18,4 km/h (3 Bft) W 260 0 min 0,000 mm 0,0 UV-I 52 W/m 7,8 C 6,0 C 27,4 km/h (4 Bft) 97,87 %
22.12.2018 10:04 11,7 C 3,9 C 10,6 C 77 % 1013,0 hPa 0,0 l/m 15,4 km/h (3 Bft) W 269 0 min 0,000 mm 0,0 UV-I 63 W/m 7,8 C 7,0 C 24,1 km/h (4 Bft) 95,74 %
22.12.2018 10:06 11,6 C 3,9 C 10,6 C 77 % 1013,1 hPa 0,0 l/m 17,7 km/h (3 Bft) SW 236 0 min 0,000 mm 0,0 UV-I 91 W/m 7,7 C 6,1 C 22,5 km/h (4 Bft) 95,74 %
22.12.2018 10:08 11,7 C 3,9 C 10,6 C 77 % 1013,1 hPa 0,0 l/m 19,1 km/h (3 Bft) W 268 0 min 0,000 mm 0,0 UV-I 130 W/m 7,8 C 5,8 C 25,7 km/h (4 Bft) 97,87 %
22.12.2018 10:10 11,7 C 3,9 C 11,1 C 77 % 1013,0 hPa 0,0 l/m 19,1 km/h (3 Bft) W-SW 251 2 min 0,000 mm 0,0 UV-I 169 W/m 7,8 C 5,8 C 27,4 km/h (4 Bft) 93,62 %
22.12.2018 10:12 11,7 C 3,9 C 11,1 C 78 % 1013,0 hPa 0,0 l/m 20,2 km/h (4 Bft) W-SW 244 2 min 0,000 mm 0,0 UV-I 168 W/m 8,0 C 5,4 C 27,4 km/h (4 Bft) 97,87 %
22.12.2018 10:14 11,7 C 3,9 C 11,1 C 78 % 1013,0 hPa 0,0 l/m 21,8 km/h (4 Bft) W-SW 244 2 min 0,000 mm 0,0 UV-I 145 W/m 8,0 C 5,0 C 30,6 km/h (5 Bft) 100,00 %
22.12.2018 10:16 11,7 C 3,9 C 11,7 C 78 % 1012,9 hPa 0,0 l/m 19,2 km/h (3 Bft) SW 234 2 min 0,000 mm 0,0 UV-I 147 W/m 8,0 C 5,7 C 29,0 km/h (5 Bft) 95,74 %
22.12.2018 10:18 11,8 C 3,9 C 11,7 C 78 % 1012,9 hPa 0,0 l/m 20,1 km/h (4 Bft) W 267 2 min 0,000 mm 0,0 UV-I 151 W/m 8,1 C 5,6 C 29,0 km/h (5 Bft) 97,87 %
22.12.2018 10:20 11,8 C 3,9 C 11,7 C 78 % 1012,9 hPa 0,0 l/m 15,7 km/h (3 Bft) W-SW 240 2 min 0,000 mm 0,0 UV-I 148 W/m 8,1 C 7,0 C 27,4 km/h (4 Bft) 96,00 %
22.12.2018 10:22 11,8 C 3,9 C 11,7 C 78 % 1012,8 hPa 0,0 l/m 19,7 km/h (3 Bft) W-SW 245 2 min 0,000 mm 0,0 UV-I 153 W/m 8,1 C 5,7 C 41,8 km/h (6 Bft) 94,44 %
22.12.2018 10:24 11,9 C 3,9 C 11,7 C 77 % 1013,0 hPa 0,0 l/m 24,2 km/h (4 Bft) SW 235 0 min 0,000 mm 0,0 UV-I 132 W/m 8,0 C 4,6 C 41,8 km/h (6 Bft) 96,00 %
22.12.2018 10:26 11,9 C 3,9 C 11,1 C 77 % 1013,0 hPa 0,0 l/m 19,2 km/h (3 Bft) W 277 0 min 0,000 mm 0,0 UV-I 90 W/m 8,0 C 6,0 C 32,2 km/h (5 Bft) 93,62 %
22.12.2018 10:28 11,9 C 3,9 C 11,1 C 78 % 1012,9 hPa 0,0 l/m 17,3 km/h (3 Bft) SW 232 0 min 0,000 mm 0,0 UV-I 75 W/m 8,2 C 6,6 C 32,2 km/h (5 Bft) 95,74 %
22.12.2018 10:30 11,9 C 3,9 C 10,6 C 78 % 1013,0 hPa 0,0 l/m 22,2 km/h (4 Bft) W 281 0 min 0,000 mm 0,0 UV-I 71 W/m 8,2 C 5,1 C 30,6 km/h (5 Bft) 98,00 %
22.12.2018 10:32 11,9 C 3,9 C 10,6 C 78 % 1012,9 hPa 0,0 l/m 17,6 km/h (3 Bft) W 281 0 min 0,000 mm 0,0 UV-I 70 W/m 8,2 C 6,5 C 27,4 km/h (4 Bft) 95,74 %
22.12.2018 10:34 11,9 C 3,9 C 10,6 C 78 % 1013,0 hPa 0,0 l/m 15,5 km/h (3 Bft) W 259 0 min 0,000 mm 0,0 UV-I 70 W/m 8,2 C 7,2 C 24,1 km/h (4 Bft) 98,00 %
22.12.2018 10:36 11,8 C 3,9 C 10,6 C 78 % 1013,0 hPa 0,0 l/m 20,5 km/h (4 Bft) W 260 0 min 0,000 mm 0,0 UV-I 75 W/m 8,1 C 5,5 C 29,0 km/h (5 Bft) 94,74 %
22.12.2018 10:38 11,9 C 3,9 C 10,6 C 77 % 1012,9 hPa 0,0 l/m 21,8 km/h (4 Bft) SW 234 0 min 0,000 mm 0,0 UV-I 73 W/m 8,0 C 5,2 C 41,8 km/h (6 Bft) 97,87 %
22.12.2018 10:40 11,9 C 3,9 C 10,6 C 77 % 1012,9 hPa 0,0 l/m 26,9 km/h (4 Bft) W-SW 253 0 min 0,000 mm 0,0 UV-I 75 W/m 8,0 C 4,0 C 46,7 km/h (6 Bft) 96,23 %
22.12.2018 10:42 12,1 C 3,9 C 10,6 C 76 % 1012,9 hPa 0,0 l/m 25,6 km/h (4 Bft) W 278 0 min 0,000 mm 0,0 UV-I 79 W/m 8,0 C 4,5 C 45,1 km/h (6 Bft) 95,74 %
22.12.2018 10:44 12,1 C 3,9 C 11,1 C 75 % 1013,0 hPa 0,0 l/m 25,5 km/h (4 Bft) SW 234 0 min 0,000 mm 0,0 UV-I 89 W/m 7,8 C 4,6 C 41,8 km/h (6 Bft) 97,87 %
22.12.2018 10:46 12,2 C 3,9 C 11,1 C 74 % 1013,0 hPa 0,0 l/m 26,4 km/h (4 Bft) W 279 0 min 0,000 mm 0,0 UV-I 83 W/m 7,7 C 4,5 C 43,5 km/h (6 Bft) 97,87 %
22.12.2018 10:49 12,3 C 3,9 C 11,1 C 73 % 1012,9 hPa 0,0 l/m 25,1 km/h (4 Bft) W 270 0 min 0,000 mm 0,0 UV-I 100 W/m 7,6 C 4,9 C 43,5 km/h (6 Bft) 97,30 %
22.12.2018 10:50 12,3 C 3,9 C 11,1 C 73 % 1012,9 hPa 0,0 l/m 24,2 km/h (4 Bft) W 275 0 min 0,000 mm 0,0 UV-I 116 W/m 7,6 C 5,1 C 27,4 km/h (4 Bft) 100,00 %
22.12.2018 10:52 12,4 C 3,9 C 11,7 C 72 % 1012,8 hPa 0,0 l/m 27,7 km/h (4 Bft) W-SW 256 0 min 0,000 mm 0,0 UV-I 111 W/m 7,5 C 4,5 C 46,7 km/h (6 Bft) 98,00 %
22.12.2018 10:54 12,5 C 3,9 C 11,7 C 71 % 1012,6 hPa 0,0 l/m 32,9 km/h (5 Bft) W-NW 288 0 min 0,000 mm 0,0 UV-I 123 W/m 7,4 C 3,7 C 48,3 km/h (6 Bft) 97,87 %
22.12.2018 10:56 12,6 C 3,9 C 11,7 C 71 % 1012,8 hPa 0,0 l/m 25,9 km/h (4 Bft) W 279 0 min 0,000 mm 0,0 UV-I 130 W/m 7,5 C 5,2 C 40,2 km/h (6 Bft) 100,00 %
22.12.2018 10:58 12,7 C 3,9 C 11,7 C 70 % 1012,7 hPa 0,0 l/m 26,3 km/h (4 Bft) W 269 0 min 0,000 mm 0,0 UV-I 141 W/m 7,4 C 5,2 C 37,0 km/h (5 Bft) 100,00 %
22.12.2018 11:00 12,7 C 3,9 C 12,2 C 70 % 1012,7 hPa 0,0 l/m 23,0 km/h (4 Bft) W 275 0 min 0,102 mm 0,0 UV-I 158 W/m 7,4 C 6,0 C 41,8 km/h (6 Bft) 100,00 %
22.12.2018 11:02 12,7 C 3,9 C 12,2 C 70 % 1012,7 hPa 0,0 l/m 25,6 km/h (4 Bft) W-NW 292 2 min 0,000 mm 0,0 UV-I 170 W/m 7,4 C 5,4 C 49,9 km/h (6 Bft) 97,44 %
22.12.2018 11:04 12,8 C 3,9 C 12,2 C 69 % 1012,9 hPa 0,0 l/m 34,6 km/h (5 Bft) W 278 2 min 0,000 mm 0,0 UV-I 171 W/m 7,3 C 3,8 C 49,9 km/h (6 Bft) 100,00 %
22.12.2018 11:06 12,8 C 3,9 C 12,2 C 69 % 1012,8 hPa 0,0 l/m 35,0 km/h (5 Bft) W 263 0 min 0,000 mm 0,0 UV-I 165 W/m 7,3 C 3,7 C 57,9 km/h (7 Bft) 100,00 %
22.12.2018 11:08 12,9 C 3,9 C 12,2 C 68 % 1012,7 hPa 0,0 l/m 38,2 km/h (5 Bft) W 271 0 min 0,000 mm 0,0 UV-I 168 W/m 7,1 C 3,4 C 64,4 km/h (8 Bft) 100,00 %
22.12.2018 11:10 12,9 C 3,9 C 12,2 C 68 % 1012,8 hPa 0,0 l/m 23,0 km/h (4 Bft) W 264 0 min 0,000 mm 0,0 UV-I 155 W/m 7,1 C 6,2 C 37,0 km/h (5 Bft) 100,00 %
22.12.2018 11:12 12,9 C 3,9 C 12,2 C 68 % 1012,9 hPa 0,0 l/m 20,9 km/h (4 Bft) W 278 0 min 0,000 mm 0,0 UV-I 138 W/m 7,1 C 6,8 C 33,8 km/h (5 Bft) 100,00 %
22.12.2018 11:14 12,9 C 3,9 C 12,2 C 69 % 1012,9 hPa 0,0 l/m 22,0 km/h (4 Bft) W-SW 255 0 min 0,000 mm 0,0 UV-I 149 W/m 7,4 C 6,5 C 43,5 km/h (6 Bft) 100,00 %
22.12.2018 11:16 12,9 C 3,9 C 12,2 C 69 % 1012,9 hPa 0,0 l/m 18,1 km/h (3 Bft) W 261 0 min 0,000 mm 0,0 UV-I 129 W/m 7,4 C 7,6 C 27,4 km/h (4 Bft) 100,00 %
22.12.2018 11:18 12,8 C 3,9 C 12,2 C 70 % 1012,8 hPa 0,0 l/m 20,4 km/h (4 Bft) W 277 0 min 0,000 mm 0,0 UV-I 121 W/m 7,5 C 6,8 C 37,0 km/h (5 Bft) 100,00 %
22.12.2018 11:20 12,8 C 3,9 C 12,2 C 70 % 1012,8 hPa 0,0 l/m 23,5 km/h (4 Bft) W 279 0 min 0,000 mm 0,0 UV-I 107 W/m 7,5 C 6,0 C 40,2 km/h (6 Bft) 100,00 %
22.12.2018 11:22 12,8 C 3,9 C 11,7 C 70 % 1012,8 hPa 0,0 l/m 21,4 km/h (4 Bft) W 272 0 min 0,000 mm 0,0 UV-I 75 W/m 7,5 C 6,5 C 27,4 km/h (4 Bft) 98,00 %
22.12.2018 11:24 12,8 C 3,9 C 11,7 C 70 % 1012,9 hPa 0,0 l/m 28,9 km/h (5 Bft) W-SW 248 0 min 0,000 mm 0,0 UV-I 60 W/m 7,5 C 4,8 C 38,6 km/h (5 Bft) 100,00 %
22.12.2018 11:26 12,8 C 3,9 C 11,7 C 70 % 1012,8 hPa 0,0 l/m 24,7 km/h (4 Bft) W-SW 258 0 min 0,000 mm 0,0 UV-I 81 W/m 7,5 C 5,7 C 35,4 km/h (5 Bft) 93,62 %
22.12.2018 11:28 12,7 C 3,9 C 11,7 C 70 % 1012,7 hPa 0,0 l/m 30,5 km/h (5 Bft) W-SW 248 0 min 0,000 mm 0,0 UV-I 67 W/m 7,4 C 4,4 C 45,1 km/h (6 Bft) 95,74 %
22.12.2018 11:30 12,7 C 3,9 C 11,7 C 69 % 1012,9 hPa 0,0 l/m 28,6 km/h (4 Bft) W 264 0 min 0,000 mm 0,0 UV-I 63 W/m 7,2 C 4,7 C 48,3 km/h (6 Bft) 94,00 %
22.12.2018 11:32 12,8 C 3,9 C 11,7 C 69 % 1012,8 hPa 0,0 l/m 26,7 km/h (4 Bft) W 267 0 min 0,000 mm 0,0 UV-I 56 W/m 7,3 C 5,3 C 37,0 km/h (5 Bft) 95,74 %
22.12.2018 11:34 12,7 C 3,9 C 11,7 C 69 % 1012,9 hPa 0,0 l/m 33,0 km/h (5 Bft) W 265 0 min 0,000 mm 0,0 UV-I 51 W/m 7,2 C 3,9 C 57,9 km/h (7 Bft) 100,00 %
22.12.2018 11:36 12,7 C 3,9 C 11,7 C 69 % 1012,8 hPa 0,0 l/m 32,7 km/h (5 Bft) W-NW 289 0 min 0,000 mm 0,0 UV-I 62 W/m 7,2 C 4,0 C 54,7 km/h (7 Bft) 96,72 %
22.12.2018 11:38 12,7 C 3,9 C 11,7 C 69 % 1012,9 hPa 0,0 l/m 36,5 km/h (5 Bft) W-NW 300 0 min 0,000 mm 0,0 UV-I 83 W/m 7,2 C 3,4 C 72,4 km/h (8 Bft) 95,83 %
22.12.2018 11:40 12,8 C 3,9 C 11,7 C 68 % 1012,9 hPa 0,0 l/m 26,0 km/h (4 Bft) W 263 0 min 0,000 mm 0,0 UV-I 126 W/m 7,0 C 5,4 C 38,6 km/h (5 Bft) 95,74 %
22.12.2018 11:42 12,8 C 3,9 C 12,2 C 68 % 1012,9 hPa 0,0 l/m 25,4 km/h (4 Bft) SW 224 0 min 0,000 mm 0,0 UV-I 159 W/m 7,0 C 5,5 C 51,5 km/h (7 Bft) 97,87 %
22.12.2018 11:44 12,8 C 3,9 C 12,2 C 68 % 1013,0 hPa 0,0 l/m 22,8 km/h (4 Bft) W 276 0 min 0,000 mm 0,0 UV-I 161 W/m 7,0 C 6,2 C 40,2 km/h (6 Bft) 95,74 %
22.12.2018 11:46 12,8 C 3,9 C 12,2 C 68 % 1012,8 hPa 0,0 l/m 29,7 km/h (5 Bft) SW 234 0 min 0,000 mm 0,0 UV-I 151 W/m 7,0 C 4,6 C 48,3 km/h (6 Bft) 98,00 %
22.12.2018 11:48 12,8 C 3,9 C 12,2 C 68 % 1012,9 hPa 0,0 l/m 26,4 km/h (4 Bft) W-SW 257 0 min 0,000 mm 0,0 UV-I 139 W/m 7,0 C 5,3 C 41,8 km/h (6 Bft) 100,00 %
22.12.2018 11:50 12,8 C 3,9 C 12,2 C 68 % 1012,8 hPa 0,0 l/m 34,4 km/h (5 Bft) W-NW 288 0 min 0,000 mm 0,0 UV-I 122 W/m 7,0 C 3,8 C 46,7 km/h (6 Bft) 98,00 %
22.12.2018 11:52 12,8 C 3,9 C 12,2 C 68 % 1012,9 hPa 0,0 l/m 29,3 km/h (5 Bft) W-SW 240 0 min 0,000 mm 0,0 UV-I 105 W/m 7,0 C 4,7 C 43,5 km/h (6 Bft) 100,00 %
22.12.2018 11:54 12,8 C 3,9 C 12,2 C 68 % 1012,8 hPa 0,0 l/m 26,8 km/h (4 Bft) W 269 0 min 0,000 mm 0,0 UV-I 111 W/m 7,0 C 5,2 C 46,7 km/h (6 Bft) 100,00 %
22.12.2018 11:56 12,7 C 3,9 C 11,7 C 68 % 1012,9 hPa 0,0 l/m 28,3 km/h (4 Bft) SW 233 0 min 0,000 mm 0,0 UV-I 91 W/m 6,9 C 4,8 C 45,1 km/h (6 Bft) 98,00 %
22.12.2018 11:58 12,7 C 3,9 C 11,7 C 68 % 1013,0 hPa 0,0 l/m 26,4 km/h (4 Bft) W-SW 254 0 min 0,000 mm 0,0 UV-I 75 W/m 6,9 C 5,2 C 43,5 km/h (6 Bft) 100,00 %
22.12.2018 12:00 12,7 C 3,9 C 11,7 C 67 % 1013,0 hPa 0,0 l/m 38,2 km/h (5 Bft) W 272 0 min 0,152 mm 0,0 UV-I 59 W/m 6,7 C 3,1 C 61,2 km/h (7 Bft) 100,00 %
22.12.2018 12:02 12,7 C 3,9 C 11,7 C 67 % 1012,8 hPa 0,2 l/m 38,2 km/h (5 Bft) W 273 0 min 0,000 mm 0,0 UV-I 51 W/m 6,7 C 3,1 C 61,2 km/h (7 Bft) 100,00 %
22.12.2018 12:04 12,6 C 3,9 C 11,1 C 68 % 1012,9 hPa 0,0 l/m 26,6 km/h (4 Bft) SW 236 0 min 0,000 mm 0,0 UV-I 46 W/m 6,9 C 5,0 C 53,1 km/h (7 Bft) 100,00 %
22.12.2018 12:06 12,6 C 3,9 C 11,1 C 68 % 1013,0 hPa 0,0 l/m 26,2 km/h (4 Bft) W 274 0 min 0,000 mm 0,0 UV-I 46 W/m 6,9 C 5,1 C 43,5 km/h (6 Bft) 100,00 %
22.12.2018 12:08 12,5 C 3,9 C 11,1 C 68 % 1013,1 hPa 0,0 l/m 25,8 km/h (4 Bft) W 259 0 min 0,000 mm 0,0 UV-I 46 W/m 6,8 C 5,0 C 45,1 km/h (6 Bft) 100,00 %
22.12.2018 12:10 12,4 C 3,9 C 11,1 C 68 % 1013,0 hPa 0,0 l/m 30,4 km/h (5 Bft) W 259 0 min 0,000 mm 0,0 UV-I 40 W/m 6,7 C 4,0 C 45,1 km/h (6 Bft) 100,00 %
22.12.2018 12:12 12,4 C 3,9 C 11,1 C 67 % 1013,0 hPa 0,0 l/m 36,9 km/h (5 Bft) W 259 0 min 0,000 mm 0,0 UV-I 47 W/m 6,4 C 2,9 C 51,5 km/h (7 Bft) 98,00 %
22.12.2018 12:14 12,4 C 3,9 C 11,1 C 68 % 1013,0 hPa 0,0 l/m 26,7 km/h (4 Bft) W 269 0 min 0,000 mm 0,0 UV-I 57 W/m 6,7 C 4,7 C 43,5 km/h (6 Bft) 98,11 %
22.12.2018 12:16 12,4 C 3,9 C 11,1 C 68 % 1013,0 hPa 0,0 l/m 25,9 km/h (4 Bft) W-SW 252 0 min 0,000 mm 0,0 UV-I 50 W/m 6,7 C 4,9 C 38,6 km/h (5 Bft) 100,00 %
22.12.2018 12:18 12,3 C 3,9 C 11,1 C 68 % 1012,9 hPa 0,0 l/m 30,8 km/h (5 Bft) W-SW 246 0 min 0,000 mm 0,0 UV-I 44 W/m 6,6 C 3,7 C 41,8 km/h (6 Bft) 100,00 %
22.12.2018 12:20 12,3 C 3,9 C 11,1 C 68 % 1013,1 hPa 0,0 l/m 30,3 km/h (5 Bft) W 281 0 min 0,000 mm 0,0 UV-I 48 W/m 6,6 C 3,8 C 48,3 km/h (6 Bft) 100,00 %
22.12.2018 12:22 12,3 C 3,9 C 11,1 C 69 % 1013,0 hPa 0,0 l/m 24,6 km/h (4 Bft) W 271 0 min 0,000 mm 0,0 UV-I 63 W/m 6,8 C 5,0 C 43,5 km/h (6 Bft) 98,00 %
22.12.2018 12:24 12,3 C 3,9 C 11,1 C 69 % 1013,0 hPa 0,0 l/m 32,3 km/h (5 Bft) W 275 0 min 0,000 mm 0,0 UV-I 63 W/m 6,8 C 3,5 C 51,5 km/h (7 Bft) 97,87 %
22.12.2018 12:26 12,3 C 3,9 C 11,1 C 69 % 1013,1 hPa 0,0 l/m 31,4 km/h (5 Bft) W-NW 298 0 min 0,000 mm 0,0 UV-I 56 W/m 6,8 C 3,6 C 53,1 km/h (7 Bft) 97,87 %
22.12.2018 12:28 12,3 C 3,9 C 11,7 C 68 % 1013,1 hPa 0,0 l/m 35,6 km/h (5 Bft) W 281 0 min 0,000 mm 0,0 UV-I 47 W/m 6,6 C 2,9 C 53,1 km/h (7 Bft) 94,00 %
22.12.2018 12:30 12,3 C 3,9 C 11,1 C 69 % 1013,2 hPa 0,0 l/m 27,4 km/h (4 Bft) W 269 0 min 0,000 mm 0,0 UV-I 40 W/m 6,8 C 4,4 C 53,1 km/h (7 Bft) 94,00 %
22.12.2018 12:32 12,3 C 3,9 C 11,7 C 68 % 1013,2 hPa 0,0 l/m 37,4 km/h (5 Bft) W-NW 290 0 min 0,000 mm 0,0 UV-I 41 W/m 6,6 C 2,7 C 70,8 km/h (8 Bft) 95,74 %
22.12.2018 12:34 12,3 C 3,9 C 11,7 C 68 % 1013,3 hPa 0,0 l/m 30,5 km/h (5 Bft) W-SW 249 0 min 0,000 mm 0,0 UV-I 34 W/m 6,6 C 3,8 C 48,3 km/h (6 Bft) 93,62 %
22.12.2018 12:36 12,3 C 3,9 C 11,7 C 69 % 1013,4 hPa 0,0 l/m 25,3 km/h (4 Bft) W 269 0 min 0,000 mm 0,0 UV-I 32 W/m 6,8 C 4,9 C 46,7 km/h (6 Bft) 95,74 %
22.12.2018 12:38 12,3 C 3,9 C 11,7 C 69 % 1013,6 hPa 0,0 l/m 14,6 km/h (3 Bft) W-NW 286 0 min 0,000 mm 0,0 UV-I 28 W/m 6,8 C 8,1 C 27,4 km/h (4 Bft) 93,62 %
22.12.2018 12:40 12,2 C 3,9 C 11,7 C 70 % 1013,5 hPa 0,0 l/m 10,1 km/h (2 Bft) NW 306 0 min 0,000 mm 0,0 UV-I 22 W/m 6,9 C 10,0 C 17,7 km/h (3 Bft) 92,00 %
22.12.2018 12:42 12,0 C 3,9 C 11,1 C 70 % 1013,6 hPa 0,0 l/m 16,5 km/h (3 Bft) NW 326 0 min 0,000 mm 0,0 UV-I 21 W/m 6,7 C 7,0 C 32,2 km/h (5 Bft) 91,43 %
22.12.2018 12:44 11,7 C 3,9 C 10,6 C 72 % 1013,6 hPa 0,0 l/m 12,8 km/h (3 Bft) W-NW 282 0 min 0,000 mm 0,0 UV-I 21 W/m 6,8 C 8,1 C 25,7 km/h (4 Bft) 95,74 %
22.12.2018 12:46 11,3 C 3,9 C 10,6 C 73 % 1013,5 hPa 0,0 l/m 23,3 km/h (4 Bft) W-NW 288 0 min 0,000 mm 0,0 UV-I 20 W/m 6,6 C 4,0 C 33,8 km/h (5 Bft) 92,00 %
22.12.2018 12:48 11,1 C 3,9 C 10,0 C 74 % 1013,7 hPa 0,0 l/m 12,7 km/h (3 Bft) NW 320 0 min 0,000 mm 0,0 UV-I 18 W/m 6,6 C 7,5 C 29,0 km/h (5 Bft) 95,74 %
22.12.2018 12:50 10,8 C 3,9 C 10,0 C 75 % 1013,5 hPa 0,0 l/m 13,0 km/h (3 Bft) NW 321 0 min 0,000 mm 0,0 UV-I 18 W/m 6,5 C 7,0 C 27,4 km/h (4 Bft) 91,49 %
22.12.2018 12:52 10,6 C 3,9 C 10,0 C 75 % 1013,6 hPa 0,0 l/m 17,2 km/h (3 Bft) W-NW 290 0 min 0,000 mm 0,0 UV-I 17 W/m 6,4 C 5,0 C 37,0 km/h (5 Bft) 96,00 %
22.12.2018 12:54 10,4 C 3,9 C 9,4 C 76 % 1013,9 hPa 0,0 l/m 18,9 km/h (3 Bft) W-NW 283 0 min 0,000 mm 0,0 UV-I 14 W/m 6,4 C 4,2 C 27,4 km/h (4 Bft) 93,62 %
22.12.2018 12:56 10,2 C 3,9 C 8,9 C 78 % 1014,1 hPa 0,0 l/m 17,3 km/h (3 Bft) NW 306 0 min 0,000 mm 0,0 UV-I 17 W/m 6,5 C 4,5 C 25,7 km/h (4 Bft) 97,96 %
22.12.2018 12:58 9,9 C 3,9 C 8,3 C 80 % 1014,1 hPa 0,0 l/m 20,1 km/h (4 Bft) W-NW 300 0 min 0,000 mm 0,0 UV-I 27 W/m 6,6 C 3,1 C 35,4 km/h (5 Bft) 93,75 %
22.12.2018 13:00 9,6 C 3,9 C 8,3 C 83 % 1013,9 hPa 0,0 l/m 16,4 km/h (3 Bft) W-NW 282 0 min 0,000 mm 0,0 UV-I 32 W/m 6,9 C 4,1 C 33,8 km/h (5 Bft) 95,74 %
22.12.2018 13:02 9,4 C 3,9 C 8,3 C 84 % 1013,8 hPa 0,0 l/m 17,6 km/h (3 Bft) W 260 0 min 0,102 mm 0,0 UV-I 43 W/m 6,8 C 3,4 C 30,6 km/h (5 Bft) 93,62 %
22.12.2018 13:04 9,2 C 3,9 C 8,3 C 84 % 1014,1 hPa 0,0 l/m 17,9 km/h (3 Bft) W-NW 285 0 min 0,000 mm 0,0 UV-I 44 W/m 6,6 C 3,0 C 35,4 km/h (5 Bft) 97,14 %
22.12.2018 13:06 9,2 C 3,9 C 8,3 C 85 % 1013,9 hPa 0,0 l/m 22,9 km/h (4 Bft) SW 236 0 min 0,000 mm 0,0 UV-I 82 W/m 6,8 C 1,3 C 37,0 km/h (5 Bft) 92,00 %
22.12.2018 13:08 9,2 C 3,9 C 8,3 C 86 % 1013,8 hPa 0,2 l/m 16,0 km/h (3 Bft) W-NW 288 0 min 0,000 mm 0,0 UV-I 105 W/m 7,0 C 3,7 C 20,9 km/h (4 Bft) 96,00 %
22.12.2018 13:10 9,2 C 3,9 C 8,3 C 86 % 1013,7 hPa 0,0 l/m 20,3 km/h (4 Bft) W-NW 285 0 min 0,000 mm 0,0 UV-I 96 W/m 7,0 C 2,2 C 33,8 km/h (5 Bft) 95,74 %
22.12.2018 13:12 9,3 C 3,9 C 8,3 C 86 % 1013,8 hPa 0,0 l/m 21,7 km/h (4 Bft) W-SW 253 0 min 0,000 mm 0,0 UV-I 72 W/m 7,1 C 1,8 C 35,4 km/h (5 Bft) 97,87 %
22.12.2018 13:14 9,3 C 3,9 C 8,3 C 85 % 1013,7 hPa 0,0 l/m 25,3 km/h (4 Bft) W 270 0 min 0,000 mm 0,0 UV-I 59 W/m 6,9 C 0,8 C 40,2 km/h (6 Bft) 95,74 %
22.12.2018 13:16 9,4 C 3,9 C 8,3 C 85 % 1013,8 hPa 0,0 l/m 19,8 km/h (3 Bft) W 281 0 min 0,000 mm 0,0 UV-I 46 W/m 7,0 C 2,6 C 30,6 km/h (5 Bft) 95,74 %
22.12.2018 13:18 9,6 C 3,9 C 8,3 C 85 % 1013,8 hPa 0,0 l/m 17,8 km/h (3 Bft) W 265 0 min 0,000 mm 0,0 UV-I 55 W/m 7,2 C 3,5 C 29,0 km/h (5 Bft) 95,74 %
22.12.2018 13:20 9,6 C 3,9 C 8,9 C 84 % 1013,8 hPa 0,0 l/m 17,2 km/h (3 Bft) W 269 0 min 0,000 mm 0,0 UV-I 73 W/m 7,0 C 3,8 C 25,7 km/h (4 Bft) 98,00 %
22.12.2018 13:22 9,7 C 3,9 C 8,9 C 84 % 1013,7 hPa 0,0 l/m 19,5 km/h (3 Bft) W 265 0 min 0,000 mm 0,0 UV-I 64 W/m 7,1 C 3,1 C 32,2 km/h (5 Bft) 97,87 %
22.12.2018 13:24 9,8 C 3,9 C 8,9 C 83 % 1013,7 hPa 0,0 l/m 19,4 km/h (3 Bft) W 267 0 min 0,000 mm 0,0 UV-I 53 W/m 7,1 C 3,2 C 27,4 km/h (4 Bft) 95,74 %
22.12.2018 13:26 9,9 C 3,9 C 8,9 C 82 % 1013,7 hPa 0,0 l/m 20,4 km/h (4 Bft) W 280 0 min 0,000 mm 0,0 UV-I 61 W/m 7,0 C 3,0 C 32,2 km/h (5 Bft) 97,87 %
22.12.2018 13:28 10,1 C 3,9 C 8,9 C 81 % 1013,6 hPa 0,0 l/m 22,6 km/h (4 Bft) W 263 0 min 0,000 mm 0,0 UV-I 64 W/m 7,0 C 2,6 C 35,4 km/h (5 Bft) 97,87 %
22.12.2018 13:30 10,3 C 3,9 C 8,9 C 80 % 1013,7 hPa 0,0 l/m 17,2 km/h (3 Bft) W 280 0 min 0,000 mm 0,0 UV-I 74 W/m 7,0 C 4,6 C 25,7 km/h (4 Bft) 95,74 %
22.12.2018 13:32 10,4 C 3,9 C 9,4 C 80 % 1013,7 hPa 0,0 l/m 14,7 km/h (3 Bft) W-SW 257 0 min 0,000 mm 0,0 UV-I 82 W/m 7,1 C 5,7 C 27,4 km/h (4 Bft) 97,22 %
22.12.2018 13:34 10,6 C 3,9 C 9,4 C 78 % 1013,7 hPa 0,0 l/m 22,4 km/h (4 Bft) W-SW 255 0 min 0,000 mm 0,0 UV-I 81 W/m 6,9 C 3,3 C 32,2 km/h (5 Bft) 100,00 %
22.12.2018 13:36 10,8 C 3,9 C 9,4 C 77 % 1013,6 hPa 0,0 l/m 17,5 km/h (3 Bft) W-SW 238 0 min 0,000 mm 0,0 UV-I 70 W/m 6,9 C 5,2 C 25,7 km/h (4 Bft) 100,00 %
22.12.2018 13:38 10,9 C 3,9 C 9,4 C 76 % 1013,7 hPa 0,0 l/m 18,3 km/h (3 Bft) W 275 0 min 0,000 mm 0,0 UV-I 61 W/m 6,8 C 5,0 C 29,0 km/h (5 Bft) 100,00 %
22.12.2018 13:40 11,0 C 3,9 C 9,4 C 76 % 1013,7 hPa 0,0 l/m 26,3 km/h (4 Bft) W 259 0 min 0,000 mm 0,0 UV-I 53 W/m 6,9 C 2,9 C 53,1 km/h (7 Bft) 100,00 %
22.12.2018 13:42 11,1 C 3,9 C 9,4 C 74 % 1013,8 hPa 0,0 l/m 28,1 km/h (4 Bft) W 265 0 min 0,000 mm 0,0 UV-I 45 W/m 6,6 C 2,6 C 48,3 km/h (6 Bft) 100,00 %
22.12.2018 13:44 11,2 C 3,9 C 9,4 C 74 % 1013,8 hPa 0,0 l/m 24,0 km/h (4 Bft) W 264 0 min 0,000 mm 0,0 UV-I 47 W/m 6,7 C 3,7 C 40,2 km/h (6 Bft) 100,00 %
22.12.2018 13:46 11,3 C 3,9 C 9,4 C 73 % 1014,0 hPa 0,0 l/m 22,3 km/h (4 Bft) W 270 0 min 0,000 mm 0,0 UV-I 61 W/m 6,6 C 4,3 C 33,8 km/h (5 Bft) 95,74 %
22.12.2018 13:48 11,4 C 3,9 C 10,0 C 72 % 1013,7 hPa 0,0 l/m 23,7 km/h (4 Bft) W 265 0 min 0,000 mm 0,0 UV-I 58 W/m 6,5 C 4,1 C 40,2 km/h (6 Bft) 100,00 %
22.12.2018 13:50 11,4 C 3,9 C 9,4 C 72 % 1013,9 hPa 0,0 l/m 19,5 km/h (3 Bft) W 259 0 min 0,000 mm 0,0 UV-I 44 W/m 6,5 C 5,3 C 29,0 km/h (5 Bft) 100,00 %
22.12.2018 13:52 11,4 C 3,9 C 10,0 C 72 % 1013,8 hPa 0,0 l/m 20,7 km/h (4 Bft) W-SW 240 0 min 0,000 mm 0,0 UV-I 54 W/m 6,5 C 4,9 C 41,8 km/h (6 Bft) 100,00 %
22.12.2018 13:54 11,5 C 3,9 C 10,0 C 72 % 1013,7 hPa 0,0 l/m 26,6 km/h (4 Bft) W-SW 245 0 min 0,000 mm 0,0 UV-I 53 W/m 6,6 C 3,5 C 43,5 km/h (6 Bft) 100,00 %
22.12.2018 13:56 11,5 C 3,9 C 10,0 C 72 % 1013,9 hPa 0,0 l/m 17,6 km/h (3 Bft) W 277 0 min 0,000 mm 0,0 UV-I 41 W/m 6,6 C 6,0 C 30,6 km/h (5 Bft) 97,87 %
22.12.2018 13:58 11,4 C 3,9 C 10,0 C 72 % 1013,9 hPa 0,0 l/m 20,7 km/h (4 Bft) W-SW 252 0 min 0,000 mm 0,0 UV-I 30 W/m 6,5 C 4,9 C 32,2 km/h (5 Bft) 98,00 %
22.12.2018 14:00 11,4 C 3,9 C 10,0 C 72 % 1013,9 hPa 0,0 l/m 19,9 km/h (4 Bft) S-SW 213 0 min 0,076 mm 0,0 UV-I 29 W/m 6,5 C 5,1 C 27,4 km/h (4 Bft) 100,00 %
22.12.2018 14:02 11,4 C 3,9 C 10,0 C 72 % 1014,0 hPa 0,0 l/m 18,4 km/h (3 Bft) W 259 0 min 0,000 mm 0,0 UV-I 22 W/m 6,5 C 5,6 C 32,2 km/h (5 Bft) 95,74 %
22.12.2018 14:04 11,3 C 3,9 C 10,0 C 72 % 1013,8 hPa 0,0 l/m 20,7 km/h (4 Bft) W 268 0 min 0,000 mm 0,0 UV-I 23 W/m 6,4 C 4,8 C 33,8 km/h (5 Bft) 100,00 %
22.12.2018 14:06 11,3 C 3,9 C 9,4 C 72 % 1014,0 hPa 0,0 l/m 20,4 km/h (4 Bft) W 281 0 min 0,000 mm 0,0 UV-I 17 W/m 6,4 C 4,8 C 32,2 km/h (5 Bft) 100,00 %
22.12.2018 14:08 11,3 C 3,9 C 9,4 C 73 % 1014,1 hPa 0,0 l/m 19,9 km/h (4 Bft) W 275 0 min 0,000 mm 0,0 UV-I 17 W/m 6,6 C 5,0 C 33,8 km/h (5 Bft) 100,00 %
22.12.2018 14:10 11,1 C 3,9 C 8,9 C 74 % 1014,3 hPa 0,0 l/m 20,6 km/h (4 Bft) W 267 0 min 0,000 mm 0,0 UV-I 15 W/m 6,6 C 4,5 C 35,4 km/h (5 Bft) 98,11 %
22.12.2018 14:12 10,9 C 3,9 C 8,3 C 76 % 1014,4 hPa 0,0 l/m 21,9 km/h (4 Bft) W 268 0 min 0,000 mm 0,0 UV-I 22 W/m 6,8 C 3,9 C 33,8 km/h (5 Bft) 100,00 %
22.12.2018 14:14 10,7 C 3,9 C 8,3 C 77 % 1014,4 hPa 0,0 l/m 24,6 km/h (4 Bft) W 269 0 min 0,000 mm 0,0 UV-I 26 W/m 6,8 C 2,9 C 45,1 km/h (6 Bft) 97,87 %
22.12.2018 14:16 10,5 C 3,9 C 8,3 C 78 % 1014,4 hPa 0,2 l/m 32,4 km/h (5 Bft) W-NW 298 0 min 0,000 mm 0,0 UV-I 27 W/m 6,8 C 0,9 C 48,3 km/h (6 Bft) 97,92 %
22.12.2018 14:18 10,3 C 3,9 C 8,3 C 79 % 1014,4 hPa 0,0 l/m 22,7 km/h (4 Bft) W 270 0 min 0,000 mm 0,0 UV-I 26 W/m 6,8 C 2,9 C 35,4 km/h (5 Bft) 97,87 %
22.12.2018 14:20 10,2 C 3,9 C 8,3 C 79 % 1014,4 hPa 0,0 l/m 29,1 km/h (5 Bft) W 273 0 min 0,000 mm 0,0 UV-I 26 W/m 6,7 C 1,1 C 45,1 km/h (6 Bft) 95,74 %
22.12.2018 14:22 10,2 C 3,9 C 8,3 C 79 % 1014,4 hPa 0,0 l/m 23,7 km/h (4 Bft) W 272 0 min 0,000 mm 0,0 UV-I 26 W/m 6,7 C 2,4 C 32,2 km/h (5 Bft) 97,87 %
22.12.2018 14:24 10,1 C 3,9 C 8,3 C 80 % 1014,3 hPa 0,0 l/m 29,4 km/h (5 Bft) W 277 0 min 0,000 mm 0,0 UV-I 22 W/m 6,8 C 0,9 C 57,9 km/h (7 Bft) 97,87 %
22.12.2018 14:26 10,1 C 3,9 C 8,3 C 79 % 1014,5 hPa 0,0 l/m 33,0 km/h (5 Bft) W-NW 292 0 min 0,000 mm 0,0 UV-I 17 W/m 6,6 C 0,2 C 59,5 km/h (7 Bft) 95,74 %
22.12.2018 14:28 10,1 C 3,9 C 7,8 C 79 % 1014,6 hPa 0,0 l/m 27,5 km/h (4 Bft) W 279 0 min 0,000 mm 0,0 UV-I 12 W/m 6,6 C 1,4 C 51,5 km/h (7 Bft) 97,37 %
22.12.2018 14:30 10,0 C 3,9 C 7,8 C 80 % 1014,6 hPa 0,2 l/m 24,4 km/h (4 Bft) W-NW 301 0 min 0,000 mm 0,0 UV-I 11 W/m 6,7 C 2,0 C 38,6 km/h (5 Bft) 93,62 %
22.12.2018 14:32 9,8 C 3,9 C 7,8 C 81 % 1014,6 hPa 0,2 l/m 19,5 km/h (3 Bft) W 276 0 min 0,000 mm 0,0 UV-I 11 W/m 6,7 C 3,2 C 30,6 km/h (5 Bft) 95,74 %
22.12.2018 14:34 9,6 C 3,9 C 7,8 C 83 % 1014,7 hPa 0,0 l/m 18,5 km/h (3 Bft) W 267 0 min 0,000 mm 0,0 UV-I 14 W/m 6,9 C 3,3 C 30,6 km/h (5 Bft) 94,00 %
22.12.2018 14:36 9,4 C 3,9 C 7,8 C 84 % 1014,9 hPa 0,0 l/m 20,8 km/h (4 Bft) W-SW 249 0 min 0,000 mm 0,0 UV-I 13 W/m 6,8 C 2,2 C 30,6 km/h (5 Bft) 94,74 %
22.12.2018 14:38 9,3 C 3,9 C 7,8 C 85 % 1014,8 hPa 0,0 l/m 21,7 km/h (4 Bft) W-SW 257 0 min 0,000 mm 0,0 UV-I 11 W/m 6,9 C 1,8 C 33,8 km/h (5 Bft) 98,11 %
22.12.2018 14:40 9,2 C 3,9 C 7,8 C 86 % 1014,8 hPa 0,2 l/m 17,5 km/h (3 Bft) W 272 0 min 0,000 mm 0,0 UV-I 11 W/m 7,0 C 3,1 C 24,1 km/h (4 Bft) 97,87 %
22.12.2018 14:42 9,1 C 3,9 C 7,8 C 86 % 1015,0 hPa 0,0 l/m 23,3 km/h (4 Bft) W-NW 283 0 min 0,000 mm 0,0 UV-I 11 W/m 6,9 C 1,1 C 35,4 km/h (5 Bft) 95,74 %
22.12.2018 14:44 9,0 C 3,9 C 7,8 C 87 % 1015,4 hPa 0,2 l/m 25,7 km/h (4 Bft) W-NW 283 0 min 0,000 mm 0,0 UV-I 9 W/m 7,0 C 0,3 C 38,6 km/h (5 Bft) 95,74 %
22.12.2018 14:46 8,9 C 3,9 C 7,8 C 88 % 1015,6 hPa 0,4 l/m 33,6 km/h (5 Bft) W 271 0 min 0,000 mm 0,0 UV-I 7 W/m 7,0 C -1,6 C 75,6 km/h (9 Bft) 95,74 %
22.12.2018 14:48 8,7 C 3,9 C 7,8 C 88 % 1015,5 hPa 0,2 l/m 37,7 km/h (5 Bft) W 277 0 min 0,000 mm 0,0 UV-I 7 W/m 6,8 C -2,7 C 67,6 km/h (8 Bft) 97,87 %
22.12.2018 14:50 8,6 C 3,9 C 7,2 C 88 % 1015,4 hPa 0,2 l/m 39,5 km/h (6 Bft) W 281 0 min 0,000 mm 0,0 UV-I 5 W/m 6,7 C -3,1 C 61,2 km/h (7 Bft) 97,92 %
22.12.2018 14:52 8,4 C 3,9 C 7,2 C 87 % 1015,3 hPa 0,0 l/m 33,1 km/h (5 Bft) W 271 0 min 0,000 mm 0,0 UV-I 5 W/m 6,4 C -2,3 C 53,1 km/h (7 Bft) 95,92 %
22.12.2018 14:54 8,3 C 3,9 C 7,2 C 87 % 1015,2 hPa 0,0 l/m 32,7 km/h (5 Bft) W-SW 248 0 min 0,000 mm 0,0 UV-I 5 W/m 6,3 C -2,3 C 49,9 km/h (6 Bft) 97,92 %
22.12.2018 14:56 8,2 C 3,9 C 6,7 C 87 % 1015,1 hPa 0,2 l/m 28,4 km/h (4 Bft) W 265 0 min 0,000 mm 0,0 UV-I 5 W/m 6,2 C -1,5 C 46,7 km/h (6 Bft) 95,74 %
22.12.2018 14:58 8,1 C 3,9 C 6,7 C 87 % 1015,3 hPa 0,2 l/m 34,1 km/h (5 Bft) W 281 0 min 0,000 mm 0,0 UV-I 6 W/m 6,1 C -2,9 C 51,5 km/h (7 Bft) 95,74 %
22.12.2018 15:00 8,1 C 3,9 C 6,7 C 88 % 1015,1 hPa 0,0 l/m 26,9 km/h (4 Bft) W 275 0 min 0,051 mm 0,0 UV-I 10 W/m 6,2 C -1,3 C 43,5 km/h (6 Bft) 97,87 %
22.12.2018 15:02 8,0 C 3,9 C 6,7 C 88 % 1015,0 hPa 0,0 l/m 31,0 km/h (5 Bft) W 271 0 min 0,000 mm 0,0 UV-I 22 W/m 6,1 C -2,4 C 48,3 km/h (6 Bft) 97,37 %
22.12.2018 15:04 8,0 C 3,9 C 7,2 C 88 % 1015,1 hPa 0,0 l/m 34,3 km/h (5 Bft) W 275 0 min 0,000 mm 0,0 UV-I 32 W/m 6,1 C -3,1 C 56,3 km/h (7 Bft) 97,87 %
22.12.2018 15:06 8,1 C 3,9 C 7,2 C 87 % 1015,0 hPa 0,0 l/m 27,0 km/h (4 Bft) W-SW 252 0 min 0,000 mm 0,0 UV-I 32 W/m 6,1 C -1,3 C 41,8 km/h (6 Bft) 100,00 %
22.12.2018 15:09 8,1 C 3,9 C 6,7 C 87 % 1014,8 hPa 0,0 l/m 28,8 km/h (4 Bft) W-SW 241 0 min 0,000 mm 0,0 UV-I 25 W/m 6,1 C -1,7 C 49,9 km/h (6 Bft) 98,63 %
22.12.2018 15:10 8,1 C 3,9 C 6,7 C 87 % 1014,8 hPa 0,0 l/m 29,4 km/h (5 Bft) W 261 0 min 0,000 mm 0,0 UV-I 21 W/m 6,1 C -1,9 C 40,2 km/h (6 Bft) 95,83 %
22.12.2018 15:12 8,1 C 3,9 C 6,7 C 87 % 1014,9 hPa 0,0 l/m 27,1 km/h (4 Bft) W 263 0 min 0,000 mm 0,0 UV-I 21 W/m 6,1 C -1,3 C 38,6 km/h (5 Bft) 93,62 %
22.12.2018 15:14 8,1 C 3,9 C 6,7 C 87 % 1014,9 hPa 0,0 l/m 23,1 km/h (4 Bft) W-SW 247 0 min 0,000 mm 0,0 UV-I 24 W/m 6,1 C -0,2 C 40,2 km/h (6 Bft) 97,87 %
22.12.2018 15:16 8,2 C 3,9 C 6,7 C 86 % 1015,0 hPa 0,0 l/m 29,1 km/h (5 Bft) W 273 0 min 0,000 mm 0,0 UV-I 25 W/m 6,0 C -1,7 C 46,7 km/h (6 Bft) 100,00 %
22.12.2018 15:18 8,2 C 3,9 C 6,7 C 86 % 1015,0 hPa 0,0 l/m 26,4 km/h (4 Bft) W 275 0 min 0,000 mm 0,0 UV-I 25 W/m 6,0 C -1,0 C 41,8 km/h (6 Bft) 97,87 %
22.12.2018 15:20 8,3 C 3,9 C 6,7 C 85 % 1015,2 hPa 0,0 l/m 22,5 km/h (4 Bft) W-SW 244 0 min 0,000 mm 0,0 UV-I 23 W/m 5,9 C 0,3 C 32,2 km/h (5 Bft) 100,00 %
22.12.2018 15:22 8,3 C 3,9 C 6,7 C 85 % 1015,1 hPa 0,0 l/m 27,9 km/h (4 Bft) W 276 0 min 0,000 mm 0,0 UV-I 24 W/m 5,9 C -1,2 C 43,5 km/h (6 Bft) 100,00 %
22.12.2018 15:24 8,3 C 3,9 C 6,7 C 85 % 1015,3 hPa 0,0 l/m 29,3 km/h (5 Bft) W 265 0 min 0,000 mm 0,0 UV-I 22 W/m 5,9 C -1,6 C 38,6 km/h (5 Bft) 100,00 %
22.12.2018 15:26 8,4 C 3,9 C 6,7 C 85 % 1015,3 hPa 0,0 l/m 23,9 km/h (4 Bft) W-SW 247 0 min 0,000 mm 0,0 UV-I 18 W/m 6,0 C -0,0 C 48,3 km/h (6 Bft) 100,00 %
22.12.2018 15:28 8,4 C 3,9 C 6,7 C 85 % 1015,2 hPa 0,0 l/m 24,7 km/h (4 Bft) W 271 0 min 0,000 mm 0,0 UV-I 16 W/m 6,0 C -0,3 C 33,8 km/h (5 Bft) 100,00 %
22.12.2018 15:30 8,5 C 3,9 C 7,2 C 85 % 1015,2 hPa 0,0 l/m 27,9 km/h (4 Bft) W-SW 257 0 min 0,000 mm 0,0 UV-I 16 W/m 6,1 C -1,0 C 43,5 km/h (6 Bft) 100,00 %
22.12.2018 15:32 8,6 C 3,9 C 7,2 C 84 % 1015,2 hPa 0,0 l/m 28,3 km/h (4 Bft) W 277 0 min 0,000 mm 0,0 UV-I 16 W/m 6,1 C -0,9 C 41,8 km/h (6 Bft) 100,00 %
22.12.2018 15:34 8,7 C 3,9 C 7,2 C 84 % 1015,3 hPa 0,0 l/m 21,0 km/h (4 Bft) W-SW 244 0 min 0,000 mm 0,0 UV-I 15 W/m 6,2 C 1,3 C 37,0 km/h (5 Bft) 100,00 %
22.12.2018 15:36 8,7 C 3,9 C 7,2 C 83 % 1015,4 hPa 0,0 l/m 23,4 km/h (4 Bft) W-SW 247 0 min 0,000 mm 0,0 UV-I 14 W/m 6,0 C 0,5 C 32,2 km/h (5 Bft) 95,74 %
22.12.2018 15:38 8,8 C 3,9 C 7,2 C 84 % 1015,5 hPa 0,0 l/m 24,3 km/h (4 Bft) W-SW 252 0 min 0,000 mm 0,0 UV-I 12 W/m 6,2 C 0,4 C 35,4 km/h (5 Bft) 97,87 %
22.12.2018 15:40 8,8 C 3,9 C 7,2 C 83 % 1015,5 hPa 0,0 l/m 27,8 km/h (4 Bft) W-SW 258 0 min 0,000 mm 0,0 UV-I 12 W/m 6,1 C -0,5 C 48,3 km/h (6 Bft) 94,00 %
22.12.2018 15:42 8,9 C 3,9 C 7,2 C 82 % 1015,6 hPa 0,0 l/m 24,3 km/h (4 Bft) W 279 0 min 0,000 mm 0,0 UV-I 11 W/m 6,0 C 0,5 C 32,2 km/h (5 Bft) 95,74 %
22.12.2018 15:44 9,0 C 3,9 C 7,2 C 82 % 1015,6 hPa 0,0 l/m 26,4 km/h (4 Bft) W 281 0 min 0,000 mm 0,0 UV-I 11 W/m 6,1 C 0,1 C 35,4 km/h (5 Bft) 97,87 %
22.12.2018 15:46 9,1 C 3,9 C 7,2 C 82 % 1015,7 hPa 0,0 l/m 23,8 km/h (4 Bft) W-SW 258 0 min 0,000 mm 0,0 UV-I 9 W/m 6,2 C 0,9 C 33,8 km/h (5 Bft) 95,74 %
22.12.2018 15:48 9,1 C 3,9 C 7,2 C 82 % 1015,8 hPa 0,0 l/m 20,5 km/h (4 Bft) W-SW 253 0 min 0,000 mm 0,0 UV-I 9 W/m 6,2 C 2,0 C 27,4 km/h (4 Bft) 98,00 %
22.12.2018 15:50 9,0 C 3,9 C 7,2 C 82 % 1015,9 hPa 0,0 l/m 22,5 km/h (4 Bft) W-NW 292 0 min 0,000 mm 0,0 UV-I 8 W/m 6,1 C 1,2 C 38,6 km/h (5 Bft) 97,14 %
22.12.2018 15:52 9,0 C 3,9 C 7,2 C 82 % 1015,9 hPa 0,0 l/m 24,8 km/h (4 Bft) W 275 0 min 0,000 mm 0,0 UV-I 7 W/m 6,1 C 0,5 C 40,2 km/h (6 Bft) 95,74 %
22.12.2018 15:54 9,0 C 3,9 C 7,8 C 82 % 1015,9 hPa 0,0 l/m 25,1 km/h (4 Bft) W-SW 253 0 min 0,000 mm 0,0 UV-I 6 W/m 6,1 C 0,5 C 38,6 km/h (5 Bft) 96,00 %
22.12.2018 15:56 9,1 C 3,9 C 7,8 C 82 % 1015,8 hPa 0,0 l/m 20,4 km/h (4 Bft) W-SW 253 0 min 0,000 mm 0,0 UV-I 5 W/m 6,2 C 2,0 C 29,0 km/h (5 Bft) 97,87 %
22.12.2018 15:58 9,1 C 3,9 C 7,8 C 82 % 1015,8 hPa 0,0 l/m 20,9 km/h (4 Bft) W-NW 296 0 min 0,000 mm 0,0 UV-I 5 W/m 6,2 C 1,8 C 32,2 km/h (5 Bft) 97,87 %
22.12.2018 16:00 9,1 C 3,9 C 7,8 C 82 % 1015,7 hPa 0,0 l/m 21,6 km/h (4 Bft) W 261 0 min 0,000 mm 0,0 UV-I 0 W/m 6,2 C 1,6 C 29,0 km/h (5 Bft) 97,87 %
22.12.2018 16:02 9,1 C 3,9 C 7,2 C 82 % 1015,7 hPa 0,0 l/m 20,7 km/h (4 Bft) W 262 0 min 0,051 mm 0,0 UV-I 0 W/m 6,2 C 1,9 C 33,8 km/h (5 Bft) 95,74 %
22.12.2018 16:04 9,1 C 3,9 C 7,2 C 82 % 1015,6 hPa 0,0 l/m 24,6 km/h (4 Bft) W 279 0 min 0,000 mm 0,0 UV-I 0 W/m 6,2 C 0,7 C 33,8 km/h (5 Bft) 100,00 %
22.12.2018 16:06 9,2 C 3,9 C 7,2 C 82 % 1015,7 hPa 0,0 l/m 26,8 km/h (4 Bft) W 268 0 min 0,000 mm 0,0 UV-I 0 W/m 6,3 C 0,3 C 41,8 km/h (6 Bft) 100,00 %
22.12.2018 16:08 9,2 C 3,9 C 7,2 C 82 % 1015,7 hPa 0,0 l/m 23,7 km/h (4 Bft) W 264 0 min 0,000 mm 0,0 UV-I 0 W/m 6,3 C 1,1 C 32,2 km/h (5 Bft) 100,00 %
22.12.2018 16:10 9,2 C 3,9 C 7,2 C 82 % 1015,8 hPa 0,0 l/m 24,9 km/h (4 Bft) W-SW 254 0 min 0,000 mm 0,0 UV-I 0 W/m 6,3 C 0,8 C 35,4 km/h (5 Bft) 100,00 %
22.12.2018 16:12 9,2 C 3,9 C 7,2 C 82 % 1015,8 hPa 0,0 l/m 22,1 km/h (4 Bft) W 275 0 min 0,000 mm 0,0 UV-I 0 W/m 6,3 C 1,6 C 30,6 km/h (5 Bft) 97,87 %
22.12.2018 16:14 9,2 C 3,9 C 7,2 C 81 % 1015,7 hPa 0,0 l/m 26,5 km/h (4 Bft) W 270 0 min 0,000 mm 0,0 UV-I 0 W/m 6,1 C 0,4 C 41,8 km/h (6 Bft) 100,00 %
22.12.2018 16:16 9,3 C 3,9 C 7,2 C 81 % 1015,9 hPa 0,0 l/m 25,6 km/h (4 Bft) W 280 0 min 0,000 mm 0,0 UV-I 0 W/m 6,2 C 0,7 C 40,2 km/h (6 Bft) 97,87 %
22.12.2018 16:18 9,3 C 3,9 C 7,2 C 81 % 1015,7 hPa 0,0 l/m 29,0 km/h (5 Bft) W-SW 244 0 min 0,000 mm 0,0 UV-I 0 W/m 6,2 C -0,1 C 38,6 km/h (5 Bft) 95,74 %
22.12.2018 16:20 9,4 C 3,9 C 7,2 C 81 % 1015,8 hPa 0,0 l/m 26,5 km/h (4 Bft) W 261 0 min 0,000 mm 0,0 UV-I 0 W/m 6,3 C 0,6 C 40,2 km/h (6 Bft) 95,74 %
22.12.2018 16:22 9,4 C 3,9 C 7,8 C 81 % 1015,8 hPa 0,0 l/m 25,5 km/h (4 Bft) W-SW 249 0 min 0,000 mm 0,0 UV-I 0 W/m 6,3 C 0,9 C 38,6 km/h (5 Bft) 96,23 %
22.12.2018 16:24 9,4 C 3,9 C 7,2 C 81 % 1015,7 hPa 0,0 l/m 28,0 km/h (4 Bft) W 259 0 min 0,000 mm 0,0 UV-I 0 W/m 6,3 C 0,3 C 43,5 km/h (6 Bft) 97,56 %
22.12.2018 16:26 9,4 C 3,9 C 7,2 C 81 % 1015,7 hPa 0,0 l/m 25,1 km/h (4 Bft) W 269 0 min 0,000 mm 0,0 UV-I 0 W/m 6,3 C 1,0 C 37,0 km/h (5 Bft) 97,87 %
22.12.2018 16:28 9,3 C 3,9 C 7,2 C 81 % 1015,6 hPa 0,0 l/m 28,9 km/h (5 Bft) W 273 0 min 0,000 mm 0,0 UV-I 0 W/m 6,2 C -0,1 C 48,3 km/h (6 Bft) 98,00 %
22.12.2018 16:30 9,3 C 3,9 C 7,2 C 81 % 1015,7 hPa 0,0 l/m 27,2 km/h (4 Bft) W 270 0 min 0,000 mm 0,0 UV-I 0 W/m 6,2 C 0,3 C 54,7 km/h (7 Bft) 97,87 %
22.12.2018 16:32 9,3 C 3,9 C 7,2 C 81 % 1015,7 hPa 0,0 l/m 29,9 km/h (5 Bft) W 271 0 min 0,000 mm 0,0 UV-I 0 W/m 6,2 C -0,3 C 48,3 km/h (6 Bft) 97,87 %
22.12.2018 16:34 9,3 C 3,9 C 7,2 C 81 % 1015,8 hPa 0,0 l/m 23,1 km/h (4 Bft) W-NW 285 0 min 0,000 mm 0,0 UV-I 0 W/m 6,2 C 1,4 C 41,8 km/h (6 Bft) 97,37 %
22.12.2018 16:36 9,3 C 3,9 C 7,2 C 81 % 1015,9 hPa 0,0 l/m 27,4 km/h (4 Bft) W 266 0 min 0,000 mm 0,0 UV-I 0 W/m 6,2 C 0,3 C 41,8 km/h (6 Bft) 93,62 %
22.12.2018 16:38 9,3 C 3,9 C 7,2 C 81 % 1015,9 hPa 0,0 l/m 27,4 km/h (4 Bft) W 279 0 min 0,000 mm 0,0 UV-I 0 W/m 6,2 C 0,3 C 56,3 km/h (7 Bft) 97,87 %
22.12.2018 16:40 9,3 C 3,9 C 7,2 C 81 % 1015,8 hPa 0,0 l/m 30,3 km/h (5 Bft) W-SW 248 0 min 0,000 mm 0,0 UV-I 0 W/m 6,2 C -0,4 C 53,1 km/h (7 Bft) 93,75 %
22.12.2018 16:42 9,3 C 3,9 C 7,2 C 81 % 1015,9 hPa 0,0 l/m 25,0 km/h (4 Bft) W 266 0 min 0,000 mm 0,0 UV-I 0 W/m 6,2 C 0,9 C 37,0 km/h (5 Bft) 95,74 %
22.12.2018 16:44 9,3 C 3,9 C 7,2 C 81 % 1016,0 hPa 0,0 l/m 38,8 km/h (5 Bft) W 279 0 min 0,000 mm 0,0 UV-I 0 W/m 6,2 C -2,0 C 56,3 km/h (7 Bft) 96,00 %
22.12.2018 16:46 9,3 C 3,9 C 7,2 C 81 % 1016,1 hPa 0,0 l/m 27,1 km/h (4 Bft) W 267 0 min 0,000 mm 0,0 UV-I 0 W/m 6,2 C 0,3 C 45,1 km/h (6 Bft) 95,74 %
22.12.2018 16:48 9,3 C 3,9 C 7,2 C 81 % 1016,4 hPa 0,0 l/m 28,7 km/h (4 Bft) W 275 0 min 0,000 mm 0,0 UV-I 0 W/m 6,2 C -0,0 C 46,7 km/h (6 Bft) 93,62 %
22.12.2018 16:50 9,2 C 3,9 C 7,2 C 80 % 1016,3 hPa 0,0 l/m 25,1 km/h (4 Bft) W-NW 292 0 min 0,000 mm 0,0 UV-I 0 W/m 5,9 C 0,7 C 48,3 km/h (6 Bft) 95,74 %
22.12.2018 16:52 9,2 C 3,9 C 7,2 C 80 % 1016,4 hPa 0,0 l/m 29,7 km/h (5 Bft) NW 316 0 min 0,000 mm 0,0 UV-I 0 W/m 5,9 C -0,4 C 43,5 km/h (6 Bft) 95,74 %
22.12.2018 16:54 9,1 C 3,9 C 7,2 C 79 % 1016,5 hPa 0,0 l/m 24,7 km/h (4 Bft) W-NW 287 0 min 0,000 mm 0,0 UV-I 0 W/m 5,7 C 0,7 C 41,8 km/h (6 Bft) 93,62 %
22.12.2018 16:56 9,1 C 3,9 C 7,2 C 78 % 1016,6 hPa 0,0 l/m 26,1 km/h (4 Bft) W-SW 248 0 min 0,000 mm 0,0 UV-I 0 W/m 5,5 C 0,3 C 35,4 km/h (5 Bft) 91,49 %
22.12.2018 16:58 9,0 C 3,9 C 7,2 C 77 % 1016,6 hPa 0,0 l/m 34,8 km/h (5 Bft) W-NW 283 0 min 0,000 mm 0,0 UV-I 0 W/m 5,2 C -1,7 C 51,5 km/h (7 Bft) 93,62 %
22.12.2018 17:00 8,9 C 3,9 C 6,7 C 76 % 1016,7 hPa 0,0 l/m 21,7 km/h (4 Bft) W 270 0 min 0,000 mm 0,0 UV-I 0 W/m 4,9 C 1,3 C 33,8 km/h (5 Bft) 91,49 %
22.12.2018 17:02 8,9 C 3,9 C 6,7 C 77 % 1016,6 hPa 0,0 l/m 32,4 km/h (5 Bft) W-NW 290 0 min 0,051 mm 0,0 UV-I 0 W/m 5,1 C -1,4 C 66,0 km/h (8 Bft) 88,00 %
22.12.2018 17:04 8,8 C 3,9 C 6,7 C 77 % 1016,6 hPa 0,0 l/m 33,4 km/h (5 Bft) SW 235 0 min 0,000 mm 0,0 UV-I 0 W/m 5,0 C -1,7 C 46,7 km/h (6 Bft) 93,62 %
22.12.2018 17:06 8,8 C 3,9 C 6,7 C 76 % 1016,7 hPa 0,0 l/m 35,8 km/h (5 Bft) W 259 0 min 0,000 mm 0,0 UV-I 0 W/m 4,8 C -2,2 C 54,7 km/h (7 Bft) 89,47 %
22.12.2018 17:08 8,8 C 3,9 C 6,7 C 77 % 1016,7 hPa 0,0 l/m 32,2 km/h (5 Bft) W-SW 240 0 min 0,000 mm 0,0 UV-I 0 W/m 5,0 C -1,5 C 46,7 km/h (6 Bft) 93,62 %
22.12.2018 17:10 8,7 C 3,9 C 6,7 C 77 % 1016,8 hPa 0,0 l/m 27,3 km/h (4 Bft) SW 235 0 min 0,000 mm 0,0 UV-I 0 W/m 4,9 C -0,5 C 43,5 km/h (6 Bft) 95,74 %
22.12.2018 17:12 8,7 C 3,9 C 6,7 C 76 % 1016,6 hPa 0,0 l/m 35,2 km/h (5 Bft) W-SW 245 0 min 0,000 mm 0,0 UV-I 0 W/m 4,7 C -2,2 C 59,5 km/h (7 Bft) 93,62 %
22.12.2018 17:14 8,7 C 3,9 C 6,7 C 75 % 1016,8 hPa 0,0 l/m 27,9 km/h (4 Bft) W-SW 242 0 min 0,000 mm 0,0 UV-I 0 W/m 4,5 C -0,7 C 43,5 km/h (6 Bft) 93,62 %
22.12.2018 17:16 8,6 C 3,9 C 6,7 C 75 % 1017,0 hPa 0,0 l/m 29,5 km/h (5 Bft) W 273 0 min 0,000 mm 0,0 UV-I 0 W/m 4,4 C -1,2 C 40,2 km/h (6 Bft) 93,62 %
22.12.2018 17:18 8,7 C 3,9 C 6,7 C 74 % 1017,2 hPa 0,0 l/m 31,3 km/h (5 Bft) W-NW 298 0 min 0,000 mm 0,0 UV-I 0 W/m 4,3 C -1,5 C 48,3 km/h (6 Bft) 95,74 %
22.12.2018 17:20 8,7 C 3,9 C 6,7 C 75 % 1017,0 hPa 0,0 l/m 32,3 km/h (5 Bft) W 266 0 min 0,000 mm 0,0 UV-I 0 W/m 4,5 C -1,7 C 67,6 km/h (8 Bft) 95,83 %
22.12.2018 17:22 8,6 C 3,9 C 6,1 C 76 % 1017,1 hPa 0,0 l/m 32,4 km/h (5 Bft) W 276 0 min 0,000 mm 0,0 UV-I 0 W/m 4,6 C -1,8 C 51,5 km/h (7 Bft) 97,87 %
22.12.2018 17:24 8,3 C 3,9 C 6,1 C 78 % 1017,1 hPa 0,0 l/m 21,6 km/h (4 Bft) W-SW 254 0 min 0,000 mm 0,0 UV-I 0 W/m 4,7 C 0,6 C 30,6 km/h (5 Bft) 100,00 %
22.12.2018 17:26 8,1 C 3,9 C 6,1 C 79 % 1017,0 hPa 0,0 l/m 22,6 km/h (4 Bft) W-SW 257 0 min 0,000 mm 0,0 UV-I 0 W/m 4,7 C -0,0 C 38,6 km/h (5 Bft) 93,62 %
22.12.2018 17:28 7,8 C 3,9 C 5,6 C 80 % 1017,0 hPa 0,0 l/m 16,5 km/h (3 Bft) W 266 0 min 0,000 mm 0,0 UV-I 0 W/m 4,6 C 1,8 C 27,4 km/h (4 Bft) 97,87 %
22.12.2018 17:30 7,8 C 3,9 C 5,6 C 80 % 1017,0 hPa 0,0 l/m 17,2 km/h (3 Bft) W 263 0 min 0,000 mm 0,0 UV-I 0 W/m 4,6 C 1,5 C 27,4 km/h (4 Bft) 100,00 %
22.12.2018 17:32 7,7 C 3,9 C 5,6 C 81 % 1017,1 hPa 0,0 l/m 18,1 km/h (3 Bft) W-SW 250 0 min 0,000 mm 0,0 UV-I 0 W/m 4,7 C 1,0 C 29,0 km/h (5 Bft) 97,87 %
22.12.2018 17:34 7,7 C 3,9 C 5,6 C 81 % 1017,1 hPa 0,0 l/m 18,2 km/h (3 Bft) W-NW 284 0 min 0,000 mm 0,0 UV-I 0 W/m 4,7 C 1,0 C 25,7 km/h (4 Bft) 100,00 %
22.12.2018 17:36 7,6 C 3,9 C 5,6 C 81 % 1017,2 hPa 0,0 l/m 19,9 km/h (4 Bft) SW 236 0 min 0,000 mm 0,0 UV-I 0 W/m 4,6 C 0,2 C 29,0 km/h (5 Bft) 97,87 %
22.12.2018 17:38 7,6 C 3,9 C 5,6 C 81 % 1017,3 hPa 0,0 l/m 16,6 km/h (3 Bft) W-NW 284 0 min 0,000 mm 0,0 UV-I 0 W/m 4,6 C 1,5 C 22,5 km/h (4 Bft) 95,74 %
22.12.2018 17:40 7,6 C 3,9 C 5,6 C 81 % 1017,3 hPa 0,0 l/m 17,0 km/h (3 Bft) W 270 0 min 0,000 mm 0,0 UV-I 0 W/m 4,6 C 1,3 C 27,4 km/h (4 Bft) 95,74 %
22.12.2018 17:42 7,6 C 3,9 C 5,6 C 82 % 1017,2 hPa 0,0 l/m 18,7 km/h (3 Bft) W 270 0 min 0,000 mm 0,0 UV-I 0 W/m 4,7 C 0,7 C 29,0 km/h (5 Bft) 100,00 %
22.12.2018 17:44 7,6 C 3,9 C 5,6 C 82 % 1017,3 hPa 0,0 l/m 16,6 km/h (3 Bft) W 263 0 min 0,000 mm 0,0 UV-I 0 W/m 4,7 C 1,5 C 27,4 km/h (4 Bft) 98,00 %
22.12.2018 17:46 7,6 C 3,9 C 6,1 C 82 % 1017,3 hPa 0,0 l/m 23,0 km/h (4 Bft) W 273 0 min 0,000 mm 0,0 UV-I 0 W/m 4,7 C -0,8 C 35,4 km/h (5 Bft) 100,00 %
22.12.2018 17:48 7,6 C 3,9 C 6,1 C 82 % 1017,3 hPa 0,0 l/m 16,1 km/h (3 Bft) W 259 0 min 0,000 mm 0,0 UV-I 0 W/m 4,7 C 1,7 C 22,5 km/h (4 Bft) 100,00 %
22.12.2018 17:50 7,7 C 3,9 C 6,1 C 82 % 1017,4 hPa 0,0 l/m 18,2 km/h (3 Bft) W 279 0 min 0,000 mm 0,0 UV-I 0 W/m 4,8 C 1,0 C 27,4 km/h (4 Bft) 100,00 %
22.12.2018 17:52 7,7 C 3,9 C 6,1 C 82 % 1017,4 hPa 0,0 l/m 21,0 km/h (4 Bft) W-SW 255 0 min 0,000 mm 0,0 UV-I 0 W/m 4,8 C -0,0 C 37,0 km/h (5 Bft) 97,37 %
22.12.2018 17:54 7,8 C 3,9 C 6,1 C 83 % 1017,4 hPa 0,0 l/m 23,9 km/h (4 Bft) W-SW 238 0 min 0,000 mm 0,0 UV-I 0 W/m 5,1 C -0,8 C 35,4 km/h (5 Bft) 100,00 %
22.12.2018 17:56 7,8 C 3,9 C 6,1 C 83 % 1017,4 hPa 0,0 l/m 24,9 km/h (4 Bft) W-SW 237 0 min 0,000 mm 0,0 UV-I 0 W/m 5,1 C -1,1 C 32,2 km/h (5 Bft) 100,00 %
22.12.2018 17:58 7,9 C 3,9 C 6,1 C 83 % 1017,6 hPa 0,0 l/m 21,4 km/h (4 Bft) W 263 0 min 0,000 mm 0,0 UV-I 0 W/m 5,2 C 0,1 C 37,0 km/h (5 Bft) 97,87 %
22.12.2018 18:00 7,9 C 3,9 C 6,1 C 82 % 1017,5 hPa 0,0 l/m 18,8 km/h (3 Bft) W-SW 251 0 min 0,050 mm 0,0 UV-I 0 W/m 5,0 C 1,0 C 27,4 km/h (4 Bft) 100,00 %
22.12.2018 18:02 8,0 C 3,9 C 6,7 C 82 % 1017,5 hPa 0,0 l/m 16,8 km/h (3 Bft) W-NW 289 0 min 0,000 mm 0,0 UV-I 0 W/m 5,1 C 1,9 C 27,4 km/h (4 Bft) 100,00 %
22.12.2018 18:04 8,0 C 3,9 C 6,7 C 82 % 1017,6 hPa 0,0 l/m 14,8 km/h (3 Bft) W-SW 244 0 min 0,000 mm 0,0 UV-I 0 W/m 5,1 C 2,8 C 20,9 km/h (4 Bft) 100,00 %
22.12.2018 18:06 8,0 C 3,9 C 6,7 C 83 % 1017,5 hPa 0,0 l/m 16,8 km/h (3 Bft) W-SW 252 0 min 0,000 mm 0,0 UV-I 0 W/m 5,3 C 1,9 C 29,0 km/h (5 Bft) 95,74 %
22.12.2018 18:08 8,1 C 3,9 C 6,7 C 83 % 1017,5 hPa 0,0 l/m 20,6 km/h (4 Bft) W 267 0 min 0,000 mm 0,0 UV-I 0 W/m 5,4 C 0,6 C 35,4 km/h (5 Bft) 100,00 %
22.12.2018 18:10 8,1 C 3,9 C 6,7 C 83 % 1017,6 hPa 0,0 l/m 20,6 km/h (4 Bft) W-SW 246 0 min 0,000 mm 0,0 UV-I 0 W/m 5,4 C 0,6 C 30,6 km/h (5 Bft) 100,00 %
22.12.2018 18:12 8,1 C 3,9 C 6,7 C 83 % 1017,6 hPa 0,0 l/m 19,5 km/h (3 Bft) W-SW 238 0 min 0,000 mm 0,0 UV-I 0 W/m 5,4 C 1,0 C 29,0 km/h (5 Bft) 100,00 %
22.12.2018 18:14 8,2 C 3,9 C 6,7 C 83 % 1017,7 hPa 0,0 l/m 17,6 km/h (3 Bft) SW 234 0 min 0,000 mm 0,0 UV-I 0 W/m 5,5 C 1,9 C 25,7 km/h (4 Bft) 100,00 %
22.12.2018 18:16 8,2 C 3,9 C 6,7 C 83 % 1017,8 hPa 0,0 l/m 20,3 km/h (4 Bft) W 260 0 min 0,000 mm 0,0 UV-I 0 W/m 5,5 C 0,9 C 37,0 km/h (5 Bft) 100,00 %
22.12.2018 18:18 8,2 C 3,9 C 6,7 C 83 % 1017,8 hPa 0,0 l/m 18,1 km/h (3 Bft) SW 227 0 min 0,000 mm 0,0 UV-I 0 W/m 5,5 C 1,7 C 25,7 km/h (4 Bft) 100,00 %
22.12.2018 18:20 8,1 C 3,9 C 6,7 C 83 % 1017,8 hPa 0,0 l/m 14,9 km/h (3 Bft) S-SW 207 0 min 0,000 mm 0,0 UV-I 0 W/m 5,4 C 2,9 C 25,7 km/h (4 Bft) 97,87 %
22.12.2018 18:22 7,9 C 3,9 C 6,7 C 83 % 1017,9 hPa 0,0 l/m 17,4 km/h (3 Bft) W-SW 239 0 min 0,000 mm 0,0 UV-I 0 W/m 5,2 C 1,6 C 24,1 km/h (4 Bft) 96,00 %
22.12.2018 18:24 7,8 C 3,9 C 6,7 C 84 % 1017,9 hPa 0,0 l/m 18,0 km/h (3 Bft) S-SW 213 0 min 0,000 mm 0,0 UV-I 0 W/m 5,3 C 1,2 C 25,7 km/h (4 Bft) 97,87 %
22.12.2018 18:26 7,7 C 3,9 C 6,7 C 84 % 1018,0 hPa 0,0 l/m 18,5 km/h (3 Bft) SW 230 0 min 0,000 mm 0,0 UV-I 0 W/m 5,2 C 0,9 C 29,0 km/h (5 Bft) 97,87 %
22.12.2018 18:28 7,6 C 3,9 C 6,7 C 85 % 1018,0 hPa 0,0 l/m 15,9 km/h (3 Bft) SW 222 0 min 0,000 mm 0,0 UV-I 0 W/m 5,2 C 1,8 C 24,1 km/h (4 Bft) 97,87 %
22.12.2018 18:30 7,6 C 3,9 C 6,7 C 85 % 1018,0 hPa 0,0 l/m 17,5 km/h (3 Bft) W-SW 256 0 min 0,000 mm 0,0 UV-I 0 W/m 5,2 C 1,1 C 27,4 km/h (4 Bft) 97,87 %
22.12.2018 18:32 7,6 C 3,9 C 6,7 C 85 % 1018,0 hPa 0,0 l/m 16,9 km/h (3 Bft) SW 224 0 min 0,000 mm 0,0 UV-I 0 W/m 5,2 C 1,4 C 29,0 km/h (5 Bft) 95,74 %
22.12.2018 18:34 7,6 C 3,9 C 6,7 C 85 % 1018,0 hPa 0,0 l/m 19,7 km/h (3 Bft) SW 234 0 min 0,000 mm 0,0 UV-I 0 W/m 5,2 C 0,3 C 25,7 km/h (4 Bft) 94,87 %
22.12.2018 18:36 7,6 C 3,9 C 6,7 C 85 % 1017,9 hPa 0,0 l/m 18,4 km/h (3 Bft) SW 235 0 min 0,000 mm 0,0 UV-I 0 W/m 5,2 C 0,8 C 32,2 km/h (5 Bft) 93,62 %
22.12.2018 18:38 7,7 C 3,9 C 6,7 C 85 % 1017,9 hPa 0,0 l/m 15,9 km/h (3 Bft) SW 219 0 min 0,000 mm 0,0 UV-I 0 W/m 5,3 C 1,9 C 29,0 km/h (5 Bft) 97,87 %
22.12.2018 18:40 7,7 C 3,9 C 6,7 C 85 % 1017,9 hPa 0,0 l/m 19,5 km/h (3 Bft) SW 228 0 min 0,000 mm 0,0 UV-I 0 W/m 5,3 C 0,5 C 29,0 km/h (5 Bft) 97,87 %
22.12.2018 18:42 7,7 C 3,9 C 6,7 C 85 % 1017,9 hPa 0,0 l/m 18,2 km/h (3 Bft) S-SW 213 0 min 0,000 mm 0,0 UV-I 0 W/m 5,3 C 1,0 C 27,4 km/h (4 Bft) 96,00 %
22.12.2018 18:44 7,7 C 3,9 C 6,7 C 85 % 1018,0 hPa 0,0 l/m 15,5 km/h (3 Bft) SW 228 0 min 0,000 mm 0,0 UV-I 0 W/m 5,3 C 2,1 C 24,1 km/h (4 Bft) 97,87 %
22.12.2018 18:46 7,6 C 3,9 C 6,1 C 85 % 1017,9 hPa 0,0 l/m 14,2 km/h (3 Bft) SW 218 0 min 0,000 mm 0,0 UV-I 0 W/m 5,2 C 2,6 C 24,1 km/h (4 Bft) 95,74 %
22.12.2018 18:48 7,6 C 3,9 C 6,7 C 85 % 1017,9 hPa 0,0 l/m 17,8 km/h (3 Bft) SW 216 0 min 0,000 mm 0,0 UV-I 0 W/m 5,2 C 1,0 C 27,4 km/h (4 Bft) 100,00 %
22.12.2018 18:50 7,6 C 3,9 C 6,7 C 86 % 1018,0 hPa 0,0 l/m 18,9 km/h (3 Bft) SW 232 0 min 0,000 mm 0,0 UV-I 0 W/m 5,4 C 0,6 C 30,6 km/h (5 Bft) 95,74 %
22.12.2018 18:52 7,6 C 3,9 C 6,7 C 86 % 1018,1 hPa 0,0 l/m 16,2 km/h (3 Bft) W 259 0 min 0,000 mm 0,0 UV-I 0 W/m 5,4 C 1,7 C 25,7 km/h (4 Bft) 97,37 %
22.12.2018 18:54 7,6 C 3,9 C 6,7 C 86 % 1018,1 hPa 0,0 l/m 16,2 km/h (3 Bft) W-SW 240 0 min 0,000 mm 0,0 UV-I 0 W/m 5,4 C 1,7 C 25,7 km/h (4 Bft) 97,87 %
22.12.2018 18:56 7,6 C 3,9 C 6,7 C 86 % 1018,2 hPa 0,0 l/m 14,9 km/h (3 Bft) SW 236 0 min 0,000 mm 0,0 UV-I 0 W/m 5,4 C 2,3 C 22,5 km/h (4 Bft) 96,00 %
22.12.2018 18:58 7,7 C 3,9 C 6,7 C 86 % 1018,2 hPa 0,0 l/m 16,6 km/h (3 Bft) W-SW 253 0 min 0,000 mm 0,0 UV-I 0 W/m 5,5 C 1,6 C 27,4 km/h (4 Bft) 95,74 %
22.12.2018 19:00 7,7 C 3,9 C 6,7 C 86 % 1018,2 hPa 0,0 l/m 13,8 km/h (3 Bft) W-SW 243 0 min 0,000 mm 0,0 UV-I 0 W/m 5,5 C 2,9 C 22,5 km/h (4 Bft) 93,62 %
22.12.2018 19:02 7,7 C 3,9 C 6,7 C 86 % 1018,1 hPa 0,0 l/m 15,3 km/h (3 Bft) W-SW 250 0 min 0,026 mm 0,0 UV-I 0 W/m 5,5 C 2,2 C 24,1 km/h (4 Bft) 97,87 %
22.12.2018 19:04 7,7 C 3,9 C 6,7 C 86 % 1018,0 hPa 0,0 l/m 13,4 km/h (3 Bft) SW 219 0 min 0,000 mm 0,0 UV-I 0 W/m 5,5 C 3,1 C 20,9 km/h (4 Bft) 95,74 %
22.12.2018 19:06 7,7 C 3,9 C 6,7 C 86 % 1018,1 hPa 0,0 l/m 12,2 km/h (2 Bft) SW 224 0 min 0,000 mm 0,0 UV-I 0 W/m 5,5 C 3,8 C 19,3 km/h (3 Bft) 93,62 %
22.12.2018 19:08 7,7 C 3,9 C 6,7 C 86 % 1018,1 hPa 0,0 l/m 9,8 km/h (2 Bft) W-SW 251 0 min 0,000 mm 0,0 UV-I 0 W/m 5,5 C 5,2 C 16,1 km/h (3 Bft) 97,87 %
22.12.2018 19:10 7,7 C 3,9 C 6,7 C 86 % 1018,2 hPa 0,0 l/m 13,1 km/h (3 Bft) SW 234 0 min 0,000 mm 0,0 UV-I 0 W/m 5,5 C 3,3 C 20,9 km/h (4 Bft) 97,87 %
22.12.2018 19:12 7,7 C 3,9 C 6,7 C 86 % 1018,1 hPa 0,0 l/m 14,8 km/h (3 Bft) W-SW 257 0 min 0,000 mm 0,0 UV-I 0 W/m 5,5 C 2,4 C 22,5 km/h (4 Bft) 98,00 %
22.12.2018 19:14 7,7 C 3,9 C 6,7 C 86 % 1018,3 hPa 0,0 l/m 14,5 km/h (3 Bft) SW 235 0 min 0,000 mm 0,0 UV-I 0 W/m 5,5 C 2,6 C 24,1 km/h (4 Bft) 97,44 %
22.12.2018 19:16 7,8 C 3,9 C 6,7 C 86 % 1018,4 hPa 0,0 l/m 13,7 km/h (3 Bft) W-NW 292 0 min 0,000 mm 0,0 UV-I 0 W/m 5,6 C 3,1 C 24,1 km/h (4 Bft) 97,87 %
22.12.2018 19:18 7,8 C 3,9 C 6,7 C 86 % 1018,4 hPa 0,0 l/m 16,8 km/h (3 Bft) W 267 0 min 0,000 mm 0,0 UV-I 0 W/m 5,6 C 1,7 C 27,4 km/h (4 Bft) 93,62 %
22.12.2018 19:20 7,8 C 3,9 C 6,7 C 86 % 1018,4 hPa 0,0 l/m 16,4 km/h (3 Bft) W 271 0 min 0,000 mm 0,0 UV-I 0 W/m 5,6 C 1,8 C 24,1 km/h (4 Bft) 97,87 %
22.12.2018 19:22 7,8 C 3,9 C 6,7 C 86 % 1018,4 hPa 0,2 l/m 17,6 km/h (3 Bft) W 275 0 min 0,000 mm 0,0 UV-I 0 W/m 5,6 C 1,4 C 25,7 km/h (4 Bft) 97,87 %
22.12.2018 19:24 7,8 C 3,9 C 6,7 C 86 % 1018,4 hPa 0,0 l/m 18,3 km/h (3 Bft) W-NW 291 0 min 0,000 mm 0,0 UV-I 0 W/m 5,6 C 1,1 C 41,8 km/h (6 Bft) 96,00 %
22.12.2018 19:26 7,7 C 3,9 C 6,7 C 87 % 1018,4 hPa 0,2 l/m 18,9 km/h (3 Bft) W 279 0 min 0,000 mm 0,0 UV-I 0 W/m 5,7 C 0,7 C 29,0 km/h (5 Bft) 100,00 %
22.12.2018 19:28 7,6 C 3,9 C 6,7 C 87 % 1018,5 hPa 0,2 l/m 19,2 km/h (3 Bft) W 271 0 min 0,000 mm 0,0 UV-I 0 W/m 5,6 C 0,5 C 32,2 km/h (5 Bft) 100,00 %
22.12.2018 19:30 7,5 C 3,9 C 6,1 C 88 % 1018,5 hPa 0,2 l/m 27,2 km/h (4 Bft) W 266 0 min 0,000 mm 0,0 UV-I 0 W/m 5,6 C -2,2 C 45,1 km/h (6 Bft) 97,87 %
22.12.2018 19:32 7,4 C 3,9 C 6,1 C 88 % 1018,4 hPa 0,2 l/m 21,1 km/h (4 Bft) W 272 0 min 0,000 mm 0,0 UV-I 0 W/m 5,5 C -0,5 C 37,0 km/h (5 Bft) 97,87 %
22.12.2018 19:34 7,3 C 3,9 C 6,1 C 89 % 1018,2 hPa 0,2 l/m 23,8 km/h (4 Bft) W-SW 250 0 min 0,000 mm 0,0 UV-I 0 W/m 5,6 C -1,5 C 45,1 km/h (6 Bft) 100,00 %
22.12.2018 19:36 7,2 C 3,9 C 6,1 C 89 % 1018,3 hPa 0,0 l/m 25,8 km/h (4 Bft) W 266 0 min 0,000 mm 0,0 UV-I 0 W/m 5,5 C -2,2 C 43,5 km/h (6 Bft) 97,87 %
22.12.2018 19:38 7,2 C 3,9 C 6,1 C 90 % 1018,3 hPa 0,2 l/m 25,8 km/h (4 Bft) W 265 0 min 0,000 mm 0,0 UV-I 0 W/m 5,7 C -2,2 C 38,6 km/h (5 Bft) 97,87 %
22.12.2018 19:40 7,1 C 3,9 C 6,1 C 90 % 1018,2 hPa 0,0 l/m 17,3 km/h (3 Bft) W-SW 255 0 min 0,000 mm 0,0 UV-I 0 W/m 5,6 C 0,6 C 32,2 km/h (5 Bft) 100,00 %
22.12.2018 19:42 7,1 C 3,9 C 6,1 C 90 % 1018,3 hPa 0,0 l/m 19,3 km/h (3 Bft) W-NW 288 0 min 0,000 mm 0,0 UV-I 0 W/m 5,6 C -0,2 C 29,0 km/h (5 Bft) 96,00 %
22.12.2018 19:44 7,1 C 3,9 C 6,1 C 90 % 1018,3 hPa 0,0 l/m 20,4 km/h (4 Bft) W 263 0 min 0,000 mm 0,0 UV-I 0 W/m 5,6 C -0,6 C 32,2 km/h (5 Bft) 97,87 %
22.12.2018 19:46 7,0 C 3,9 C 6,1 C 91 % 1018,4 hPa 0,2 l/m 21,9 km/h (4 Bft) W 265 0 min 0,000 mm 0,0 UV-I 0 W/m 5,6 C -1,3 C 33,8 km/h (5 Bft) 95,74 %
22.12.2018 19:48 7,0 C 3,9 C 6,1 C 91 % 1018,4 hPa 0,0 l/m 21,4 km/h (4 Bft) W-NW 287 0 min 0,000 mm 0,0 UV-I 0 W/m 5,6 C -1,1 C 35,4 km/h (5 Bft) 95,74 %
22.12.2018 19:50 7,1 C 3,9 C 6,1 C 91 % 1018,4 hPa 0,0 l/m 21,1 km/h (4 Bft) W 273 0 min 0,000 mm 0,0 UV-I 0 W/m 5,7 C -0,9 C 32,2 km/h (5 Bft) 97,87 %
22.12.2018 19:52 7,1 C 3,9 C 6,1 C 91 % 1018,4 hPa 0,0 l/m 20,5 km/h (4 Bft) W 265 0 min 0,000 mm 0,0 UV-I 0 W/m 5,7 C -0,6 C 32,2 km/h (5 Bft) 95,74 %
22.12.2018 19:54 7,1 C 3,9 C 6,1 C 91 % 1018,3 hPa 0,2 l/m 16,0 km/h (3 Bft) W-SW 242 0 min 0,000 mm 0,0 UV-I 0 W/m 5,7 C 1,2 C 25,7 km/h (4 Bft) 95,74 %
22.12.2018 19:56 7,0 C 3,9 C 6,1 C 91 % 1018,4 hPa 0,0 l/m 18,8 km/h (3 Bft) SW 234 0 min 0,000 mm 0,0 UV-I 0 W/m 5,6 C -0,1 C 30,6 km/h (5 Bft) 97,44 %
22.12.2018 19:58 7,0 C 3,9 C 6,1 C 91 % 1018,3 hPa 0,2 l/m 20,2 km/h (4 Bft) W-NW 296 0 min 0,000 mm 0,0 UV-I 0 W/m 5,6 C -0,7 C 29,0 km/h (5 Bft) 96,00 %
22.12.2018 20:00 7,1 C 3,9 C 6,1 C 91 % 1018,4 hPa 0,0 l/m 22,4 km/h (4 Bft) W 276 0 min 0,000 mm 0,0 UV-I 0 W/m 5,7 C -1,3 C 30,6 km/h (5 Bft) 95,74 %
22.12.2018 20:02 7,1 C 3,9 C 6,1 C 91 % 1018,4 hPa 0,0 l/m 19,0 km/h (3 Bft) W 275 0 min 0,025 mm 0,0 UV-I 0 W/m 5,7 C -0,1 C 29,0 km/h (5 Bft) 97,87 %
22.12.2018 20:04 7,1 C 3,9 C 6,1 C 91 % 1018,4 hPa 0,0 l/m 16,7 km/h (3 Bft) W 273 0 min 0,000 mm 0,0 UV-I 0 W/m 5,7 C 0,9 C 27,4 km/h (4 Bft) 95,74 %
22.12.2018 20:06 7,1 C 3,9 C 6,1 C 91 % 1018,4 hPa 0,0 l/m 16,7 km/h (3 Bft) W 265 0 min 0,000 mm 0,0 UV-I 0 W/m 5,7 C 0,9 C 27,4 km/h (4 Bft) 98,00 %
22.12.2018 20:08 7,1 C 3,9 C 6,1 C 91 % 1018,5 hPa 0,0 l/m 16,0 km/h (3 Bft) W-NW 285 0 min 0,000 mm 0,0 UV-I 0 W/m 5,7 C 1,2 C 24,1 km/h (4 Bft) 97,87 %
22.12.2018 20:10 7,1 C 3,9 C 6,1 C 91 % 1018,6 hPa 0,0 l/m 16,6 km/h (3 Bft) W-SW 248 0 min 0,000 mm 0,0 UV-I 0 W/m 5,7 C 0,9 C 25,7 km/h (4 Bft) 93,62 %
22.12.2018 20:12 7,0 C 3,9 C 6,1 C 92 % 1018,6 hPa 0,0 l/m 15,9 km/h (3 Bft) W-SW 241 0 min 0,000 mm 0,0 UV-I 0 W/m 5,8 C 1,1 C 24,1 km/h (4 Bft) 91,49 %
22.12.2018 20:14 7,0 C 3,9 C 6,1 C 92 % 1018,6 hPa 0,0 l/m 15,3 km/h (3 Bft) W-SW 254 0 min 0,000 mm 0,0 UV-I 0 W/m 5,8 C 1,4 C 25,7 km/h (4 Bft) 86,84 %
22.12.2018 20:16 7,0 C 3,9 C 6,1 C 92 % 1018,6 hPa 0,0 l/m 11,7 km/h (2 Bft) W 259 0 min 0,000 mm 0,0 UV-I 0 W/m 5,8 C 3,2 C 16,1 km/h (3 Bft) 98,00 %
22.12.2018 20:18 6,9 C 3,9 C 6,1 C 92 % 1018,6 hPa 0,0 l/m 15,7 km/h (3 Bft) W-NW 287 0 min 0,000 mm 0,0 UV-I 0 W/m 5,7 C 1,1 C 29,0 km/h (5 Bft) 97,87 %
22.12.2018 20:20 6,9 C 3,9 C 6,1 C 92 % 1018,6 hPa 0,0 l/m 13,7 km/h (3 Bft) W-SW 250 0 min 0,000 mm 0,0 UV-I 0 W/m 5,7 C 2,0 C 19,3 km/h (3 Bft) 97,87 %
22.12.2018 20:22 6,9 C 3,9 C 6,1 C 92 % 1018,6 hPa 0,2 l/m 20,5 km/h (4 Bft) W-SW 255 0 min 0,000 mm 0,0 UV-I 0 W/m 5,7 C -0,9 C 27,4 km/h (4 Bft) 96,00 %
22.12.2018 20:24 7,0 C 3,9 C 6,1 C 92 % 1018,7 hPa 0,0 l/m 16,7 km/h (3 Bft) W-SW 251 0 min 0,000 mm 0,0 UV-I 0 W/m 5,8 C 0,7 C 25,7 km/h (4 Bft) 97,87 %
22.12.2018 20:26 7,1 C 3,9 C 6,1 C 92 % 1018,7 hPa 0,2 l/m 15,6 km/h (3 Bft) W-SW 249 0 min 0,000 mm 0,0 UV-I 0 W/m 5,9 C 1,3 C 20,9 km/h (4 Bft) 98,00 %
22.12.2018 20:28 7,1 C 3,9 C 6,7 C 93 % 1018,6 hPa 0,0 l/m 15,2 km/h (3 Bft) W 278 0 min 0,000 mm 0,0 UV-I 0 W/m 6,0 C 1,5 C 22,5 km/h (4 Bft) 97,87 %
22.12.2018 20:30 7,1 C 3,9 C 6,7 C 93 % 1018,6 hPa 0,0 l/m 19,9 km/h (4 Bft) W-SW 246 0 min 0,000 mm 0,0 UV-I 0 W/m 6,0 C -0,4 C 25,7 km/h (4 Bft) 97,87 %
22.12.2018 20:32 7,1 C 3,9 C 6,7 C 93 % 1018,7 hPa 0,0 l/m 19,0 km/h (3 Bft) W-SW 239 0 min 0,000 mm 0,0 UV-I 0 W/m 6,0 C -0,1 C 29,0 km/h (5 Bft) 95,74 %
22.12.2018 20:34 7,1 C 3,9 C 6,7 C 93 % 1018,8 hPa 0,0 l/m 17,2 km/h (3 Bft) W-SW 258 0 min 0,000 mm 0,0 UV-I 0 W/m 6,0 C 0,6 C 27,4 km/h (4 Bft) 97,22 %
22.12.2018 20:36 7,1 C 3,9 C 6,7 C 93 % 1018,9 hPa 0,2 l/m 16,1 km/h (3 Bft) W-SW 256 0 min 0,000 mm 0,0 UV-I 0 W/m 6,0 C 1,1 C 22,5 km/h (4 Bft) 97,87 %
22.12.2018 20:38 7,1 C 3,9 C 6,7 C 93 % 1018,7 hPa 0,2 l/m 15,2 km/h (3 Bft) W 259 0 min 0,000 mm 0,0 UV-I 0 W/m 6,0 C 1,5 C 24,1 km/h (4 Bft) 95,74 %
22.12.2018 20:40 7,1 C 3,9 C 6,7 C 93 % 1018,7 hPa 0,0 l/m 16,6 km/h (3 Bft) W-SW 243 0 min 0,000 mm 0,0 UV-I 0 W/m 6,0 C 0,9 C 25,7 km/h (4 Bft) 98,11 %
22.12.2018 20:42 7,1 C 3,9 C 6,7 C 93 % 1018,6 hPa 0,0 l/m 18,0 km/h (3 Bft) W-SW 254 0 min 0,000 mm 0,0 UV-I 0 W/m 6,0 C 0,3 C 24,1 km/h (4 Bft) 97,87 %
22.12.2018 20:44 7,1 C 3,9 C 6,7 C 93 % 1018,7 hPa 0,0 l/m 19,7 km/h (3 Bft) W-NW 282 0 min 0,000 mm 0,0 UV-I 0 W/m 6,0 C -0,3 C 40,2 km/h (6 Bft) 95,74 %
22.12.2018 20:46 7,1 C 3,9 C 6,7 C 93 % 1018,7 hPa 0,2 l/m 17,3 km/h (3 Bft) W-SW 244 0 min 0,000 mm 0,0 UV-I 0 W/m 6,0 C 0,6 C 30,6 km/h (5 Bft) 95,74 %
22.12.2018 20:48 7,1 C 3,9 C 6,7 C 93 % 1018,7 hPa 0,0 l/m 21,8 km/h (4 Bft) W-SW 240 0 min 0,000 mm 0,0 UV-I 0 W/m 6,0 C -1,1 C 30,6 km/h (5 Bft) 97,87 %
22.12.2018 20:50 7,1 C 3,9 C 6,7 C 93 % 1018,7 hPa 0,2 l/m 20,0 km/h (4 Bft) W-NW 283 0 min 0,000 mm 0,0 UV-I 0 W/m 6,0 C -0,5 C 35,4 km/h (5 Bft) 97,87 %
22.12.2018 20:52 7,1 C 3,9 C 6,1 C 93 % 1018,7 hPa 0,0 l/m 19,3 km/h (3 Bft) W-NW 289 0 min 0,000 mm 0,0 UV-I 0 W/m 6,0 C -0,2 C 35,4 km/h (5 Bft) 96,00 %
22.12.2018 20:54 7,1 C 3,9 C 6,1 C 92 % 1018,7 hPa 0,0 l/m 23,4 km/h (4 Bft) W-SW 250 0 min 0,000 mm 0,0 UV-I 0 W/m 5,9 C -1,6 C 30,6 km/h (5 Bft) 97,37 %
22.12.2018 20:56 7,1 C 3,9 C 6,1 C 92 % 1018,8 hPa 0,0 l/m 24,6 km/h (4 Bft) W 281 0 min 0,000 mm 0,0 UV-I 0 W/m 5,9 C -2,0 C 32,2 km/h (5 Bft) 97,87 %
22.12.2018 20:58 7,0 C 3,9 C 6,1 C 92 % 1018,8 hPa 0,2 l/m 21,2 km/h (4 Bft) W-SW 257 0 min 0,000 mm 0,0 UV-I 0 W/m 5,8 C -1,0 C 30,6 km/h (5 Bft) 93,62 %
22.12.2018 21:00 6,9 C 3,9 C 6,1 C 91 % 1018,9 hPa 0,0 l/m 24,6 km/h (4 Bft) W 272 0 min 0,000 mm 0,0 UV-I 0 W/m 5,5 C -2,2 C 35,4 km/h (5 Bft) 97,87 %
22.12.2018 21:02 6,9 C 3,9 C 6,1 C 91 % 1018,9 hPa 0,2 l/m 26,3 km/h (4 Bft) W 272 0 min 0,026 mm 0,0 UV-I 0 W/m 5,5 C -2,7 C 33,8 km/h (5 Bft) 94,00 %
22.12.2018 21:04 6,9 C 3,9 C 6,1 C 91 % 1018,8 hPa 0,0 l/m 19,7 km/h (3 Bft) W 273 0 min 0,000 mm 0,0 UV-I 0 W/m 5,5 C -0,6 C 32,2 km/h (5 Bft) 90,00 %
22.12.2018 21:06 6,8 C 3,9 C 6,1 C 91 % 1018,9 hPa 0,2 l/m 13,0 km/h (3 Bft) W 271 0 min 0,000 mm 0,0 UV-I 0 W/m 5,4 C 2,3 C 27,4 km/h (4 Bft) 91,49 %
22.12.2018 21:08 6,7 C 3,9 C 6,1 C 91 % 1018,8 hPa 0,0 l/m 21,4 km/h (4 Bft) W 266 0 min 0,000 mm 0,0 UV-I 0 W/m 5,3 C -1,5 C 33,8 km/h (5 Bft) 94,44 %
22.12.2018 21:10 6,7 C 3,9 C 6,1 C 91 % 1018,7 hPa 0,2 l/m 16,6 km/h (3 Bft) W 261 0 min 0,000 mm 0,0 UV-I 0 W/m 5,3 C 0,4 C 25,7 km/h (4 Bft) 88,00 %
22.12.2018 21:12 6,7 C 3,9 C 6,1 C 92 % 1018,7 hPa 0,0 l/m 19,5 km/h (3 Bft) W 267 0 min 0,000 mm 0,0 UV-I 0 W/m 5,5 C -0,8 C 30,6 km/h (5 Bft) 95,74 %
22.12.2018 21:14 6,7 C 3,9 C 6,1 C 92 % 1018,7 hPa 0,0 l/m 16,7 km/h (3 Bft) W-NW 284 0 min 0,000 mm 0,0 UV-I 0 W/m 5,5 C 0,4 C 30,6 km/h (5 Bft) 91,49 %
22.12.2018 21:16 6,6 C 3,9 C 6,1 C 92 % 1018,7 hPa 0,2 l/m 20,1 km/h (4 Bft) W 265 0 min 0,000 mm 0,0 UV-I 0 W/m 5,4 C -1,1 C 35,4 km/h (5 Bft) 91,49 %
22.12.2018 21:19 6,6 C 3,9 C 6,1 C 92 % 1018,8 hPa 0,0 l/m 16,3 km/h (3 Bft) W 266 0 min 0,000 mm 0,0 UV-I 0 W/m 5,4 C 0,4 C 22,5 km/h (4 Bft) 94,52 %
22.12.2018 21:20 6,6 C 3,9 C 6,1 C 92 % 1018,8 hPa 0,0 l/m 16,7 km/h (3 Bft) W 269 0 min 0,000 mm 0,0 UV-I 0 W/m 5,4 C 0,2 C 17,7 km/h (3 Bft) 95,45 %
22.12.2018 21:22 6,6 C 3,9 C 6,1 C 92 % 1018,7 hPa 0,0 l/m 18,2 km/h (3 Bft) W 269 0 min 0,000 mm 0,0 UV-I 0 W/m 5,4 C -0,4 C 25,7 km/h (4 Bft) 94,00 %
22.12.2018 21:24 6,6 C 3,9 C 6,1 C 92 % 1018,7 hPa 0,2 l/m 18,4 km/h (3 Bft) W-SW 241 0 min 0,000 mm 0,0 UV-I 0 W/m 5,4 C -0,5 C 30,6 km/h (5 Bft) 93,62 %
22.12.2018 21:26 6,6 C 3,9 C 6,1 C 92 % 1018,8 hPa 0,0 l/m 21,7 km/h (4 Bft) W-SW 254 0 min 0,000 mm 0,0 UV-I 0 W/m 5,4 C -1,7 C 32,2 km/h (5 Bft) 97,87 %
22.12.2018 21:28 6,6 C 3,9 C 6,1 C 92 % 1018,9 hPa 0,0 l/m 17,1 km/h (3 Bft) W-NW 290 0 min 0,000 mm 0,0 UV-I 0 W/m 5,4 C 0,1 C 25,7 km/h (4 Bft) 98,00 %
22.12.2018 21:30 6,7 C 3,9 C 6,1 C 92 % 1019,0 hPa 0,0 l/m 17,6 km/h (3 Bft) W-SW 257 0 min 0,000 mm 0,0 UV-I 0 W/m 5,5 C -0,0 C 29,0 km/h (5 Bft) 97,87 %
22.12.2018 21:32 6,7 C 3,9 C 6,1 C 92 % 1019,0 hPa 0,0 l/m 14,6 km/h (3 Bft) W-NW 283 0 min 0,000 mm 0,0 UV-I 0 W/m 5,5 C 1,3 C 22,5 km/h (4 Bft) 95,74 %
22.12.2018 21:34 6,7 C 3,9 C 6,1 C 92 % 1018,9 hPa 0,0 l/m 18,1 km/h (3 Bft) W 277 0 min 0,000 mm 0,0 UV-I 0 W/m 5,5 C -0,2 C 33,8 km/h (5 Bft) 94,74 %
22.12.2018 21:36 6,7 C 3,9 C 6,1 C 92 % 1019,1 hPa 0,0 l/m 18,9 km/h (3 Bft) W 271 0 min 0,000 mm 0,0 UV-I 0 W/m 5,5 C -0,6 C 30,6 km/h (5 Bft) 95,74 %
22.12.2018 21:39 6,7 C 3,9 C 6,1 C 92 % 1018,9 hPa 0,0 l/m 13,1 km/h (3 Bft) W 269 0 min 0,000 mm 0,0 UV-I 0 W/m 5,5 C 2,1 C 19,3 km/h (3 Bft) 98,59 %
22.12.2018 21:40 6,7 C 3,9 C 6,1 C 92 % 1018,9 hPa 0,0 l/m 18,7 km/h (3 Bft) W 268 0 min 0,000 mm 0,0 UV-I 0 W/m 5,5 C -0,5 C 29,0 km/h (5 Bft) 95,65 %
22.12.2018 21:42 6,7 C 3,9 C 6,1 C 92 % 1018,9 hPa 0,0 l/m 14,5 km/h (3 Bft) SW 232 0 min 0,000 mm 0,0 UV-I 0 W/m 5,5 C 1,4 C 19,3 km/h (3 Bft) 100,00 %
22.12.2018 21:44 6,7 C 3,9 C 6,1 C 92 % 1018,9 hPa 0,0 l/m 16,6 km/h (3 Bft) SW 236 0 min 0,000 mm 0,0 UV-I 0 W/m 5,5 C 0,4 C 24,1 km/h (4 Bft) 100,00 %
22.12.2018 21:46 6,7 C 3,9 C 6,1 C 92 % 1019,0 hPa 0,0 l/m 14,8 km/h (3 Bft) SW 227 0 min 0,000 mm 0,0 UV-I 0 W/m 5,5 C 1,2 C 22,5 km/h (4 Bft) 97,87 %
22.12.2018 21:48 6,7 C 3,9 C 5,6 C 92 % 1019,1 hPa 0,0 l/m 15,6 km/h (3 Bft) W-SW 252 0 min 0,000 mm 0,0 UV-I 0 W/m 5,5 C 0,9 C 20,9 km/h (4 Bft) 100,00 %
22.12.2018 21:50 6,8 C 3,9 C 5,6 C 92 % 1019,1 hPa 0,0 l/m 15,8 km/h (3 Bft) W 263 0 min 0,000 mm 0,0 UV-I 0 W/m 5,6 C 0,9 C 20,9 km/h (4 Bft) 100,00 %
22.12.2018 21:52 6,7 C 3,9 C 6,1 C 92 % 1019,2 hPa 0,0 l/m 17,0 km/h (3 Bft) W-SW 254 0 min 0,000 mm 0,0 UV-I 0 W/m 5,5 C 0,2 C 22,5 km/h (4 Bft) 98,04 %
22.12.2018 21:54 6,7 C 3,9 C 6,1 C 92 % 1019,2 hPa 0,0 l/m 13,8 km/h (3 Bft) W-SW 254 0 min 0,000 mm 0,0 UV-I 0 W/m 5,5 C 1,7 C 19,3 km/h (3 Bft) 100,00 %
22.12.2018 21:56 6,7 C 3,9 C 5,6 C 92 % 1019,2 hPa 0,0 l/m 14,1 km/h (3 Bft) W-SW 241 0 min 0,000 mm 0,0 UV-I 0 W/m 5,5 C 1,6 C 24,1 km/h (4 Bft) 100,00 %
22.12.2018 21:58 6,7 C 3,9 C 5,6 C 92 % 1019,2 hPa 0,0 l/m 14,4 km/h (3 Bft) W-NW 296 0 min 0,000 mm 0,0 UV-I 0 W/m 5,5 C 1,4 C 19,3 km/h (3 Bft) 100,00 %
22.12.2018 22:00 6,8 C 3,9 C 5,6 C 91 % 1019,2 hPa 0,0 l/m 17,4 km/h (3 Bft) W-SW 245 0 min 0,000 mm 0,0 UV-I 0 W/m 5,4 C 0,2 C 25,7 km/h (4 Bft) 100,00 %
22.12.2018 22:02 6,7 C 3,9 C 5,6 C 91 % 1019,2 hPa 0,0 l/m 12,6 km/h (3 Bft) W-SW 249 0 min 0,025 mm 0,0 UV-I 0 W/m 5,3 C 2,4 C 19,3 km/h (3 Bft) 100,00 %
22.12.2018 22:04 6,7 C 3,9 C 5,6 C 91 % 1019,2 hPa 0,0 l/m 15,3 km/h (3 Bft) W 266 0 min 0,000 mm 0,0 UV-I 0 W/m 5,3 C 1,0 C 22,5 km/h (4 Bft) 97,87 %
22.12.2018 22:06 6,7 C 3,9 C 5,6 C 91 % 1019,2 hPa 0,0 l/m 13,7 km/h (3 Bft) SW 223 0 min 0,000 mm 0,0 UV-I 0 W/m 5,3 C 1,8 C 19,3 km/h (3 Bft) 100,00 %
22.12.2018 22:08 6,7 C 3,9 C 5,6 C 91 % 1019,2 hPa 0,0 l/m 14,2 km/h (3 Bft) W-SW 247 0 min 0,000 mm 0,0 UV-I 0 W/m 5,3 C 1,5 C 20,9 km/h (4 Bft) 98,00 %
22.12.2018 22:10 6,7 C 3,9 C 5,6 C 91 % 1019,2 hPa 0,0 l/m 11,7 km/h (2 Bft) SW 215 0 min 0,000 mm 0,0 UV-I 0 W/m 5,3 C 2,9 C 17,7 km/h (3 Bft) 100,00 %
22.12.2018 22:12 6,7 C 3,9 C 5,6 C 91 % 1019,2 hPa 0,0 l/m 10,9 km/h (2 Bft) W-NW 283 0 min 0,000 mm 0,0 UV-I 0 W/m 5,3 C 3,4 C 16,1 km/h (3 Bft) 97,87 %
22.12.2018 22:14 6,7 C 3,9 C 5,6 C 91 % 1019,3 hPa 0,0 l/m 13,6 km/h (3 Bft) W-SW 244 0 min 0,000 mm 0,0 UV-I 0 W/m 5,3 C 1,8 C 19,3 km/h (3 Bft) 100,00 %
22.12.2018 22:16 6,7 C 3,9 C 5,6 C 91 % 1019,2 hPa 0,0 l/m 12,2 km/h (2 Bft) SW 234 0 min 0,000 mm 0,0 UV-I 0 W/m 5,3 C 2,6 C 17,7 km/h (3 Bft) 100,00 %
22.12.2018 22:18 6,7 C 3,9 C 5,6 C 91 % 1019,2 hPa 0,0 l/m 14,8 km/h (3 Bft) SW 227 0 min 0,000 mm 0,0 UV-I 0 W/m 5,3 C 1,2 C 19,3 km/h (3 Bft) 100,00 %
22.12.2018 22:20 6,7 C 3,9 C 5,6 C 91 % 1019,2 hPa 0,0 l/m 12,4 km/h (3 Bft) W 276 0 min 0,000 mm 0,0 UV-I 0 W/m 5,3 C 2,5 C 16,1 km/h (3 Bft) 97,87 %
22.12.2018 22:22 6,7 C 3,9 C 5,6 C 91 % 1019,2 hPa 0,0 l/m 13,8 km/h (3 Bft) W-SW 244 0 min 0,000 mm 0,0 UV-I 0 W/m 5,3 C 1,7 C 20,9 km/h (4 Bft) 100,00 %
22.12.2018 22:24 6,7 C 3,9 C 5,6 C 91 % 1019,2 hPa 0,0 l/m 14,7 km/h (3 Bft) W-SW 241 0 min 0,000 mm 0,0 UV-I 0 W/m 5,3 C 1,3 C 20,9 km/h (4 Bft) 95,74 %
22.12.2018 22:26 6,7 C 3,9 C 5,6 C 91 % 1019,3 hPa 0,0 l/m 14,0 km/h (3 Bft) W-SW 244 0 min 0,000 mm 0,0 UV-I 0 W/m 5,3 C 1,6 C 20,9 km/h (4 Bft) 93,62 %
22.12.2018 22:29 6,7 C 3,9 C 5,6 C 91 % 1019,5 hPa 0,0 l/m 13,3 km/h (3 Bft) SW 229 0 min 0,000 mm 0,0 UV-I 0 W/m 5,3 C 2,0 C 20,9 km/h (4 Bft) 98,59 %
22.12.2018 22:30 6,8 C 3,9 C 5,6 C 91 % 1019,5 hPa 0,0 l/m 12,2 km/h (2 Bft) W-SW 251 0 min 0,000 mm 0,0 UV-I 0 W/m 5,4 C 2,7 C 16,1 km/h (3 Bft) 100,00 %
22.12.2018 22:32 6,8 C 3,9 C 6,1 C 91 % 1019,5 hPa 0,0 l/m 15,0 km/h (3 Bft) W-SW 246 0 min 0,000 mm 0,0 UV-I 0 W/m 5,4 C 1,3 C 20,9 km/h (4 Bft) 94,64 %
22.12.2018 22:34 6,8 C 3,9 C 6,1 C 91 % 1019,5 hPa 0,0 l/m 13,7 km/h (3 Bft) W 267 0 min 0,000 mm 0,0 UV-I 0 W/m 5,4 C 1,9 C 22,5 km/h (4 Bft) 96,00 %
22.12.2018 22:36 6,9 C 3,9 C 6,1 C 91 % 1019,5 hPa 0,0 l/m 14,7 km/h (3 Bft) SW 231 0 min 0,000 mm 0,0 UV-I 0 W/m 5,5 C 1,5 C 22,5 km/h (4 Bft) 97,37 %
22.12.2018 22:38 6,9 C 3,9 C 6,1 C 91 % 1019,6 hPa 0,0 l/m 13,5 km/h (3 Bft) W 261 0 min 0,000 mm 0,0 UV-I 0 W/m 5,5 C 2,1 C 17,7 km/h (3 Bft) 97,87 %
22.12.2018 22:40 7,0 C 3,9 C 6,1 C 91 % 1019,6 hPa 0,0 l/m 13,5 km/h (3 Bft) W 261 0 min 0,000 mm 0,0 UV-I 0 W/m 5,6 C 2,2 C 19,3 km/h (3 Bft) 95,74 %
22.12.2018 22:42 7,0 C 3,9 C 6,1 C 91 % 1019,6 hPa 0,0 l/m 12,1 km/h (2 Bft) W-SW 246 0 min 0,000 mm 0,0 UV-I 0 W/m 5,6 C 3,0 C 19,3 km/h (3 Bft) 97,87 %
22.12.2018 22:44 7,1 C 3,9 C 6,1 C 91 % 1019,6 hPa 0,0 l/m 12,2 km/h (2 Bft) W-SW 250 0 min 0,000 mm 0,0 UV-I 0 W/m 5,7 C 3,1 C 17,7 km/h (3 Bft) 96,00 %
22.12.2018 22:46 7,1 C 3,9 C 6,1 C 91 % 1019,6 hPa 0,0 l/m 11,6 km/h (2 Bft) W-SW 247 0 min 0,000 mm 0,0 UV-I 0 W/m 5,7 C 3,4 C 17,7 km/h (3 Bft) 98,00 %
22.12.2018 22:48 7,1 C 3,9 C 6,1 C 91 % 1019,6 hPa 0,0 l/m 11,3 km/h (2 Bft) W-SW 244 0 min 0,000 mm 0,0 UV-I 0 W/m 5,7 C 3,6 C 16,1 km/h (3 Bft) 97,87 %
22.12.2018 22:50 7,1 C 3,9 C 6,1 C 91 % 1019,6 hPa 0,0 l/m 11,2 km/h (2 Bft) W-SW 254 0 min 0,000 mm 0,0 UV-I 0 W/m 5,7 C 3,6 C 19,3 km/h (3 Bft) 97,87 %
22.12.2018 22:52 7,1 C 3,9 C 6,1 C 91 % 1019,5 hPa 0,0 l/m 16,5 km/h (3 Bft) W 272 0 min 0,000 mm 0,0 UV-I 0 W/m 5,7 C 0,9 C 22,5 km/h (4 Bft) 100,00 %
22.12.2018 22:54 7,2 C 3,9 C 6,7 C 91 % 1019,5 hPa 0,0 l/m 15,1 km/h (3 Bft) W-SW 254 0 min 0,000 mm 0,0 UV-I 0 W/m 5,8 C 1,7 C 24,1 km/h (4 Bft) 96,30 %
22.12.2018 22:56 7,3 C 3,9 C 6,7 C 91 % 1019,5 hPa 0,0 l/m 14,2 km/h (3 Bft) W-SW 254 0 min 0,000 mm 0,0 UV-I 0 W/m 5,9 C 2,2 C 24,1 km/h (4 Bft) 100,00 %
22.12.2018 22:59 7,3 C 3,9 C 6,7 C 91 % 1019,6 hPa 0,0 l/m 10,8 km/h (2 Bft) SW 218 0 min 0,000 mm 0,0 UV-I 0 W/m 5,9 C 4,1 C 17,7 km/h (3 Bft) 98,59 %
22.12.2018 23:00 7,3 C 3,9 C 6,7 C 91 % 1019,6 hPa 0,0 l/m 8,5 km/h (2 Bft) W-SW 238 0 min 0,000 mm 0,0 UV-I 0 W/m 5,9 C 5,6 C 11,3 km/h (2 Bft) 100,00 %
22.12.2018 23:02 7,3 C 3,9 C 6,7 C 91 % 1019,6 hPa 0,0 l/m 13,9 km/h (3 Bft) SW 232 0 min 0,025 mm 0,0 UV-I 0 W/m 5,9 C 2,4 C 22,5 km/h (4 Bft) 98,00 %
22.12.2018 23:04 7,3 C 3,9 C 6,7 C 91 % 1019,6 hPa 0,0 l/m 15,9 km/h (3 Bft) W-SW 249 0 min 0,000 mm 0,0 UV-I 0 W/m 5,9 C 1,5 C 24,1 km/h (4 Bft) 100,00 %
22.12.2018 23:06 7,4 C 3,9 C 6,7 C 91 % 1019,6 hPa 0,0 l/m 14,0 km/h (3 Bft) W 267 0 min 0,000 mm 0,0 UV-I 0 W/m 6,0 C 2,5 C 22,5 km/h (4 Bft) 100,00 %
22.12.2018 23:08 7,4 C 3,9 C 6,7 C 91 % 1019,6 hPa 0,0 l/m 13,2 km/h (3 Bft) W-SW 240 0 min 0,000 mm 0,0 UV-I 0 W/m 6,0 C 2,9 C 19,3 km/h (3 Bft) 100,00 %
22.12.2018 23:10 7,4 C 3,9 C 6,7 C 91 % 1019,7 hPa 0,0 l/m 11,7 km/h (2 Bft) W-SW 250 0 min 0,000 mm 0,0 UV-I 0 W/m 6,0 C 3,7 C 17,7 km/h (3 Bft) 100,00 %
22.12.2018 23:12 7,4 C 3,9 C 6,7 C 91 % 1019,7 hPa 0,0 l/m 13,9 km/h (3 Bft) W-SW 245 0 min 0,000 mm 0,0 UV-I 0 W/m 6,0 C 2,5 C 20,9 km/h (4 Bft) 100,00 %
22.12.2018 23:14 7,4 C 3,9 C 6,7 C 91 % 1019,7 hPa 0,0 l/m 13,6 km/h (3 Bft) W-SW 237 0 min 0,000 mm 0,0 UV-I 0 W/m 6,0 C 2,7 C 17,7 km/h (3 Bft) 97,87 %
22.12.2018 23:16 7,4 C 3,9 C 6,7 C 91 % 1019,7 hPa 0,0 l/m 17,0 km/h (3 Bft) W 262 0 min 0,000 mm 0,0 UV-I 0 W/m 6,0 C 1,1 C 27,4 km/h (4 Bft) 96,00 %
22.12.2018 23:18 7,4 C 3,9 C 6,7 C 90 % 1019,7 hPa 0,0 l/m 16,4 km/h (3 Bft) W-SW 251 0 min 0,000 mm 0,0 UV-I 0 W/m 5,9 C 1,4 C 20,9 km/h (4 Bft) 97,73 %
22.12.2018 23:20 7,5 C 3,9 C 6,7 C 90 % 1019,7 hPa 0,0 l/m 21,6 km/h (4 Bft) W 276 0 min 0,000 mm 0,0 UV-I 0 W/m 6,0 C -0,5 C 32,2 km/h (5 Bft) 97,87 %
22.12.2018 23:22 7,5 C 3,9 C 6,7 C 90 % 1019,8 hPa 0,0 l/m 16,6 km/h (3 Bft) W-SW 258 0 min 0,000 mm 0,0 UV-I 0 W/m 6,0 C 1,4 C 24,1 km/h (4 Bft) 95,74 %
22.12.2018 23:24 7,6 C 3,9 C 6,7 C 90 % 1019,7 hPa 0,0 l/m 16,5 km/h (3 Bft) W-SW 247 0 min 0,000 mm 0,0 UV-I 0 W/m 6,1 C 1,6 C 24,1 km/h (4 Bft) 97,37 %
22.12.2018 23:26 7,6 C 3,9 C 6,7 C 89 % 1019,7 hPa 0,2 l/m 23,7 km/h (4 Bft) W-SW 257 0 min 0,000 mm 0,0 UV-I 0 W/m 5,9 C -1,0 C 37,0 km/h (5 Bft) 98,00 %
22.12.2018 23:28 7,6 C 3,9 C 6,7 C 89 % 1019,7 hPa 0,0 l/m 20,6 km/h (4 Bft) W-SW 251 0 min 0,000 mm 0,0 UV-I 0 W/m 5,9 C -0,0 C 29,0 km/h (5 Bft) 96,00 %
22.12.2018 23:30 7,6 C 3,9 C 6,7 C 89 % 1019,8 hPa 0,0 l/m 23,0 km/h (4 Bft) W-SW 238 0 min 0,000 mm 0,0 UV-I 0 W/m 5,9 C -0,8 C 33,8 km/h (5 Bft) 91,49 %
22.12.2018 23:32 7,5 C 3,9 C 6,1 C 89 % 1019,8 hPa 0,0 l/m 22,5 km/h (4 Bft) W-SW 257 0 min 0,000 mm 0,0 UV-I 0 W/m 5,8 C -0,8 C 29,0 km/h (5 Bft) 95,74 %
22.12.2018 23:34 7,5 C 3,9 C 6,1 C 89 % 1019,8 hPa 0,2 l/m 17,8 km/h (3 Bft) W 270 0 min 0,000 mm 0,0 UV-I 0 W/m 5,8 C 0,9 C 29,0 km/h (5 Bft) 100,00 %
22.12.2018 23:36 7,4 C 3,9 C 6,1 C 89 % 1019,7 hPa 0,0 l/m 23,1 km/h (4 Bft) W 261 0 min 0,000 mm 0,0 UV-I 0 W/m 5,7 C -1,1 C 41,8 km/h (6 Bft) 94,74 %
22.12.2018 23:39 7,3 C 3,9 C 6,1 C 89 % 1019,8 hPa 0,2 l/m 20,9 km/h (4 Bft) W 279 0 min 0,000 mm 0,0 UV-I 0 W/m 5,6 C -0,5 C 30,6 km/h (5 Bft) 96,39 %
22.12.2018 23:40 7,3 C 3,9 C 6,1 C 90 % 1019,8 hPa 0,0 l/m 27,3 km/h (4 Bft) W-NW 288 0 min 0,000 mm 0,0 UV-I 0 W/m 5,8 C -2,5 C 38,6 km/h (5 Bft) 100,00 %
22.12.2018 23:42 7,2 C 3,9 C 6,1 C 90 % 1019,8 hPa 0,2 l/m 22,1 km/h (4 Bft) W-SW 252 0 min 0,000 mm 0,0 UV-I 0 W/m 5,7 C -1,1 C 38,6 km/h (5 Bft) 97,87 %
22.12.2018 23:44 7,1 C 3,9 C 6,1 C 90 % 1019,8 hPa 0,0 l/m 21,6 km/h (4 Bft) W 277 0 min 0,000 mm 0,0 UV-I 0 W/m 5,6 C -1,0 C 32,2 km/h (5 Bft) 93,62 %
22.12.2018 23:46 7,1 C 3,9 C 6,1 C 90 % 1019,8 hPa 0,0 l/m 19,0 km/h (3 Bft) W 263 0 min 0,000 mm 0,0 UV-I 0 W/m 5,6 C -0,1 C 30,6 km/h (5 Bft) 91,43 %
22.12.2018 23:49 7,0 C 3,9 C 6,1 C 91 % 1019,9 hPa 0,2 l/m 22,1 km/h (4 Bft) W-NW 303 0 min 0,000 mm 0,0 UV-I 0 W/m 5,6 C -1,3 C 33,8 km/h (5 Bft) 94,12 %
22.12.2018 23:50 7,0 C 3,9 C 6,1 C 91 % 1019,9 hPa 0,0 l/m 26,2 km/h (4 Bft) W 259 0 min 0,000 mm 0,0 UV-I 0 W/m 5,6 C -2,6 C 35,4 km/h (5 Bft) 95,83 %
22.12.2018 23:52 7,0 C 3,9 C 6,1 C 91 % 1019,8 hPa 0,2 l/m 25,6 km/h (4 Bft) W 259 0 min 0,000 mm 0,0 UV-I 0 W/m 5,6 C -2,4 C 45,1 km/h (6 Bft) 98,00 %
22.12.2018 23:54 6,9 C 3,9 C 6,1 C 91 % 1019,8 hPa 0,0 l/m 22,5 km/h (4 Bft) W-NW 283 0 min 0,000 mm 0,0 UV-I 0 W/m 5,5 C -1,6 C 35,4 km/h (5 Bft) 95,74 %
22.12.2018 23:56 6,9 C 3,9 C 6,1 C 90 % 1019,8 hPa 0,2 l/m 22,4 km/h (4 Bft) W-NW 292 0 min 0,000 mm 0,0 UV-I 0 W/m 5,4 C -1,6 C 33,8 km/h (5 Bft) 97,87 %
22.12.2018 23:59 6,8 C 3,9 C 6,1 C 90 % 1019,7 hPa 0,0 l/m 17,4 km/h (3 Bft) W-NW 282 0 min 0,000 mm 0,0 UV-I 0 W/m 5,3 C 0,2 C 30,6 km/h (5 Bft) 95,71 %
_ Min-Zeit 21:16 00:00 17:28 12:00 07:18 - 08:50 - - - - - - 17:18 14:50 08:50 20:14
Minimum _ 6,6 C 3,9 C 5,6 C 67 % 1011,2 hPa - 5,6 km/h (1 Bft) - - - - - - 4,3 C -3,1 C 9,7 km/h (2 Bft) 86,84 %
_ Max-Zeit 11:08 00:00 11:00 06:48 23:49 14:46 14:50 - - 08:34 12:00 00:00 11:04 07:28 12:40 14:46 01:08
Maximum _ 12,9 C 3,9 C 12,2 C 94 % 1019,9 hPa 0,4 l/m 39,5 km/h
W (6 Bft)
- - 2 min 0,152 mm 0,0 UV-I 171 W/m 8,6 C 10,0 C 75,6 km/h
W (9 Bft)
100,00 %
Durchschnitt _ 9,5 C 3,9 C 8,4 C 84 % 1014,6 hPa #11,6 l/m 21,0 km/h (4 Bft) W - #26 min. #1,168 mm 0,0 UV-I 53 W/m 6,8 C 2,7 C 32,9 km/h (5 Bft) 97,07 %